GFSSGP_925_temp_000.txt.gz
Temp
26 26 26 26 26 24 25 26 27 25 26 25 26 26 23 23 24 22 21 21 21 20 21 21 21 21 22 22 22 22 22 21 22 22 22 23 23 23 24 23 23 23 23 23 22 23 22 21 21
26 25 26 24 26 24 24 27 26 27 25 26 26 25 24 23 22 20 21 21 22 21 21 21 22 21 22 21 22 22 22 22 23 23 22 23 23 23 23 23 23 23 23 23 23 22 21 21 21
25 26 25 24 24 25 25 27 26 26 26 27 25 25 24 22 21 21 22 21 21 21 21 21 21 21 21 21 21 22 22 22 22 22 22 22 22 22 23 23 23 23 23 23 22 22 21 22 21
26 25 24 26 28 28 28 26 27 27 26 26 25 23 24 23 23 22 22 21 21 21 21 22 22 21 21 21 21 21 21 22 23 22 22 22 22 22 22 23 23 22 23 22 22 22 21 21 21
26 23 25 27 27 29 28 28 27 26 26 26 25 23 23 23 23 22 21 21 21 21 22 22 22 21 21 21 21 22 21 23 23 22 22 22 22 22 23 23 23 23 22 22 22 21 21 21 21
24 23 26 26 27 28 28 28 27 26 25 24 24 24 22 22 22 21 21 21 22 22 22 22 22 22 22 22 22 22 23 23 23 23 23 23 23 23 23 23 23 22 22 21 21 21 21 21 21
26 24 26 27 27 28 28 27 25 25 25 24 25 24 22 22 22 21 22 22 21 22 22 22 22 22 22 22 23 23 23 23 23 23 23 23 23 23 23 23 23 22 22 21 21 21 22 21 22
26 26 28 28 26 28 27 27 26 26 26 26 25 23 22 22 22 22 22 22 21 22 22 22 22 22 22 22 23 23 23 23 23 23 23 23 23 23 23 23 23 22 22 21 21 23 22 22 22
29 26 27 27 27 28 27 26 27 27 25 27 26 24 24 22 21 21 21 21 21 21 22 22 22 22 23 22 22 23 23 23 23 23 23 23 23 23 23 23 22 23 22 23 23 22 23 22 22
28 28 28 28 28 27 27 27 27 26 26 25 24 24 23 22 21 21 21 21 21 21 22 22 22 22 22 22 22 22 22 22 23 23 23 24 23 23 23 23 23 23 23 23 23 23 22 22 22
28 29 30 30 29 29 28 28 27 26 25 25 23 23 23 22 22 21 21 21 21 22 22 22 22 22 22 22 22 23 23 23 23 23 23 23 23 22 23 23 23 23 23 23 23 22 22 22 22
31 30 30 30 30 29 28 27 26 26 26 26 24 24 23 22 22 22 21 21 21 21 22 22 22 22 22 22 23 23 23 23 23 23 23 23 23 23 23 23 23 23 22 22 22 22 22 22 22
31 31 30 30 28 29 28 28 27 27 26 26 25 24 23 23 23 22 22 22 21 21 22 22 22 22 22 22 23 23 23 23 23 23 23 23 23 23 23 23 23 23 22 22 22 21 21 21 22
33 31 29 28 28 29 27 27 27 26 26 25 24 24 23 23 23 23 22 22 21 22 22 23 23 23 22 23 23 23 24 23 23 23 23 23 23 23 23 23 22 22 22 22 21 21 21 21 21
32 29 29 29 29 28 29 28 27 26 26 25 24 24 24 24 24 23 23 22 22 23 23 23 23 23 23 23 24 24 24 24 24 24 23 23 23 23 23 23 23 22 22 21 21 21 20 20 20
31 29 29 30 29 28 29 27 26 26 26 25 25 25 24 24 24 23 23 23 23 23 23 24 24 23 24 24 24 24 24 24 24 24 24 24 24 23 23 23 23 22 22 21 21 20 21 21 20
29 28 29 30 29 29 28 27 26 26 25 25 25 25 25 24 24 24 23 23 23 23 24 24 24 24 24 24 24 24 24 24 24 24 24 24 23 23 23 23 22 22 21 21 20 20 20 20 20
28 29 29 28 29 28 27 26 25 26 25 25 25 25 25 24 24 24 24 24 24 24 24 24 24 24 25 24 24 24 23 23 23 23 23 23 23 23 23 23 22 21 21 20 20 20 20 20 19
29 29 30 30 30 28 26 26 25 26 26 25 25 25 25 25 25 25 24 24 24 24 24 24 24 24 25 24 24 23 23 23 23 23 23 23 23 22 23 22 22 21 21 20 20 20 20 20 19
29 28 29 30 30 30 27 27 26 26 26 26 25 25 25 25 24 24 25 24 24 25 25 24 24 25 25 24 24 23 23 23 23 22 22 22 22 22 22 22 21 21 20 20 20 20 20 19 19
29 29 28 31 29 28 27 27 25 26 26 26 26 26 26 25 25 24 24 24 24 24 25 25 25 25 25 24 24 23 22 22 22 22 22 22 22 22 22 21 21 21 21 21 20 20 19 19 19
28 29 30 29 28 27 28 26 24 26 25 26 26 26 26 26 26 25 24 24 24 25 25 25 25 25 25 24 24 23 23 22 22 22 23 22 22 22 22 22 21 20 20 20 20 19 19 19 19
30 29 29 28 27 27 27 26 26 25 25 26 27 27 27 27 26 25 25 25 25 25 25 26 26 26 25 24 24 23 23 23 23 23 22 22 22 21 22 21 21 21 20 20 20 19 19 19 18
30 28 26 23 23 25 26 27 26 23 27 28 28 28 27 27 26 26 26 26 25 25 25 26 26 26 25 25 24 24 23 23 22 22 22 22 21 22 22 21 21 21 20 20 20 19 19 19 19
28 26 25 26 24 24 24 25 29 27 28 30 28 28 28 28 26 26 25 25 24 24 25 26 26 26 25 25 25 24 24 23 23 23 23 22 22 22 22 21 21 20 20 20 20 20 20 20 19
28 26 24 27 25 27 24 25 29 31 30 29 28 29 28 28 27 26 25 25 25 24 25 25 25 25 25 25 24 24 24 23 23 23 23 22 22 22 22 21 21 21 21 20 20 20 20 20 20
28 27 27 24 23 25 24 26 29 30 29 27 28 27 28 28 27 26 26 26 25 25 25 25 25 25 25 25 25 24 24 23 22 23 23 22 22 22 21 21 21 21 20 20 20 20 20 20 20
29 27 28 22 25 26 25 27 27 29 28 27 27 27 28 28 27 27 26 26 25 25 25 25 25 25 25 26 25 25 24 23 23 24 23 22 22 22 21 21 20 20 20 20 20 20 20 20 20
28 27 24 23 23 24 25 24 24 28 28 28 26 28 28 27 27 26 26 26 26 26 26 25 24 24 24 25 25 24 24 23 24 24 23 23 22 22 22 21 21 20 20 20 20 20 20 20 20
29 27 26 28 25 22 24 26 28 27 28 26 27 28 26 26 26 26 26 26 26 26 26 25 24 24 24 24 24 24 24 24 24 24 23 23 22 22 22 21 21 20 20 20 20 20 20 20 20

GFSSGP_925_temp_003.txt.gz
Temp
23 22 23 25 30 31 29 29 29 28 28 27 27 26 24 23 25 26 21 21 21 20 20 20 21 22 22 22 21 22 22 22 22 22 23 23 23 23 23 23 23 22 22 22 22 22 22 22 21
25 24 25 28 31 30 29 29 29 29 27 28 27 26 25 24 24 23 22 21 21 21 20 21 21 22 22 22 22 22 21 21 22 22 22 22 23 22 22 23 23 22 22 22 22 21 21 22 21
26 26 29 30 31 30 29 29 28 28 28 28 26 27 26 24 24 24 23 21 21 21 21 21 21 22 22 22 22 21 21 21 21 21 22 22 22 22 22 23 23 22 22 22 21 21 22 22 22
27 29 29 32 31 30 30 29 29 28 28 27 27 25 25 24 24 23 22 22 22 21 21 21 21 22 22 21 21 21 21 22 22 22 22 21 22 22 23 23 22 22 22 21 21 21 21 21 21
27 30 32 31 31 31 30 30 29 29 28 27 27 25 24 23 23 22 22 22 22 22 21 22 21 22 22 21 21 22 22 22 22 22 21 22 22 22 22 22 22 22 22 22 21 21 21 21 21
31 29 32 32 30 30 30 30 29 28 27 27 27 26 25 23 23 23 22 22 23 22 22 22 22 22 22 22 22 22 22 22 23 23 23 22 22 22 22 22 22 22 21 21 21 21 22 21 22
32 31 30 31 30 30 30 30 29 28 27 27 28 26 24 24 23 23 22 22 22 22 22 22 22 21 22 22 22 22 22 23 23 23 23 23 23 23 23 23 23 22 22 22 22 22 22 22 22
31 32 31 31 31 31 30 30 29 29 28 28 28 26 24 25 23 23 22 23 22 22 22 22 21 21 22 22 22 22 23 23 23 23 23 23 23 23 23 23 23 23 22 23 22 22 22 22 22
31 33 32 32 31 32 31 30 29 29 27 28 28 27 27 24 23 23 23 23 22 22 22 22 22 22 22 22 22 22 23 23 23 23 23 23 22 22 22 22 23 22 23 23 23 22 22 23 22
33 33 34 34 33 32 30 31 29 28 28 28 27 26 25 23 23 24 23 23 23 23 22 22 22 22 22 22 22 22 22 22 22 22 22 22 22 23 23 22 23 23 22 22 23 23 22 22 22
33 34 34 33 33 33 31 30 30 29 28 29 27 26 25 24 24 24 24 24 24 23 23 22 22 22 22 21 21 22 22 22 22 21 22 22 23 23 22 22 22 23 22 22 22 22 22 21 21
33 34 35 34 32 33 32 32 30 29 30 30 28 27 25 25 25 25 24 24 24 23 23 23 22 22 22 21 22 22 22 22 22 22 22 22 22 23 23 22 22 22 22 22 22 21 22 21 21
33 35 34 34 33 33 32 31 31 29 30 30 28 26 26 26 25 25 24 24 23 23 23 23 22 22 22 21 22 22 22 22 22 22 22 22 22 23 23 23 22 22 22 21 21 21 21 21 21
35 34 34 34 32 32 32 30 31 30 29 28 27 26 26 26 25 25 24 24 23 23 23 23 22 22 22 21 21 21 21 22 22 22 22 23 22 23 23 23 23 22 22 21 21 20 20 20 20
33 33 32 32 32 31 32 29 30 30 28 27 27 27 26 26 25 25 25 24 24 23 23 23 22 22 21 21 21 22 22 22 22 22 23 23 23 23 23 23 23 22 22 22 20 20 20 20 20
34 34 33 32 32 31 33 33 31 29 29 28 27 27 26 26 26 25 25 24 24 23 23 23 23 22 22 22 22 22 22 22 22 22 22 23 23 23 23 23 22 23 22 21 20 20 20 20 20
33 34 33 32 33 31 32 33 31 29 30 29 28 28 27 27 26 26 25 25 24 23 23 23 23 23 22 22 24 23 23 24 24 22 23 23 24 23 23 23 22 22 21 21 20 20 20 21 21
34 33 33 34 32 32 32 32 29 29 29 29 28 28 28 27 27 26 25 25 25 24 23 23 23 22 23 24 24 23 23 23 23 23 23 23 23 23 23 23 23 22 21 20 20 19 19 20 20
36 35 35 33 33 32 32 32 30 29 29 29 29 28 28 28 28 27 26 25 25 24 23 23 23 23 24 23 23 23 24 23 22 22 23 23 23 23 22 22 22 21 20 20 19 19 19 21 19
34 34 35 33 33 33 32 32 31 29 29 30 29 29 28 28 28 27 26 26 25 25 24 23 23 23 25 24 23 23 23 23 23 22 23 23 22 22 22 22 21 21 20 19 19 19 20 20 19
34 34 34 35 33 32 32 33 31 30 30 29 29 30 29 29 28 28 27 26 26 25 24 23 23 24 23 23 22 22 23 23 23 22 22 22 22 23 22 22 21 20 20 21 19 19 19 21 19
34 34 35 34 33 33 33 33 32 32 29 29 30 29 29 29 29 29 27 27 26 25 24 24 23 24 23 22 22 23 24 24 24 23 22 22 22 22 22 22 22 21 20 20 20 19 19 19 20
35 33 34 34 34 32 31 32 35 30 30 30 30 30 30 30 30 29 29 27 27 26 25 24 24 24 23 22 23 23 23 24 24 22 22 21 22 22 22 22 22 21 20 20 20 19 19 19 19
32 32 31 31 33 32 34 33 35 31 32 33 32 31 31 30 30 30 29 28 27 26 25 25 24 25 23 23 22 22 23 23 23 22 22 22 21 21 22 22 22 21 21 20 20 19 19 19 19
33 34 32 31 31 32 32 31 34 35 34 35 35 32 32 31 30 30 29 28 27 26 25 25 24 24 23 22 23 22 23 23 23 23 22 22 21 21 22 22 22 21 21 20 20 20 19 19 19
32 34 33 31 31 33 28 31 34 35 36 34 34 34 32 32 32 31 30 29 27 26 25 25 24 24 23 23 23 23 23 23 23 23 23 22 22 22 22 22 22 21 21 20 20 19 20 19 20
32 32 36 34 29 32 34 32 33 34 34 34 34 33 32 32 32 31 30 29 28 27 26 25 25 25 24 23 23 23 22 23 23 22 23 22 22 22 23 22 22 21 21 20 20 20 20 20 19
34 34 32 32 31 31 32 32 35 35 35 35 33 33 33 32 32 32 31 29 28 27 27 26 25 25 25 24 23 23 23 22 22 22 22 22 22 22 22 22 21 21 21 21 20 20 20 19 20
33 32 32 34 33 33 32 34 34 35 36 36 35 34 34 33 32 32 31 29 28 28 28 27 26 25 25 24 24 24 23 22 22 23 23 23 22 23 22 22 21 20 20 20 20 20 20 19 19
35 34 34 34 31 31 33 34 36 34 36 36 36 35 34 32 31 31 31 29 29 28 28 28 27 26 26 25 24 23 23 23 25 24 21 24 23 22 22 22 21 21 20 20 19 19 20 20 20

GFSSGP_925_temp_006.txt.gz
Temp
23 24 26 27 31 34 29 30 33 31 30 30 28 29 27 26 29 28 25 24 24 23 22 22 21 22 22 21 22 22 22 22 22 23 22 23 22 22 22 21 22 22 22 22 21 21 22 21 21
27 27 28 33 35 33 33 33 33 32 31 31 29 28 30 27 27 26 26 24 24 25 24 23 21 22 22 22 22 22 22 22 22 23 23 23 22 23 22 22 22 22 22 21 21 22 21 21 21
29 29 34 35 36 34 33 33 32 32 32 32 30 31 30 27 28 28 26 25 26 25 25 22 22 22 22 22 22 21 21 22 22 22 23 22 22 22 22 22 21 22 21 22 22 22 22 21 21
31 33 35 35 34 34 34 33 33 32 32 32 31 29 29 29 28 28 25 25 26 24 24 22 22 22 22 22 22 22 22 22 22 22 22 22 22 22 22 22 22 22 22 22 22 22 21 21 21
32 36 36 36 34 34 34 34 34 33 32 32 32 30 28 28 27 26 26 26 26 26 25 23 22 22 22 22 22 22 21 21 22 22 23 22 22 22 23 22 22 21 22 22 22 22 21 21 22
36 36 37 36 34 34 34 34 34 33 32 31 32 30 29 27 27 27 26 26 26 26 25 24 22 22 22 22 22 22 21 22 22 22 22 22 22 23 22 23 22 21 21 22 22 22 22 22 22
37 37 36 36 35 34 34 35 34 33 32 32 32 30 29 28 27 27 26 27 26 26 25 25 24 22 21 21 21 21 21 22 22 22 23 23 23 23 23 23 23 22 22 22 22 22 22 22 23
37 38 36 36 36 35 35 34 34 34 32 33 33 30 28 29 27 27 27 27 26 26 26 25 24 23 24 23 21 21 22 22 22 23 23 23 23 23 24 24 23 23 23 22 23 23 23 23 23
36 37 37 37 36 35 35 34 34 34 32 32 32 33 31 28 27 27 27 26 26 26 26 25 25 24 24 24 23 22 22 22 22 23 23 24 25 25 25 23 23 23 23 23 23 23 23 23 23
37 37 37 38 38 36 35 35 34 33 32 32 31 32 29 28 27 28 28 27 27 26 26 26 26 24 25 25 24 24 24 24 24 24 24 24 25 24 24 24 23 23 23 23 23 23 23 24 26
38 37 38 38 38 38 36 35 35 34 33 33 32 31 30 28 28 28 28 28 28 27 27 25 26 24 25 25 25 25 25 25 24 24 24 25 24 25 25 25 25 25 24 26 25 25 25 24 24
37 38 38 39 37 38 36 37 34 34 35 35 34 31 30 30 29 29 29 28 28 27 27 26 25 25 25 24 25 25 26 25 25 25 23 24 24 25 24 25 25 24 25 24 24 25 23 23 23
37 38 39 39 38 38 38 36 35 34 34 35 33 31 31 30 29 29 29 28 28 27 27 26 26 24 24 24 25 25 25 25 26 25 24 24 25 24 24 23 23 23 24 25 24 24 24 23 24
39 38 39 39 38 38 36 36 35 35 35 34 32 31 31 31 30 29 29 28 28 27 27 26 25 24 24 24 24 24 24 25 25 25 25 23 24 24 24 24 24 24 24 24 24 23 23 23 24
38 37 37 37 38 36 37 34 34 35 34 33 32 32 32 31 30 29 29 28 27 27 27 27 26 25 24 24 24 24 25 25 26 25 24 24 23 23 23 24 24 24 23 22 23 23 23 24 24
37 38 37 37 37 36 36 36 35 35 34 33 33 32 31 31 31 29 29 28 28 27 26 26 26 26 25 25 24 25 25 25 25 26 25 23 23 23 23 24 24 24 23 23 24 24 24 25 24
38 37 38 36 37 35 36 37 36 35 35 34 33 32 32 31 31 29 29 28 28 27 26 26 25 26 25 24 24 24 25 24 24 24 24 24 23 23 23 24 24 23 23 21 22 24 23 24 24
37 37 38 38 36 36 36 37 35 35 35 35 33 33 32 32 31 30 29 29 28 27 26 26 25 25 25 24 23 24 24 24 25 25 24 23 23 23 22 23 23 22 22 23 23 22 23 23 23
39 38 38 39 38 37 37 37 37 34 35 35 34 33 33 33 32 31 29 29 28 28 27 26 25 25 24 24 25 25 26 26 25 25 24 23 23 23 23 24 23 22 23 23 22 23 23 23 24
38 38 38 39 38 37 38 37 37 36 35 35 35 34 34 34 33 31 30 30 29 28 27 26 26 25 24 25 25 26 26 27 26 26 24 24 24 23 23 23 23 23 24 22 22 22 23 24 23
38 38 38 38 37 37 38 36 37 38 36 35 36 36 35 34 34 32 31 30 30 29 27 27 26 25 24 25 25 24 25 25 25 26 25 24 23 23 22 22 23 22 22 24 22 22 22 24 23
37 39 39 38 37 36 37 36 38 39 36 35 35 35 35 35 34 33 32 31 30 29 28 27 26 25 25 24 26 25 26 27 28 27 27 26 24 24 23 22 22 22 23 22 22 22 22 21 24
37 39 38 38 37 37 37 36 38 38 37 37 36 36 36 36 35 34 33 31 30 30 29 28 26 25 25 25 25 26 25 27 27 27 25 24 24 23 23 22 22 22 22 22 21 21 21 22 22
38 38 38 38 37 36 37 37 37 38 37 39 39 38 36 36 35 34 33 32 31 30 29 28 27 25 25 25 25 25 26 26 27 26 26 25 25 24 23 22 22 22 22 21 21 21 20 21 21
37 36 34 34 35 35 38 37 37 39 40 40 41 40 37 37 36 35 33 33 31 30 30 29 27 26 26 25 25 25 25 25 26 26 26 26 26 26 24 22 22 22 21 21 21 20 21 21 21
36 37 36 33 35 36 37 35 38 39 40 41 41 40 39 37 37 36 34 33 31 31 30 29 28 26 26 26 25 25 25 25 26 26 27 26 26 26 25 22 22 22 22 21 21 21 21 21 21
36 36 38 37 38 37 38 37 38 39 39 40 40 39 39 38 37 36 35 33 32 31 30 29 28 27 27 26 25 25 25 25 26 26 25 25 25 26 24 22 22 22 22 21 21 21 21 21 21
37 38 36 37 34 34 36 37 37 38 39 40 40 39 39 38 38 38 36 34 33 32 31 29 29 28 27 27 26 25 25 25 25 26 25 25 25 24 23 22 22 22 21 21 20 22 21 21 21
35 36 36 37 37 35 35 36 39 38 39 39 41 40 40 39 38 37 37 35 33 33 32 31 29 28 28 27 27 26 26 26 25 25 24 24 23 22 22 22 22 22 21 21 20 21 22 21 21
37 36 36 35 34 36 37 37 41 40 40 40 41 42 42 40 39 37 37 36 35 33 33 32 31 30 29 29 27 27 26 26 25 24 24 22 22 22 21 21 21 21 22 21 21 21 22 21 21

GFSSGP_925_temp_009.txt.gz
Temp
23 23 25 24 25 26 30 33 33 32 32 31 31 30 28 28 27 27 23 24 25 25 23 22 22 22 22 22 22 22 22 22 22 22 22 22 21 21 21 21 21 21 22 22 22 21 21 21 21
27 28 27 34 34 26 30 32 29 33 31 32 33 32 31 28 30 27 26 26 26 26 25 23 22 22 22 22 22 22 21 22 22 22 22 23 21 21 21 21 21 22 22 22 22 21 21 21 21
30 31 29 35 32 33 33 34 35 34 35 33 33 33 30 29 31 29 27 27 27 26 25 22 22 22 22 21 21 22 22 22 22 22 23 22 21 21 21 21 21 22 22 22 22 21 21 21 21
32 35 36 38 36 36 35 36 35 35 35 35 34 32 33 32 30 29 28 28 27 26 25 22 22 22 21 21 21 22 22 22 22 23 23 22 21 22 21 21 21 22 21 22 21 21 21 21 21
34 37 37 37 36 37 37 37 37 35 35 35 34 32 31 31 30 29 29 28 27 26 25 23 22 22 22 22 21 21 22 22 22 23 22 22 22 22 21 21 22 22 22 22 21 21 21 21 21
35 39 37 38 37 37 37 37 37 37 36 35 34 32 31 31 30 30 29 28 27 27 27 23 22 22 22 22 21 22 22 22 22 22 22 22 22 22 22 22 22 22 22 22 22 22 22 22 22
36 36 37 38 37 37 37 38 38 36 35 35 34 32 31 32 30 30 28 27 27 27 27 25 24 22 21 21 21 21 21 22 22 22 22 23 23 23 23 23 23 23 22 22 22 23 23 23 23
39 37 39 37 38 37 38 38 38 37 36 36 36 32 31 32 31 29 28 28 28 28 27 27 25 24 24 23 21 21 21 22 22 22 23 24 24 25 25 24 23 23 23 23 23 23 24 24 24
40 34 38 38 34 38 38 37 38 38 36 36 36 35 33 31 31 30 28 28 27 28 27 28 27 25 25 24 23 22 22 22 22 23 23 24 24 24 25 24 24 24 23 23 23 24 25 24 24
39 27 37 40 36 39 38 38 37 36 35 35 34 35 32 31 31 31 29 29 29 28 28 28 26 26 26 26 23 24 24 24 24 25 24 25 26 26 26 25 25 24 24 24 24 25 25 25 25
40 34 38 40 40 40 39 38 38 37 35 35 34 33 32 31 32 32 30 31 31 30 29 27 26 26 27 27 26 26 26 26 26 26 26 26 26 26 26 25 25 25 25 24 25 25 25 26 26
39 40 40 41 40 40 39 39 38 38 38 37 36 34 33 32 33 32 32 32 31 30 29 28 26 25 26 26 27 28 28 28 27 27 25 25 26 27 26 26 25 26 26 26 26 26 25 25 25
40 40 41 41 41 40 40 39 38 37 38 37 36 34 33 33 32 32 32 32 31 30 30 29 28 26 27 26 28 28 28 28 28 28 26 26 27 27 25 25 25 26 26 26 26 25 26 25 25
41 41 41 41 41 40 40 39 38 38 38 37 35 34 34 34 33 32 32 32 31 31 30 29 28 26 25 26 26 27 27 27 28 28 28 25 25 25 25 25 25 25 26 25 25 24 24 24 25
40 39 40 40 41 40 40 38 37 39 37 36 35 35 34 34 33 33 32 32 31 30 30 29 28 27 26 26 26 26 27 27 28 28 27 26 25 25 24 26 26 26 25 24 24 24 25 25 27
40 40 39 41 41 40 39 37 38 39 38 37 36 35 34 34 34 33 32 31 31 30 29 29 29 28 27 25 25 26 27 27 28 28 27 26 25 24 24 26 25 26 25 25 25 24 23 26 27
39 38 39 39 40 40 39 35 39 39 38 37 36 36 35 34 34 33 32 31 31 30 29 28 29 29 28 26 26 26 27 27 26 27 27 25 25 24 24 26 26 25 25 24 24 24 25 26 26
38 38 40 39 40 40 38 36 39 39 38 38 37 37 35 35 34 33 32 32 31 30 29 28 28 28 28 27 26 27 27 26 26 26 27 26 25 24 24 25 24 24 25 24 23 23 25 24 25
40 40 40 41 41 39 39 39 39 39 38 38 37 37 36 36 36 34 32 32 31 30 29 28 27 27 27 26 24 26 27 27 27 28 26 25 24 25 23 24 24 24 25 24 24 24 25 25 25
39 40 40 41 40 40 39 39 40 39 38 38 38 37 37 36 36 34 33 32 32 30 29 28 27 27 26 25 25 27 28 28 29 28 27 26 25 25 24 24 26 25 25 25 23 23 24 26 25
39 39 40 40 39 40 40 38 39 40 39 39 39 39 38 37 37 35 34 33 32 31 30 28 27 27 26 26 26 27 27 27 28 28 26 26 25 25 24 24 24 24 24 26 23 23 23 25 25
38 40 40 41 38 37 40 38 39 40 40 39 39 39 39 38 38 37 35 33 33 32 30 29 27 27 26 25 27 27 27 28 29 29 29 28 25 25 25 24 24 23 24 24 24 23 22 23 25
38 41 40 40 40 37 39 39 39 40 40 40 39 39 39 39 38 37 36 34 33 32 31 29 28 27 27 26 26 27 26 29 29 29 29 27 26 26 26 24 24 23 23 23 22 23 22 23 24
40 39 40 40 40 38 39 38 39 37 40 41 41 40 39 39 39 38 37 35 33 33 31 30 28 27 26 26 25 26 27 28 29 29 28 28 27 26 25 24 23 23 23 23 22 22 22 22 22
38 38 36 37 37 37 40 39 36 42 42 41 42 42 41 40 39 38 37 36 34 33 32 31 29 27 26 26 26 25 26 27 27 28 28 28 28 28 25 24 23 23 22 23 22 22 22 22 22
38 38 37 34 36 38 40 38 40 42 43 43 43 43 43 41 40 39 38 36 34 33 32 31 30 28 27 27 26 26 26 27 27 27 28 27 28 28 26 24 24 23 23 22 22 22 22 22 22
38 38 40 38 39 38 39 40 41 42 42 42 42 42 42 42 41 39 38 36 35 33 32 31 30 28 27 27 26 26 26 26 28 28 27 28 28 28 26 24 24 23 23 23 22 22 22 22 22
38 40 38 40 36 36 39 39 39 40 40 41 41 42 42 42 41 40 39 37 35 34 32 31 30 29 28 28 27 26 26 26 26 27 27 27 27 27 26 24 23 23 23 22 22 22 22 22 22
37 37 39 39 38 37 37 39 42 41 40 40 41 42 43 42 41 41 40 38 36 35 33 32 31 30 28 28 28 27 27 27 26 26 27 26 26 26 25 24 24 23 23 22 21 22 22 22 22
38 37 38 38 36 38 39 39 43 42 42 41 41 42 43 43 42 41 41 39 37 36 34 33 32 31 30 29 28 28 27 27 27 26 26 26 25 25 24 23 23 23 22 22 22 21 22 22 22

GFSSGP_925_temp_012.txt.gz
Temp
24 22 25 23 24 28 27 30 29 29 31 33 30 30 29 28 28 24 24 23 24 23 21 21 21 21 22 22 22 22 22 22 22 22 22 22 22 22 21 21 21 21 21 21 21 21 21 21 21
25 25 25 22 24 26 30 30 29 32 32 33 31 30 31 27 27 26 24 25 25 24 23 22 22 22 22 22 22 22 22 22 22 22 22 22 22 22 22 21 22 22 21 21 21 21 21 21 21
27 28 27 29 30 25 32 30 31 32 33 33 27 29 31 28 27 26 25 26 26 25 23 21 22 22 22 22 22 22 21 22 22 22 22 22 22 22 22 22 22 21 21 21 21 21 21 21 21
28 22 29 28 30 34 34 36 36 34 33 34 32 31 32 31 29 28 27 26 27 26 23 22 22 22 21 21 22 22 21 22 22 22 22 22 22 22 22 21 21 21 21 21 21 21 21 21 22
26 27 30 36 36 35 37 36 35 35 34 33 33 30 30 31 30 28 28 27 26 26 23 22 22 22 21 22 22 21 21 22 22 22 22 22 22 22 22 22 22 22 22 22 22 22 22 22 23
27 31 31 37 37 38 38 38 36 35 33 34 32 30 29 31 30 29 27 27 27 26 25 22 22 22 21 21 22 22 21 21 22 22 22 23 22 22 22 22 23 22 22 22 22 22 23 23 23
23 29 36 37 37 37 38 39 37 36 34 33 32 30 31 31 30 29 28 28 28 27 25 23 22 21 21 22 21 21 21 22 22 23 23 24 23 23 23 22 23 23 23 23 23 24 24 24 24
28 34 33 38 37 37 38 38 39 38 34 36 32 31 30 32 30 29 29 27 27 27 26 24 23 22 22 21 21 22 22 22 22 23 24 24 24 23 23 23 24 24 24 24 24 24 25 24 25
39 35 34 36 37 37 39 38 39 38 37 35 34 34 33 32 29 29 28 27 28 28 27 26 25 24 23 23 22 22 22 22 23 24 24 24 24 24 24 24 24 25 24 24 25 25 24 24 24
37 31 34 33 37 38 39 38 37 37 36 36 34 35 33 32 30 30 29 29 28 28 28 27 26 25 24 25 23 22 23 23 23 24 25 25 23 24 25 24 24 24 23 25 25 24 24 26 25
34 31 35 38 38 38 39 38 38 36 35 36 33 33 34 33 31 28 30 29 29 28 29 27 26 26 26 25 25 24 24 25 25 25 25 26 25 26 25 24 25 23 21 25 24 23 24 25 26
39 38 39 40 40 39 39 39 38 38 37 37 35 34 33 34 33 32 30 31 30 29 28 27 27 27 25 26 26 25 26 26 26 26 26 26 26 26 25 23 24 24 24 22 24 24 25 25 25
40 40 41 42 41 41 40 39 38 38 38 38 36 34 33 34 34 33 33 33 31 30 29 27 26 26 26 27 27 27 28 28 28 27 26 26 26 26 26 25 25 25 25 25 25 25 25 25 25
41 41 41 42 41 41 39 39 39 39 39 37 36 34 33 34 34 34 33 33 32 31 29 27 26 27 26 27 27 27 28 28 28 28 26 26 26 25 25 25 25 26 25 25 25 25 25 25 25
40 40 41 41 41 41 41 38 38 39 39 37 36 34 34 34 34 34 34 33 32 31 31 28 27 27 26 26 26 26 27 28 28 28 27 26 26 25 25 25 25 25 26 25 25 25 24 24 25
39 40 38 41 41 41 40 37 39 39 38 37 36 35 34 34 34 34 33 33 32 31 31 30 29 27 26 26 26 26 27 27 27 28 27 26 26 25 24 25 25 24 25 24 25 24 24 25 26
38 37 38 40 41 40 39 35 35 39 38 37 36 35 35 35 35 34 33 33 32 31 30 30 29 28 26 26 26 26 26 27 27 27 26 27 26 24 25 25 25 24 25 25 24 24 24 25 25
36 38 39 39 40 41 34 29 30 35 37 38 37 36 35 35 35 34 33 33 32 31 30 29 29 29 27 26 26 26 27 27 27 27 26 26 25 25 24 25 25 25 25 24 24 23 24 25 25
38 39 39 41 41 40 33 27 24 31 35 38 37 37 36 36 36 35 34 33 32 31 30 29 28 29 27 26 26 26 26 27 27 27 27 26 25 25 25 24 24 24 24 24 24 24 24 25 25
38 38 39 41 40 40 38 30 30 33 37 39 38 37 37 37 36 35 34 33 32 31 30 28 28 28 28 27 26 25 26 27 27 27 27 27 25 25 24 24 24 25 25 24 24 23 23 24 25
38 38 39 40 41 41 40 39 37 39 39 40 39 39 38 37 37 35 34 33 33 31 30 29 27 27 27 27 25 25 26 27 27 28 27 27 26 26 24 24 24 24 25 24 23 23 23 23 24
37 39 40 40 39 37 39 36 34 36 38 39 39 39 39 38 37 36 35 34 33 32 30 29 27 27 26 26 26 25 26 27 28 28 28 27 26 25 25 25 24 24 24 24 24 23 23 23 23
38 40 40 40 39 38 38 37 38 38 38 39 39 39 40 39 38 37 35 34 33 32 30 29 27 27 26 26 26 26 27 27 28 29 29 27 26 26 25 25 24 23 24 24 23 23 23 22 23
40 39 40 40 40 37 38 37 37 38 37 38 40 40 40 40 39 38 36 35 33 33 31 30 28 27 26 26 26 26 26 27 28 29 28 27 25 26 26 25 24 23 23 23 22 22 22 22 22
39 38 36 36 37 37 40 37 37 40 39 40 32 34 40 40 40 38 37 35 33 33 32 30 28 27 26 26 25 26 26 27 27 28 29 28 27 26 25 25 24 23 23 23 23 22 22 22 22
38 38 37 34 36 38 40 39 40 40 40 39 34 30 41 41 41 39 37 36 34 33 32 31 28 27 26 26 25 25 26 26 26 27 28 28 28 28 26 25 24 23 23 23 22 22 22 22 22
38 37 39 37 38 38 40 40 42 42 39 39 41 43 42 41 41 40 38 37 35 33 32 31 29 27 26 26 26 25 25 26 27 27 28 27 28 28 26 25 24 24 23 23 22 22 22 22 22
38 39 37 37 35 35 38 38 40 40 39 40 40 41 42 43 41 40 39 37 36 34 33 32 30 28 27 27 26 26 25 26 27 28 28 28 27 28 26 25 24 23 23 23 22 22 22 22 22
37 37 37 38 38 37 36 38 42 40 40 39 39 41 42 42 42 41 40 38 36 35 33 32 31 29 27 27 27 26 26 26 26 27 27 27 28 27 26 25 24 23 23 23 22 22 22 22 22
38 37 37 36 35 38 38 39 43 42 42 42 42 42 42 41 41 41 41 39 37 35 34 32 31 30 28 27 27 27 26 26 26 26 26 27 27 27 27 25 24 23 23 23 22 22 22 22 21

GFSSGP_925_temp_015.txt.gz
Temp
24 24 23 23 24 23 26 27 28 30 30 29 30 28 26 26 27 23 22 21 21 21 21 21 21 21 21 21 22 22 22 22 22 22 22 22 22 22 22 21 21 21 21 21 21 21 21 21 21
24 23 21 21 24 25 27 28 28 30 30 30 30 28 27 24 25 22 22 22 21 21 21 21 21 22 21 22 22 22 22 22 22 22 22 22 22 22 21 21 21 21 21 21 21 21 21 21 21
24 25 23 22 24 26 27 30 31 31 29 30 29 30 27 24 25 23 23 23 22 22 21 21 22 22 22 22 22 22 22 22 22 22 22 22 22 22 22 22 22 22 21 21 21 21 21 21 22
25 21 24 25 26 29 31 31 31 30 31 31 31 27 27 26 26 24 24 24 23 22 22 22 22 22 22 22 22 22 22 22 22 22 22 22 22 22 23 22 22 22 21 21 21 21 22 22 23
23 23 24 26 30 32 33 31 33 32 31 30 29 27 27 27 25 25 25 24 23 23 22 22 22 22 22 22 22 22 22 22 22 22 22 22 22 23 23 22 22 22 22 22 22 22 23 24 24
23 23 27 30 34 36 34 32 31 32 31 30 29 27 26 27 26 26 26 25 24 23 22 22 22 22 22 22 22 22 22 22 23 22 22 22 23 24 23 23 23 22 22 22 23 23 24 24 24
25 26 29 29 34 34 34 33 32 32 30 30 30 27 27 27 27 27 27 26 25 23 22 22 21 21 22 22 22 22 22 22 22 22 23 23 24 23 23 23 24 24 24 24 24 23 24 24 24
27 30 26 28 31 33 35 34 34 33 31 31 30 27 25 27 27 27 26 26 25 24 23 22 22 21 22 22 21 21 22 22 22 22 23 24 24 24 23 23 23 24 24 24 23 23 24 25 24
33 29 26 29 32 35 35 33 34 34 31 30 32 30 29 28 27 28 27 27 25 24 23 23 22 22 22 22 21 21 22 22 23 23 24 25 24 24 23 23 22 23 24 22 23 24 24 25 25
32 29 30 33 35 35 36 34 33 33 31 30 31 31 29 29 28 27 27 26 26 24 23 23 23 23 22 22 22 23 23 24 24 25 25 25 25 24 23 23 24 23 24 24 24 25 25 25 25
32 30 34 35 35 35 36 35 35 33 31 31 30 29 29 28 28 27 27 27 27 26 25 24 24 24 23 23 24 24 24 24 25 25 25 24 25 25 23 24 24 23 25 25 25 24 25 25 25
33 35 36 35 36 36 36 35 35 34 33 33 32 31 29 28 28 28 28 27 28 27 26 25 25 25 24 24 25 26 25 25 25 25 25 24 24 25 25 25 24 24 25 24 24 24 24 24 25
35 36 37 36 36 36 37 37 35 35 33 33 33 32 29 28 28 28 28 28 28 27 26 26 26 26 25 25 26 25 25 25 25 25 26 26 26 25 25 25 25 25 24 24 24 24 25 25 25
36 37 38 38 35 37 36 36 36 34 34 33 32 31 31 28 28 28 29 29 28 26 26 26 27 27 26 26 25 26 26 26 26 26 26 26 26 25 25 25 25 24 25 24 25 25 25 25 25
36 35 37 38 39 36 35 32 30 35 34 32 32 31 31 31 30 30 29 29 28 27 27 27 27 26 26 26 26 27 27 27 28 26 26 26 26 26 25 25 24 25 25 25 24 25 24 25 25
34 34 33 37 38 38 33 30 33 35 33 32 32 32 32 31 31 31 31 30 28 28 26 26 26 27 27 26 26 26 26 27 27 27 26 26 25 25 25 25 24 24 24 25 24 24 24 24 25
32 31 33 35 38 37 32 28 35 35 33 32 32 32 32 31 30 32 32 31 30 29 28 26 26 27 27 27 26 26 27 27 27 27 26 26 25 26 25 25 25 24 24 24 24 24 24 24 25
30 32 33 34 37 37 32 30 32 34 34 33 32 32 32 31 31 32 33 32 31 30 29 27 27 27 27 26 26 26 27 27 26 27 27 26 26 25 25 25 24 24 24 24 24 24 24 25 24
33 33 34 36 38 32 31 31 31 33 31 32 32 32 32 32 31 32 32 32 31 31 29 29 28 27 26 26 26 26 26 26 26 27 27 27 26 25 25 24 24 24 24 24 24 24 24 24 24
34 33 34 36 38 32 31 32 33 34 33 31 33 32 32 32 32 31 32 31 31 30 29 29 29 28 26 26 26 26 25 26 27 27 27 26 26 25 25 25 24 24 24 23 24 24 23 24 25
33 33 34 34 37 34 32 30 30 32 34 33 34 34 33 32 32 31 31 31 31 29 29 29 29 28 26 26 26 26 26 26 26 26 27 26 25 26 25 24 24 24 24 23 23 23 23 23 23
32 35 35 36 36 33 34 30 29 31 31 31 32 34 34 33 33 32 31 31 31 29 29 28 28 29 27 26 26 25 26 26 26 27 27 26 26 26 25 24 24 24 24 24 23 23 23 23 23
34 35 36 36 35 33 35 33 30 30 28 29 32 35 35 34 33 32 31 32 31 30 28 28 28 28 28 27 26 26 26 26 26 27 27 26 25 25 25 25 24 23 24 23 23 23 23 23 22
36 35 35 35 34 32 33 34 31 29 29 28 33 35 35 35 34 33 33 32 31 30 28 27 26 27 27 27 26 26 26 25 26 27 27 27 26 26 25 25 24 24 24 23 23 23 23 22 22
35 31 31 31 31 30 32 34 33 35 34 35 35 33 34 33 35 34 32 31 31 30 28 26 26 25 26 26 26 26 26 26 27 27 26 26 26 25 25 24 24 24 24 23 23 23 22 22 22
33 33 31 28 30 31 32 34 34 37 36 37 36 33 33 34 35 34 32 32 31 31 29 27 26 25 25 25 26 26 26 26 27 27 26 26 26 26 25 25 24 24 24 23 23 22 22 22 22
32 32 34 30 31 30 33 34 35 37 36 37 36 35 35 35 37 35 33 33 31 31 29 28 26 25 25 25 25 25 26 26 26 26 27 27 27 26 25 25 25 24 24 23 22 22 22 22 22
34 34 32 33 30 30 33 32 32 34 35 33 33 34 34 34 35 35 34 33 31 31 30 28 26 26 25 25 25 25 25 25 26 26 26 27 27 27 26 25 25 24 24 23 23 22 22 22 22
33 33 32 31 32 31 30 33 34 34 35 34 35 36 35 36 35 36 35 34 32 31 30 29 27 26 25 25 25 25 25 25 25 25 26 27 27 27 27 26 25 24 23 23 23 22 22 22 22
35 32 31 30 28 29 31 32 34 36 35 36 36 36 36 34 37 37 35 34 32 31 31 29 27 26 26 25 25 25 24 24 24 25 26 27 27 27 27 26 25 24 24 23 23 22 22 22 21

GFSSGP_925_temp_018.txt.gz
Temp
20 21 21 22 23 23 25 28 29 28 28 28 28 27 24 23 25 23 22 20 21 20 21 21 21 21 21 22 22 22 23 23 22 23 23 22 23 21 21 21 21 21 21 21 21 21 21 21 21
22 21 23 21 23 25 26 28 28 29 28 27 28 27 25 24 23 20 20 21 21 21 21 21 21 21 21 22 22 22 22 22 22 22 22 23 22 22 21 21 21 21 21 21 21 21 21 21 22
22 24 21 21 23 25 27 29 28 29 29 29 27 27 25 22 22 21 22 21 21 21 21 21 21 21 21 21 21 22 22 22 22 22 23 23 22 21 21 21 21 21 21 21 21 21 21 21 22
23 21 21 24 26 27 30 29 28 28 30 29 27 24 25 25 23 22 21 21 21 21 21 21 21 21 21 21 21 22 22 23 22 23 23 22 21 21 21 22 21 21 21 21 22 22 23 22 22
24 23 24 25 28 29 30 29 29 29 29 28 28 25 24 25 23 22 22 21 22 21 21 21 22 22 22 21 21 22 23 23 22 23 22 22 22 21 22 22 22 22 22 22 22 22 23 23 22
23 23 27 27 29 31 30 30 30 29 28 27 26 25 23 24 23 23 22 22 22 22 21 21 22 22 22 21 21 22 23 22 22 23 22 22 22 23 23 23 23 22 22 22 22 23 23 22 22
25 25 26 27 30 29 30 31 30 28 28 27 27 24 24 24 24 23 23 23 22 22 21 21 21 21 21 22 22 22 23 22 23 23 23 23 23 23 23 23 23 23 22 22 23 23 23 23 23
26 27 27 27 29 30 31 31 30 29 29 29 27 24 23 25 25 24 23 23 23 22 22 21 21 21 22 21 21 21 22 22 23 23 23 23 24 24 23 23 23 23 23 23 24 24 24 24 23
28 27 26 27 30 31 31 30 31 31 29 28 29 27 26 26 25 24 23 22 22 22 22 22 22 21 22 22 21 21 22 22 23 24 24 24 24 23 23 23 23 23 24 24 24 24 24 24 24
28 26 30 30 31 32 32 32 30 29 28 29 27 27 27 26 26 25 23 22 22 21 22 22 22 22 22 22 21 22 23 23 24 24 25 24 23 23 23 23 24 24 24 24 25 25 24 24 24
29 28 32 35 32 33 32 31 31 29 28 28 26 26 27 26 26 25 25 23 23 23 22 22 22 22 22 23 22 23 24 24 25 25 25 24 24 24 24 24 24 24 25 24 25 25 25 24 24
30 32 32 34 35 33 32 31 30 30 30 29 28 27 27 26 26 25 25 24 24 22 23 23 23 23 23 24 24 24 25 25 25 25 25 24 24 25 25 24 24 24 24 24 25 25 25 24 24
31 32 34 35 35 33 34 32 31 31 31 30 28 28 27 26 27 27 26 25 24 23 23 24 23 24 24 24 24 25 25 25 25 25 24 24 25 25 24 24 25 25 25 25 24 24 24 24 24
33 33 34 35 35 35 34 34 33 31 31 29 28 28 27 27 27 27 26 26 25 24 24 24 24 24 24 24 25 25 25 25 25 25 25 24 24 25 25 25 24 24 24 24 24 24 24 25 25
33 32 33 33 35 34 34 32 31 31 31 29 28 28 28 27 27 27 27 27 26 25 25 25 25 24 25 25 25 25 26 25 25 26 25 25 25 25 25 25 24 24 24 24 24 24 24 24 25
32 31 31 34 34 33 33 30 32 31 30 30 28 28 28 27 28 27 27 27 27 26 25 25 25 25 25 25 25 25 26 25 26 26 26 25 25 25 25 25 25 25 24 24 24 24 24 24 25
28 28 30 31 34 33 31 28 31 31 31 30 30 28 28 27 28 28 28 28 27 26 25 25 25 25 26 26 25 26 26 26 26 26 26 25 25 25 25 25 25 24 24 24 24 24 24 24 25
28 29 30 31 33 33 30 29 32 31 30 30 30 30 30 28 28 29 29 28 27 26 25 26 26 26 26 26 25 26 26 26 26 26 26 26 25 25 25 25 24 24 24 24 24 23 24 24 24
30 30 29 32 34 30 31 30 32 31 30 30 29 29 30 30 30 30 29 28 27 26 25 25 25 26 26 26 25 25 26 26 26 26 26 26 25 25 25 25 24 24 24 24 23 24 23 24 24
30 30 30 31 33 31 29 31 31 31 31 30 30 29 30 30 30 29 28 28 27 26 25 25 25 26 26 26 26 26 26 26 27 26 26 26 26 26 26 25 24 24 24 23 23 23 23 23 24
30 29 31 30 32 32 31 30 31 31 31 31 31 31 30 30 30 29 29 28 28 26 25 25 25 26 26 26 26 26 26 26 26 26 26 26 26 26 26 24 24 24 24 23 23 24 23 23 23
26 31 32 32 31 29 31 28 29 29 29 31 31 31 30 30 30 30 30 29 28 27 26 26 25 26 26 26 26 25 25 24 25 26 26 26 26 26 25 24 24 24 24 24 23 23 23 23 23
30 31 32 32 30 30 31 28 28 29 29 30 30 31 31 31 31 30 30 30 29 28 27 26 26 26 26 26 26 25 25 26 26 26 26 26 26 25 25 24 24 24 24 24 23 23 23 23 23
32 31 30 31 30 27 30 31 28 27 31 32 33 32 32 32 31 31 31 31 30 28 27 26 26 26 26 26 26 26 25 26 26 26 26 25 25 25 25 24 24 24 23 23 23 23 23 22 23
30 28 26 28 28 28 29 28 30 32 32 34 34 31 32 32 32 31 30 30 30 29 27 26 26 25 25 25 26 26 26 26 26 26 26 25 25 25 24 24 24 24 23 23 23 23 23 22 22
28 29 27 27 26 28 29 28 32 32 33 33 35 31 32 33 33 32 31 30 30 29 27 26 25 25 25 24 25 25 26 26 27 26 26 25 26 25 25 24 24 24 24 24 23 23 22 22 22
29 28 30 27 26 26 27 30 31 31 33 33 32 32 33 33 33 33 32 31 30 30 27 26 25 25 25 25 25 25 26 26 26 26 25 26 26 25 26 25 24 24 24 24 23 23 22 22 22
30 29 29 24 27 28 28 29 29 32 31 32 32 33 34 34 35 35 33 31 31 30 28 27 26 26 25 25 25 25 26 25 25 26 26 26 26 26 26 25 24 24 24 24 24 23 22 22 22
30 29 28 28 25 29 26 30 30 30 30 30 33 34 34 35 33 33 33 32 31 30 28 27 26 26 25 24 24 24 24 25 25 26 26 26 26 26 25 25 25 25 24 24 23 23 22 22 22
32 30 27 29 26 25 31 32 35 31 31 30 34 34 35 35 34 33 33 33 32 30 29 27 26 26 25 25 24 24 24 24 24 25 26 26 26 26 25 25 25 25 24 24 23 23 22 22 22

GFSSGP_925_temp_021.txt.gz
Temp
20 20 21 21 23 23 25 27 27 27 27 27 27 26 23 22 24 22 20 20 21 21 21 21 21 21 21 21 21 22 23 23 23 23 22 21 22 21 21 21 21 21 21 21 21 21 20 21 21
21 21 22 21 23 24 25 27 26 28 26 26 27 26 24 23 22 19 19 21 21 21 21 21 21 21 21 21 22 22 22 23 23 22 21 21 21 21 21 21 21 21 21 21 21 21 21 21 21
21 22 21 22 23 24 26 28 25 27 27 28 26 26 24 22 21 20 20 20 21 21 21 21 21 21 21 21 21 22 22 22 22 22 22 21 21 21 21 21 21 21 21 21 21 21 21 22 22
23 22 21 24 26 27 29 27 28 27 26 26 25 23 24 23 22 21 20 20 21 21 21 21 21 21 21 21 21 22 22 22 22 22 22 22 22 21 21 21 21 21 21 21 21 21 21 22 22
24 22 24 24 28 28 29 29 28 28 27 27 26 23 22 23 22 21 20 20 21 21 21 21 21 21 21 21 21 22 22 23 22 22 22 22 21 21 21 21 22 22 22 22 22 21 22 22 22
22 22 25 26 28 30 29 29 29 27 26 25 24 24 22 22 21 21 20 21 21 21 21 21 21 21 21 21 22 22 22 23 23 22 22 22 21 22 22 22 22 22 22 22 22 22 23 23 22
23 23 26 27 28 29 29 28 28 26 27 26 26 22 22 22 22 21 21 21 21 21 21 21 21 21 21 21 22 22 22 23 23 22 22 22 23 23 22 22 22 23 23 23 23 23 23 23 23
23 25 25 28 29 29 29 29 28 27 27 27 26 22 21 22 22 22 21 21 21 21 21 21 21 21 21 21 21 22 22 23 23 23 23 23 23 23 22 22 22 23 23 24 23 23 23 23 23
24 25 25 27 27 29 29 28 29 29 26 27 27 25 25 23 23 21 20 20 20 21 21 21 21 21 21 22 21 21 22 23 23 23 23 23 23 23 23 23 23 23 23 24 24 24 24 24 23
25 24 27 28 29 29 30 29 29 27 27 26 26 26 24 24 23 21 21 20 20 20 21 21 21 21 22 22 21 22 22 23 23 24 24 24 24 23 23 24 23 24 24 24 24 24 24 24 24
27 25 30 32 32 31 30 29 29 27 26 26 25 25 25 24 23 22 21 21 20 21 21 21 21 21 22 22 22 22 23 23 24 24 24 24 23 24 24 24 24 24 24 24 25 25 24 24 24
28 29 30 32 33 31 30 30 28 28 28 27 26 26 25 24 24 23 22 21 21 21 21 22 22 22 22 22 22 23 23 24 24 25 24 24 24 24 24 24 24 24 24 24 25 25 25 24 25
28 29 31 31 33 32 31 29 29 28 29 28 27 26 25 25 25 24 23 22 22 21 21 22 22 22 22 23 23 23 24 24 25 24 24 24 24 24 24 24 24 24 24 24 24 24 24 24 24
30 30 31 32 31 34 31 30 29 29 28 27 26 25 25 25 25 25 24 23 22 22 22 22 22 23 23 23 24 24 24 24 25 24 24 24 24 24 24 24 24 24 24 24 24 24 23 24 24
31 31 30 31 32 32 32 29 29 30 28 27 26 26 26 26 25 25 24 24 23 23 23 22 23 23 23 24 25 24 25 25 25 25 25 24 24 24 24 24 24 24 24 24 24 23 23 24 24
31 30 30 32 32 32 31 29 30 29 28 26 26 26 26 26 26 26 25 25 24 23 23 23 23 23 24 24 25 25 25 25 25 25 25 25 25 24 24 24 24 24 24 24 24 23 23 24 24
26 27 29 30 31 31 31 29 29 29 28 27 27 27 26 26 26 26 26 25 25 24 24 23 23 23 24 24 24 25 25 25 25 25 25 25 25 24 24 24 24 24 24 24 24 23 23 24 25
27 28 28 30 32 31 29 29 29 29 27 27 27 27 26 26 26 26 26 26 25 25 24 24 24 24 24 24 24 25 24 25 26 26 26 26 25 24 25 25 24 24 24 24 23 23 23 24 24
29 29 28 29 33 31 31 28 28 29 28 27 27 27 27 27 27 27 26 26 26 25 24 24 24 24 24 23 23 24 24 24 25 25 26 26 25 25 25 25 24 24 24 24 23 23 23 23 23
27 28 28 29 31 30 29 28 29 29 29 29 28 27 27 27 27 27 27 27 26 25 25 24 24 24 24 23 24 24 25 25 26 26 25 25 25 25 25 24 24 24 23 23 23 23 23 23 23
27 27 29 28 30 30 28 28 28 29 29 29 29 29 28 28 27 27 27 27 27 25 25 24 25 25 25 24 24 24 25 25 25 25 25 25 25 25 25 24 24 24 23 23 23 23 23 23 22
24 28 29 30 29 28 30 26 27 27 28 29 29 29 29 29 29 28 28 27 27 26 25 24 24 24 25 24 24 24 24 24 25 25 26 25 25 25 25 24 24 24 23 23 23 23 23 23 23
28 30 29 30 28 28 29 27 27 27 28 28 29 29 29 29 29 29 27 28 27 26 25 24 24 24 25 24 24 24 24 25 26 26 26 26 25 26 25 25 24 24 24 23 23 23 23 23 23
30 30 28 27 25 24 29 28 28 26 29 29 30 30 30 29 29 29 30 28 27 27 25 24 24 24 24 25 24 24 24 24 25 25 25 25 26 25 25 25 24 24 23 23 23 23 22 23 23
28 25 24 24 24 27 27 26 30 28 31 31 30 30 31 30 30 29 29 29 28 27 25 24 24 23 23 24 24 24 24 25 26 26 25 25 25 25 25 24 24 23 23 23 23 23 23 22 22
25 26 21 24 23 26 26 26 28 31 31 32 33 32 31 31 30 30 30 29 29 27 26 25 24 24 23 23 23 24 24 24 25 26 26 26 26 26 25 24 24 24 23 23 23 23 23 22 22
27 26 27 25 24 24 25 28 29 30 30 30 31 32 31 31 31 31 30 30 30 29 27 25 24 24 23 23 23 23 24 24 24 25 26 26 26 26 25 25 25 24 23 23 23 23 22 22 22
29 27 28 20 25 26 25 27 28 29 31 29 29 29 30 31 31 31 31 31 30 29 28 26 26 25 24 24 23 23 24 24 24 26 26 26 26 26 25 25 25 24 24 23 23 23 22 22 22
26 27 25 24 23 27 26 28 29 30 28 28 28 30 31 30 31 32 31 32 31 30 28 26 26 25 25 24 24 24 24 24 24 25 26 26 26 25 25 25 25 24 24 23 23 23 23 22 22
29 29 25 26 25 22 28 29 31 31 31 27 28 30 31 32 32 32 33 32 31 30 29 26 26 25 26 25 24 24 24 23 23 24 26 26 26 25 25 25 24 25 24 24 23 23 23 22 22

GFSSGP_925_temp_024.txt.gz
Temp
20 20 20 20 22 22 24 26 27 26 26 25 26 25 24 22 24 23 20 20 21 21 21 21 21 21 21 21 22 22 22 23 22 22 22 21 21 21 21 21 21 21 21 21 21 20 20 22 22
21 20 21 21 23 23 24 25 26 27 25 25 25 24 23 22 21 20 19 20 21 21 21 21 21 21 21 22 22 22 21 22 22 22 21 21 21 21 21 21 20 21 21 21 21 20 21 21 22
20 21 21 22 23 24 25 26 26 26 26 27 25 25 24 22 21 20 20 21 21 21 21 21 21 21 21 22 21 21 22 22 22 21 21 21 21 20 21 21 21 21 21 21 21 20 21 21 22
22 21 21 24 26 26 27 26 27 26 26 25 24 22 22 22 21 20 20 20 21 21 21 21 21 21 21 21 21 21 22 22 21 22 22 21 21 21 21 21 21 21 21 21 21 21 21 22 22
23 22 24 25 26 28 27 27 27 27 26 25 25 22 21 21 21 20 19 20 21 21 21 21 21 21 21 21 21 21 21 21 22 22 22 21 21 21 21 21 21 21 21 21 21 22 22 22 22
23 22 24 25 27 29 28 27 27 26 25 24 23 22 21 20 20 20 20 20 21 21 21 21 21 21 21 21 21 21 22 21 22 23 22 22 22 22 22 22 21 21 21 21 22 22 22 22 23
24 23 25 26 27 28 28 27 26 25 25 24 25 22 21 20 20 20 20 20 21 21 21 21 21 21 21 21 21 22 22 22 22 22 23 22 22 22 22 22 22 22 22 23 23 23 23 23 23
23 23 25 25 27 28 28 28 26 26 26 26 25 21 21 21 20 20 20 20 21 21 21 21 21 21 21 21 21 22 22 23 23 23 22 22 22 22 22 22 23 23 23 23 23 23 23 23 23
24 23 23 26 27 28 27 26 27 27 25 26 26 23 23 21 20 20 19 20 20 20 20 21 21 21 21 22 21 21 22 22 23 22 23 23 23 23 23 23 23 23 23 23 23 23 23 23 24
23 22 25 27 28 28 28 27 27 26 25 26 24 24 22 21 20 20 19 19 19 20 20 21 21 21 21 22 22 21 22 22 23 23 23 23 23 23 23 23 23 24 24 24 24 24 24 24 24
24 24 26 29 31 29 28 28 28 26 25 25 23 22 22 22 21 20 20 20 20 20 20 21 21 22 22 22 22 21 22 22 23 23 23 23 23 23 24 23 23 24 24 24 23 23 24 24 24
25 26 28 29 31 29 28 28 27 27 26 27 24 23 23 22 21 21 20 20 20 20 21 21 21 21 22 22 22 22 22 23 23 23 23 23 23 23 24 24 24 24 24 24 24 24 23 24 24
25 27 29 31 31 29 29 28 28 27 27 26 25 24 23 22 22 21 21 21 20 20 21 21 21 21 22 22 22 22 23 23 23 23 23 24 24 24 24 24 24 24 24 24 24 24 24 24 24
28 28 29 30 29 30 28 29 28 28 27 26 25 24 23 23 22 22 21 21 21 21 21 22 21 22 22 22 22 23 23 24 23 24 24 24 24 24 24 24 24 24 24 24 24 24 24 23 24
28 28 29 29 30 30 30 28 28 27 27 25 25 24 24 24 23 23 22 22 21 21 22 22 22 22 22 22 23 23 24 24 24 24 24 24 24 24 24 24 24 24 24 24 24 24 23 24 24
29 28 28 31 29 31 30 28 28 27 26 25 25 25 24 24 24 24 23 23 22 22 22 23 22 22 22 23 23 24 24 24 24 25 24 24 24 24 24 24 24 24 24 24 23 23 23 23 23
24 26 27 29 29 31 29 27 28 28 26 25 25 25 25 24 24 24 24 23 23 23 23 23 22 22 23 23 23 24 24 24 25 25 24 24 24 24 24 24 24 23 23 23 23 23 23 23 23
25 26 27 29 31 28 27 28 27 27 26 26 26 25 25 25 24 25 24 24 23 24 24 24 23 23 23 23 23 24 24 24 24 24 24 24 25 25 24 24 23 23 23 23 23 22 23 23 23
26 27 29 29 31 29 27 28 26 27 27 26 26 25 25 25 25 25 25 24 24 23 23 23 23 23 23 22 22 22 23 23 24 25 25 25 26 25 24 24 23 23 23 23 23 23 22 23 23
26 26 26 28 29 30 29 28 26 27 27 27 26 26 25 26 25 25 25 25 24 24 24 23 24 24 23 24 24 23 24 24 24 25 25 26 26 25 24 24 24 24 23 23 23 23 23 22 22
24 25 26 28 29 29 28 26 27 27 27 27 27 27 26 26 25 25 25 25 25 24 23 23 24 24 25 24 23 22 23 23 24 24 25 25 25 25 25 24 24 24 23 23 23 23 22 23 22
22 25 28 28 27 26 27 25 26 26 27 27 27 26 27 26 26 26 26 25 25 25 24 24 23 23 24 24 23 23 23 22 23 24 25 25 25 25 25 24 24 24 23 23 23 22 22 23 22
27 27 27 28 26 27 27 26 25 24 25 26 27 28 27 27 27 26 26 26 26 26 24 24 24 24 24 24 24 24 23 23 24 24 25 25 25 25 25 25 24 24 23 24 23 22 22 23 23
27 28 24 23 22 23 25 26 24 24 27 27 28 28 28 28 28 27 27 27 26 26 25 24 23 23 23 24 24 24 23 23 24 24 24 25 25 25 25 25 24 24 23 24 23 22 22 23 22
26 23 22 23 22 26 24 25 29 26 29 29 28 29 29 29 28 28 27 26 27 26 25 24 23 23 23 23 23 23 24 24 24 25 25 25 25 25 25 24 24 24 24 24 23 22 22 22 22
23 22 20 22 22 25 23 25 26 29 28 30 31 30 30 29 29 29 28 27 27 26 25 24 23 23 23 23 23 23 24 23 24 25 26 26 26 26 26 25 25 24 24 24 23 23 23 22 22
24 25 24 22 22 22 23 24 29 28 28 28 29 30 29 30 29 29 29 29 27 27 26 24 24 23 23 23 23 23 23 23 23 24 26 26 26 26 26 25 25 24 24 23 23 23 22 22 22
25 24 24 19 24 23 23 25 26 27 29 28 27 28 30 30 30 30 29 29 29 28 26 25 24 23 23 23 23 23 23 24 24 24 25 26 26 26 26 25 25 25 24 24 23 23 22 22 22
24 24 22 23 20 22 22 24 24 28 26 29 29 29 30 30 30 30 30 30 29 29 27 26 25 24 24 23 23 23 23 23 23 23 25 26 26 26 25 25 25 25 24 24 23 23 22 22 22
29 27 23 25 23 20 21 26 27 27 30 26 27 28 28 28 29 30 30 30 30 29 29 26 25 25 24 23 23 23 23 22 22 23 24 26 26 25 25 25 25 25 25 24 24 23 22 22 22

GFSSGP_925_temp_027.txt.gz
Temp
20 20 20 21 23 24 26 27 29 28 28 28 29 28 27 24 24 24 19 20 20 20 20 20 21 21 21 21 22 22 22 21 22 22 21 21 21 21 21 21 21 21 21 20 20 20 21 21 21
21 20 21 23 25 28 28 28 29 29 27 28 27 26 26 23 22 20 20 21 21 21 21 21 21 21 21 21 22 22 21 21 22 21 21 21 21 21 21 20 21 22 21 20 20 21 21 22 22
21 22 23 24 27 28 28 28 29 28 28 28 26 26 25 23 22 21 21 21 21 21 21 21 21 21 21 21 22 21 21 22 21 21 21 21 21 20 20 21 21 22 21 21 20 21 21 21 22
22 22 23 26 29 29 29 29 29 27 26 27 27 24 23 24 22 22 21 21 21 21 21 21 21 21 21 21 21 21 21 21 21 21 21 21 21 21 21 21 22 22 21 21 21 21 21 22 22
23 24 26 28 30 30 30 30 29 29 28 27 27 23 22 22 21 21 21 21 22 22 21 21 21 21 21 21 21 21 21 21 21 21 21 21 21 21 21 21 21 21 21 22 22 22 22 22 22
25 26 28 30 30 30 30 30 29 28 27 25 25 24 22 22 22 21 21 22 22 22 22 22 21 21 21 21 21 22 22 22 22 22 21 21 21 21 21 21 21 21 21 22 22 23 23 22 22
26 28 29 29 29 30 30 30 29 28 27 26 26 24 21 22 22 21 21 22 22 22 22 22 22 21 21 21 21 22 22 22 22 22 22 22 22 22 22 22 22 21 22 22 23 23 23 23 23
26 28 28 29 30 31 30 30 29 29 27 28 27 25 22 22 22 21 22 22 22 22 22 22 22 22 22 21 21 22 22 22 22 22 22 22 22 22 22 22 22 23 23 23 23 23 23 23 23
26 28 29 31 30 31 30 29 29 29 27 28 27 26 25 22 22 22 22 22 21 22 22 22 22 22 21 21 21 21 22 22 22 22 23 22 22 22 22 22 22 22 23 23 23 23 23 24 23
26 28 30 31 32 32 30 31 29 28 28 28 27 26 23 22 22 22 22 22 22 22 22 22 22 21 21 22 21 21 22 22 22 22 21 22 22 23 22 22 23 23 23 23 23 23 23 23 24
27 29 30 32 32 32 31 30 30 29 28 29 27 25 24 23 23 23 23 23 23 22 22 22 21 21 21 22 21 22 22 22 22 22 22 22 22 23 22 22 22 23 24 23 23 23 23 23 24
27 29 30 32 32 31 31 31 30 30 30 30 28 26 25 24 24 24 24 23 23 22 22 22 21 21 21 21 21 22 22 22 22 22 23 23 22 23 23 22 23 23 23 24 24 23 24 23 24
28 29 30 31 32 33 31 31 31 30 31 30 27 26 25 25 24 24 24 23 23 22 22 22 21 21 21 20 21 21 21 22 22 22 23 22 22 23 24 24 24 23 23 23 23 24 23 23 24
30 30 31 32 32 33 31 32 31 31 29 27 26 26 26 25 25 24 24 23 23 23 22 22 21 21 20 21 21 21 21 21 21 22 23 24 23 23 24 24 24 24 24 23 23 23 23 23 24
30 30 32 33 33 33 33 31 30 31 29 27 27 26 26 26 25 24 24 24 23 23 22 22 21 21 20 21 21 21 21 21 22 22 24 24 24 24 24 24 24 23 23 23 23 23 23 23 23
30 31 32 34 33 33 33 34 33 30 30 28 27 26 26 26 25 25 24 24 23 23 22 22 22 21 21 21 21 21 21 22 22 22 23 24 24 24 24 24 24 22 23 23 22 23 23 23 23
29 31 31 32 33 33 33 34 33 31 30 29 28 27 27 26 26 25 25 24 24 23 22 22 21 22 21 21 21 21 21 22 22 22 22 24 24 24 24 23 23 23 22 22 23 22 22 23 23
29 29 31 32 34 33 33 33 31 30 30 29 28 28 27 27 27 26 25 25 24 23 22 22 22 21 21 21 20 21 21 22 22 22 23 24 24 24 24 23 24 23 22 22 22 23 22 22 22
30 31 31 32 33 33 34 34 32 30 30 30 29 28 28 28 28 27 26 25 24 24 23 22 22 21 21 21 21 22 22 22 22 23 25 25 25 24 24 23 24 23 22 22 23 22 21 22 22
29 30 31 31 32 32 33 33 32 31 30 31 29 29 28 29 28 27 26 26 25 24 23 23 22 22 22 22 22 22 22 23 23 23 24 25 25 25 25 24 23 23 22 23 22 22 22 22 21
29 29 31 31 32 32 32 33 31 31 31 31 30 30 29 29 29 28 27 26 26 25 23 23 22 22 22 23 22 22 22 22 22 23 23 24 25 25 25 25 23 23 23 23 21 22 22 23 21
28 30 30 30 30 31 32 32 31 32 30 30 30 30 30 30 29 29 28 27 26 25 24 23 23 22 22 22 22 22 24 24 24 24 24 24 25 25 25 25 24 24 23 22 22 22 22 23 23
29 30 30 31 31 31 32 31 34 30 31 31 31 31 30 31 30 29 28 27 27 26 25 24 23 22 22 22 23 23 23 24 24 24 23 24 25 25 25 25 24 24 23 23 22 23 22 22 23
30 29 29 29 31 29 31 31 33 33 32 33 32 31 31 31 30 30 29 28 27 26 26 24 23 22 22 22 22 22 23 24 24 23 24 24 24 24 25 24 24 24 23 23 22 23 22 22 22
30 30 29 28 28 29 33 30 32 34 34 35 34 32 32 31 31 30 29 29 27 27 26 25 23 23 22 22 22 22 23 23 23 23 24 24 24 24 23 24 24 23 24 24 23 23 23 22 22
29 30 29 28 30 31 30 30 33 34 34 34 35 34 33 32 31 31 31 29 28 27 26 25 24 23 23 22 22 23 23 23 23 24 24 24 25 24 24 25 25 25 25 24 23 23 22 22 21
29 29 31 29 27 29 32 32 33 33 34 34 34 34 33 33 32 31 31 30 29 28 27 26 25 24 23 23 23 23 23 23 24 24 24 24 24 25 24 25 26 25 25 24 24 22 23 22 22
29 31 28 30 28 28 31 30 33 33 34 33 33 34 34 34 33 33 32 31 30 28 27 26 25 24 24 23 23 23 23 23 23 23 24 24 24 24 24 24 25 25 25 24 23 22 22 22 22
28 29 30 31 30 30 30 33 32 33 33 35 35 35 35 34 34 33 33 31 30 29 28 27 25 25 24 23 23 23 23 23 23 23 23 24 25 25 24 24 24 24 25 24 23 23 22 22 21
31 30 30 29 28 30 31 32 33 34 34 33 35 35 34 34 33 33 33 32 31 30 29 28 26 26 25 24 24 23 23 23 23 23 23 24 24 24 25 24 24 23 23 24 24 22 22 22 21

GFSSGP_925_temp_030.txt.gz
Temp
20 22 22 23 23 28 30 30 33 31 32 32 32 32 31 27 26 25 22 23 21 20 20 21 21 22 22 22 22 22 22 22 21 21 21 21 21 21 21 21 21 21 21 21 21 21 21 21 20
23 21 23 27 27 29 31 33 32 32 31 32 31 30 30 24 24 22 23 23 22 22 22 22 21 22 21 21 21 22 21 21 21 21 21 21 21 21 21 22 21 21 21 21 21 21 21 21 21
24 23 27 28 31 31 32 33 32 31 31 31 30 31 30 24 24 22 24 24 24 22 23 22 21 21 21 21 22 22 21 21 21 21 21 21 21 21 21 22 22 21 21 21 21 21 21 22 22
24 26 28 29 33 33 34 33 33 31 31 31 31 28 27 26 25 24 24 24 24 24 24 21 21 21 21 21 21 21 21 21 21 21 21 21 21 21 22 22 22 21 21 21 21 22 21 22 22
26 29 31 33 34 34 34 34 33 32 31 31 31 26 23 24 24 24 24 25 26 25 24 22 21 21 21 21 21 21 21 21 21 21 21 21 21 21 21 22 21 21 22 22 22 22 22 22 22
27 31 34 35 34 34 34 34 34 33 31 30 29 27 23 25 24 24 25 25 26 25 25 23 21 22 22 21 21 21 21 21 21 21 21 21 21 21 21 21 21 21 22 22 23 23 23 23 22
30 33 34 35 34 34 34 34 34 33 31 31 30 28 26 25 24 25 26 26 26 26 26 24 23 22 22 21 21 21 21 21 21 21 21 21 22 21 21 21 21 21 22 22 23 23 23 23 23
32 33 34 34 35 34 34 34 34 33 31 32 31 28 25 25 25 26 26 26 26 26 26 25 24 23 23 22 21 21 21 21 22 22 22 22 22 22 22 23 22 22 22 23 23 23 23 23 23
31 33 35 35 35 35 35 34 33 33 31 32 31 31 28 25 26 26 26 26 25 26 26 26 25 24 24 24 22 21 21 21 22 23 22 23 25 24 25 23 23 22 23 23 24 24 24 24 24
32 34 35 36 36 36 35 35 33 33 32 31 30 30 27 26 26 26 26 26 24 25 26 26 26 25 24 25 23 23 24 24 25 25 24 25 24 24 24 23 23 23 23 24 24 24 24 26 27
33 34 36 36 36 36 35 35 35 34 32 33 30 29 28 26 26 27 27 26 26 26 26 26 25 25 24 25 24 25 25 25 24 23 24 24 24 24 25 25 25 25 24 25 25 25 26 26 27
32 34 35 36 36 36 35 36 35 34 35 34 32 30 29 28 28 28 28 27 27 26 26 26 25 24 24 25 24 25 25 25 25 25 23 23 25 25 24 25 25 24 25 25 25 25 25 25 25
32 34 35 35 36 36 36 35 35 34 34 34 32 30 29 29 29 28 28 28 27 26 26 26 25 23 24 24 25 25 25 25 26 25 24 24 25 24 25 25 25 25 25 25 24 25 25 23 24
35 34 35 36 36 36 36 36 35 35 35 33 32 31 30 30 29 28 28 28 27 27 26 25 24 23 23 23 24 24 24 25 25 25 25 23 24 24 25 25 25 25 25 25 23 23 24 24 24
34 33 35 36 36 36 36 35 35 36 34 33 32 31 31 30 29 29 28 28 27 26 26 25 24 24 23 23 23 23 25 25 25 25 24 23 23 24 23 24 25 25 24 23 23 24 25 25 25
33 35 35 37 37 37 36 36 37 37 34 33 32 32 31 31 30 29 28 28 27 27 26 25 25 25 23 23 23 24 25 25 25 26 25 24 23 23 24 24 24 25 24 24 24 24 25 26 25
34 35 35 36 37 37 36 36 38 37 35 34 33 32 31 31 30 29 28 28 28 27 26 25 25 25 24 23 24 24 24 24 25 26 25 24 23 23 23 25 25 24 25 25 24 25 25 26 26
34 34 36 36 37 37 37 37 38 36 36 35 33 33 32 31 31 30 29 28 28 27 26 25 25 25 24 24 23 24 25 25 25 25 26 25 24 24 24 25 24 24 26 25 25 24 25 25 25
36 35 35 36 37 36 37 37 37 37 36 36 34 33 33 32 32 30 29 29 28 27 26 25 24 24 24 24 24 25 25 25 25 25 25 24 24 24 24 25 24 24 24 24 24 24 24 25 24
33 33 35 36 37 35 37 37 38 37 36 36 35 34 33 33 33 31 30 29 28 27 26 25 24 24 23 24 25 25 26 26 26 26 25 24 24 24 24 24 25 24 26 23 23 23 25 25 25
32 33 34 35 36 36 36 36 36 37 36 36 36 35 35 34 33 32 31 30 29 28 27 26 25 24 24 25 24 24 25 25 26 26 26 25 24 24 24 25 25 24 24 26 23 23 24 26 25
32 34 34 34 34 34 37 35 37 38 36 36 36 36 35 34 34 33 32 30 30 29 27 26 25 24 24 24 25 25 26 26 27 27 27 26 25 25 25 25 24 24 25 25 23 24 24 23 26
32 35 33 33 34 34 35 35 36 38 37 37 37 37 36 36 34 34 33 31 30 29 28 27 25 24 25 24 25 25 25 27 27 27 27 25 25 25 25 24 24 24 24 24 24 23 23 24 26
33 33 33 33 34 33 34 36 36 37 37 38 38 38 36 36 35 35 33 32 31 30 29 28 26 24 24 24 24 25 25 26 27 27 27 27 26 26 25 25 24 24 24 24 24 23 22 23 24
32 32 31 31 32 33 36 35 35 38 39 38 39 39 37 36 36 35 34 33 32 31 29 28 27 25 24 24 24 24 25 25 26 26 26 27 27 27 27 24 24 24 24 24 24 23 23 22 23
32 33 33 31 33 34 35 34 37 38 39 39 39 40 39 37 36 36 35 33 32 31 30 29 27 26 25 25 24 24 24 25 26 26 27 27 28 28 27 25 25 24 24 24 24 23 23 23 23
32 33 35 35 34 34 37 36 37 38 38 38 39 39 40 38 37 36 35 34 32 31 30 29 28 26 26 26 25 24 24 25 27 27 26 27 27 28 27 26 24 25 25 24 24 24 23 24 23
34 34 33 34 31 32 35 35 36 37 36 38 38 39 40 39 37 37 36 35 33 32 31 29 28 27 26 26 25 25 25 24 25 26 26 26 27 26 27 25 25 25 25 24 24 25 24 23 23
33 33 33 35 34 34 34 37 39 37 37 37 38 39 40 39 38 38 37 36 35 33 32 30 29 28 27 27 26 26 26 26 25 25 25 25 26 26 26 26 25 25 25 24 24 24 25 23 23
34 33 33 33 32 34 35 37 38 38 38 38 39 39 40 40 40 39 39 38 36 34 33 32 30 29 28 28 26 26 26 26 26 25 25 25 25 25 25 25 25 25 25 25 24 24 25 24 23

GFSSGP_925_temp_033.txt.gz
Temp
20 22 21 21 24 27 29 31 34 34 33 35 34 32 29 29 28 24 22 21 21 21 21 21 21 21 21 21 22 21 21 21 21 21 21 21 22 21 21 21 21 21 21 21 21 21 21 21 21
23 23 23 25 24 27 30 33 31 33 34 34 34 33 32 26 28 25 21 22 21 21 23 23 22 21 21 22 21 21 21 21 21 21 22 22 22 21 21 21 21 21 21 21 21 21 21 21 21
24 26 26 28 30 26 30 34 35 34 34 33 33 32 31 26 27 25 24 23 21 22 24 23 21 21 21 22 21 21 21 21 21 21 22 22 22 22 21 21 21 21 21 21 21 21 21 21 21
24 27 29 25 26 34 34 32 35 34 35 35 33 29 29 26 26 26 24 24 23 23 25 22 21 21 21 21 21 21 21 21 21 21 21 21 22 22 21 21 21 21 21 21 21 21 21 21 21
28 31 28 26 34 36 35 36 36 33 35 34 33 29 26 26 27 26 25 25 25 26 25 22 21 21 21 21 21 21 21 21 21 21 21 21 21 21 21 22 21 21 21 21 21 21 21 22 21
28 32 29 31 36 36 36 37 35 35 35 33 31 28 26 26 26 26 26 26 26 25 25 23 21 22 21 21 21 21 21 21 21 21 21 21 21 21 21 21 22 22 22 22 22 22 22 22 23
31 31 29 36 37 36 36 37 34 36 35 34 33 28 26 26 26 27 26 26 26 27 27 24 23 22 21 21 21 21 21 21 21 21 21 21 21 22 22 22 22 22 22 22 22 23 23 23 23
35 32 35 35 28 36 37 37 37 37 34 35 33 29 26 26 27 27 26 26 27 28 27 25 24 24 23 22 21 21 21 21 21 21 21 22 23 24 24 24 23 23 23 23 23 24 24 24 24
35 32 34 37 35 37 38 37 37 36 34 34 34 32 29 27 27 27 27 26 27 28 27 27 26 25 25 24 22 21 21 21 22 23 24 23 24 24 24 23 24 23 24 24 24 25 24 24 24
34 24 29 39 39 37 38 38 36 36 35 34 34 32 28 28 28 28 27 26 27 29 28 28 27 26 26 26 23 24 24 24 25 24 25 23 25 25 25 24 24 24 24 25 25 25 24 24 25
36 29 29 38 38 39 38 38 38 36 35 34 33 31 30 29 29 28 27 26 28 29 29 29 28 27 26 27 25 26 26 27 26 25 25 25 26 25 24 25 25 24 25 24 23 24 25 27 28
35 36 33 39 38 38 38 39 38 38 37 36 34 32 31 30 31 29 28 28 28 29 29 29 28 27 27 27 27 27 28 28 27 26 24 25 25 27 24 25 26 26 26 26 24 25 26 24 26
36 37 38 38 38 39 39 38 37 37 38 37 34 32 32 31 31 31 30 30 29 29 29 29 28 26 26 26 27 28 28 27 28 27 25 27 26 26 26 26 26 26 26 26 25 26 25 25 25
37 37 38 38 39 39 38 38 38 38 38 36 34 33 32 32 32 31 31 31 30 30 29 29 27 26 25 25 26 27 27 28 28 28 27 25 26 26 26 26 26 26 25 24 25 25 25 25 25
37 36 37 38 38 39 39 38 37 38 37 36 34 34 33 33 32 32 32 31 31 30 29 29 27 26 25 25 25 26 27 27 28 28 26 25 25 25 24 26 26 26 25 25 24 25 25 26 26
36 36 36 38 38 39 38 37 39 39 37 36 35 34 33 33 33 32 31 31 30 30 29 28 27 27 25 25 25 26 27 27 28 28 27 25 25 24 25 26 26 25 25 26 26 27 27 27 27
36 35 36 38 40 39 38 38 39 39 38 37 36 35 34 34 33 32 31 31 30 29 28 27 27 27 26 25 25 25 26 27 28 28 28 25 25 24 25 25 25 26 26 26 27 26 27 27 27
35 36 38 37 39 39 39 39 39 40 39 38 36 36 35 34 34 32 32 31 30 29 28 27 27 27 26 25 25 26 27 27 27 28 28 26 25 25 25 26 26 26 26 26 25 25 26 27 27
37 38 38 39 40 39 38 39 39 40 39 38 37 36 35 35 35 33 32 31 30 30 28 27 27 26 26 26 26 27 27 27 27 28 27 27 26 25 25 26 26 26 26 26 25 25 25 27 26
36 37 38 39 40 39 39 39 40 40 39 39 38 37 36 36 35 34 32 32 31 30 28 27 26 26 25 26 26 27 27 28 27 27 27 26 26 25 25 25 25 26 24 25 24 25 25 27 26
35 36 37 38 39 39 38 38 38 40 40 39 39 38 37 36 36 34 33 32 31 30 29 27 26 26 25 26 26 26 27 27 28 28 27 26 26 26 26 25 26 26 26 25 24 25 26 28 26
35 37 37 37 37 37 39 36 38 39 39 39 39 39 38 37 37 35 34 33 32 31 29 28 26 25 25 25 27 27 27 28 28 28 28 28 26 26 26 25 25 25 26 25 25 25 26 26 27
35 37 36 36 37 37 37 37 38 40 39 39 39 39 39 38 37 36 35 33 33 31 30 28 26 25 26 25 26 27 27 28 28 29 28 28 27 26 26 26 25 25 25 27 25 25 24 26 27
36 36 36 37 36 35 36 37 38 40 40 40 40 40 40 39 38 37 35 34 33 32 31 29 27 25 25 25 25 26 27 27 29 28 29 28 28 27 26 26 26 24 25 26 25 25 24 24 26
35 35 33 33 34 34 37 37 37 40 41 41 41 41 41 40 39 37 36 35 33 33 31 30 28 26 25 25 25 25 26 26 28 28 28 29 29 29 28 26 25 25 25 26 25 24 25 24 25
34 35 35 32 34 35 37 36 38 40 41 42 42 42 41 41 40 39 37 36 34 33 32 31 29 27 26 25 25 25 25 27 27 28 29 28 29 29 29 26 26 25 26 25 25 25 25 25 24
35 35 37 38 38 38 39 38 40 41 41 41 41 41 41 41 40 39 38 36 35 33 32 31 30 27 26 26 26 25 25 26 27 27 27 28 28 30 29 27 26 26 26 25 25 25 25 26 24
37 36 35 36 35 35 38 38 38 39 39 40 40 41 41 42 41 40 39 37 36 34 33 31 30 28 27 27 26 26 26 25 26 27 27 28 29 28 29 28 27 26 26 25 25 26 26 25 25
35 36 36 37 37 36 36 38 41 40 40 39 40 41 41 42 41 40 39 38 36 35 34 32 31 29 28 27 27 27 26 26 26 27 27 27 27 28 28 27 27 26 26 25 25 25 27 25 24
37 36 36 35 35 37 38 38 40 41 41 40 40 41 41 42 42 41 40 39 38 36 35 34 32 31 29 28 28 27 27 27 27 26 27 27 27 27 27 27 26 26 26 26 25 25 27 26 25

GFSSGP_925_temp_036.txt.gz
Temp
20 21 22 22 24 25 25 27 27 27 31 33 30 28 28 29 28 26 21 21 22 20 20 21 21 22 22 22 22 21 22 22 21 22 22 21 21 21 21 21 21 21 21 21 21 21 21 21 21
23 23 23 23 24 26 27 32 31 33 34 34 32 31 30 26 27 21 22 21 22 21 23 22 21 21 22 22 22 21 21 21 22 22 22 22 21 21 21 21 21 21 21 21 21 21 21 21 21
25 25 23 24 25 26 31 33 33 34 34 33 32 32 30 25 26 23 23 22 21 23 25 22 22 22 21 22 22 21 21 21 22 22 22 21 21 21 21 21 21 21 21 21 21 21 21 21 21
26 26 27 24 26 31 32 28 35 34 34 34 32 28 28 27 26 26 24 23 23 24 25 23 22 21 22 22 21 21 21 21 21 21 21 21 21 21 21 21 21 21 21 21 21 21 21 21 21
26 26 24 25 27 33 34 35 36 35 34 33 32 27 26 27 26 25 25 24 24 24 23 22 22 22 22 22 21 21 21 21 21 21 21 21 21 21 21 21 21 21 21 22 21 21 22 22 22
24 21 24 26 28 36 37 37 36 34 34 32 29 26 25 27 27 26 26 25 25 25 24 22 22 22 22 21 21 21 21 21 21 21 21 21 21 21 21 22 22 22 22 22 23 23 23 23 23
23 22 24 28 35 35 36 37 34 37 35 31 30 27 25 26 26 26 25 26 25 27 25 23 22 21 21 21 21 21 21 21 21 21 21 22 22 22 23 22 22 22 22 23 23 23 23 23 24
31 24 25 26 35 35 38 37 36 36 34 34 31 27 25 26 27 26 27 26 28 27 25 24 23 22 22 21 21 21 21 21 21 21 21 21 22 22 24 24 23 23 23 24 23 23 23 23 24
34 28 28 30 35 36 38 37 37 37 35 35 33 29 27 27 27 26 27 27 28 27 26 25 24 23 23 23 21 21 21 21 22 23 22 23 23 23 24 23 24 24 24 24 24 23 24 24 23
34 24 26 31 32 33 37 37 37 36 35 33 30 29 27 27 27 26 25 27 28 27 27 26 26 25 24 24 23 22 22 22 23 23 25 23 23 24 24 24 25 25 24 24 25 25 23 24 24
34 30 32 34 35 37 38 38 38 36 35 33 30 29 29 28 28 27 27 28 28 28 28 27 27 26 26 26 24 24 24 25 25 24 25 23 22 24 25 25 24 25 24 24 25 26 24 25 25
35 29 32 34 36 37 34 31 38 37 36 34 31 30 29 29 28 28 28 29 28 29 29 28 27 27 27 26 26 26 26 26 26 26 25 22 25 24 26 25 24 24 24 24 25 25 25 26 27
36 29 33 34 37 35 32 31 33 37 37 35 32 31 30 30 28 28 28 28 29 30 30 29 27 27 27 27 27 27 28 28 28 26 26 25 26 24 25 25 25 26 24 24 24 25 25 25 26
38 36 36 36 39 39 38 33 32 37 37 35 33 31 31 31 29 29 28 28 29 30 30 28 27 27 26 27 27 27 28 28 28 28 27 26 25 25 25 26 26 25 25 25 25 25 25 25 26
38 37 38 38 39 39 40 38 37 36 37 35 33 32 32 32 32 31 30 30 29 30 30 28 27 26 26 26 26 26 27 28 28 28 26 26 26 25 26 26 25 25 25 25 25 26 25 26 26
36 37 36 38 39 39 39 37 39 37 37 35 34 33 33 33 33 33 32 31 30 30 30 28 28 26 26 25 25 26 26 28 28 28 27 25 25 25 25 25 25 26 25 26 26 25 25 27 26
36 35 36 37 39 39 39 37 39 38 37 36 35 34 33 33 34 33 33 32 32 31 29 28 28 27 25 25 25 25 26 27 28 28 28 26 25 25 25 25 25 25 26 25 26 26 26 26 27
34 35 36 36 39 39 39 38 39 39 38 36 36 35 34 34 34 33 33 33 32 30 29 28 28 27 26 25 25 25 26 27 27 28 28 26 25 25 25 25 25 25 26 26 26 26 26 27 27
36 36 37 38 39 39 38 39 38 39 34 37 37 36 35 34 34 33 33 32 32 30 28 28 28 27 26 25 25 25 26 27 27 27 28 27 26 25 25 25 25 25 25 25 25 25 26 26 27
35 36 37 39 40 39 39 39 40 39 36 37 37 37 36 35 35 34 33 32 32 30 28 27 27 27 26 26 25 26 27 27 27 27 28 27 26 26 25 25 25 26 26 25 25 25 25 26 27
35 35 37 38 40 40 38 38 39 40 39 39 38 38 37 36 35 34 33 33 32 30 29 27 27 27 26 26 26 26 27 27 27 27 27 27 26 26 25 25 25 26 25 25 25 25 25 26 27
34 36 37 38 38 37 39 36 38 39 40 39 39 38 38 37 36 35 34 33 32 31 29 27 26 26 26 26 26 26 26 27 27 28 28 27 26 26 25 25 25 25 25 25 25 25 25 26 26
35 37 37 37 37 38 38 37 39 39 39 39 40 39 38 38 37 35 34 33 33 31 29 28 26 26 25 25 26 26 26 27 28 28 28 28 27 26 26 26 25 25 25 25 25 25 26 25 26
37 37 37 37 37 35 37 37 38 39 39 40 40 40 39 39 38 36 35 33 33 32 30 28 26 25 25 25 26 26 26 27 28 28 28 28 27 26 26 26 26 25 25 25 25 25 25 25 26
36 36 34 34 34 34 37 37 38 40 41 41 41 40 40 40 38 37 35 34 33 32 31 29 27 25 25 25 24 26 26 27 27 28 28 28 28 26 26 26 25 25 25 25 25 25 25 25 25
35 36 34 32 33 34 36 36 37 40 41 42 43 41 41 40 40 38 35 34 33 33 31 29 27 26 25 25 25 25 25 26 27 27 28 28 28 28 28 27 26 25 25 25 25 25 25 24 24
35 35 37 36 37 36 37 37 39 40 40 41 42 42 41 41 40 39 37 35 33 33 31 30 28 26 25 25 25 25 25 26 26 27 28 28 29 29 29 28 26 26 25 25 25 25 25 25 24
37 37 35 36 33 34 37 38 38 38 39 40 41 42 42 41 41 40 38 36 34 33 32 31 29 27 26 26 25 25 25 25 26 27 27 28 28 29 29 28 27 26 25 25 25 25 25 25 25
36 36 36 36 36 35 36 38 42 39 39 40 41 41 42 42 41 40 38 37 35 34 33 31 30 28 27 26 26 26 25 25 25 26 27 27 28 28 29 27 26 26 26 25 25 25 26 25 25
37 36 36 34 34 37 37 38 41 41 41 41 41 41 42 41 41 41 40 38 37 35 34 32 31 30 28 27 26 26 26 26 25 25 26 27 27 28 28 28 27 26 26 25 25 25 25 26 25

GFSSGP_925_temp_039.txt.gz
Temp
22 22 21 22 24 23 25 25 26 26 25 30 26 29 26 28 28 24 20 21 22 21 21 21 21 22 21 22 22 21 22 22 22 22 22 21 21 21 21 21 21 21 21 21 21 21 21 21 21
22 22 21 22 24 25 25 27 26 28 29 28 28 29 28 25 23 20 20 21 21 21 21 21 21 22 22 22 22 22 22 22 22 22 22 21 21 21 21 21 21 21 21 21 21 21 21 21 22
23 23 22 23 24 25 26 30 30 30 29 30 29 29 28 22 21 21 20 21 22 22 22 22 22 22 22 22 22 22 22 21 22 22 22 21 21 21 21 21 21 21 21 21 21 21 21 21 22
24 22 23 24 24 27 26 27 33 33 31 29 28 26 26 24 23 22 21 22 23 23 22 21 22 21 22 22 22 22 21 22 22 22 21 21 21 21 21 21 21 21 21 21 21 21 22 21 22
25 24 24 24 25 27 28 29 32 32 31 29 28 25 24 25 24 22 22 23 24 23 23 22 22 22 22 21 21 22 21 21 21 21 21 21 21 21 21 21 21 21 21 22 22 23 22 22 23
22 21 24 25 26 27 28 30 33 30 28 27 26 25 24 23 23 23 23 23 23 23 22 22 22 22 22 21 21 21 21 21 21 21 22 21 21 22 22 21 22 22 22 22 22 22 22 22 23
22 23 24 24 25 28 32 32 32 30 29 27 27 25 24 24 25 24 24 24 24 22 22 22 21 22 22 22 21 21 21 21 21 21 22 22 22 22 22 22 22 23 23 23 23 22 23 23 23
23 22 23 24 27 28 34 33 30 31 29 29 28 24 24 25 25 25 25 25 24 23 22 22 21 21 22 22 21 22 22 22 22 22 22 22 22 22 23 23 23 24 24 24 23 22 22 23 23
27 22 24 24 29 31 32 33 33 33 30 29 29 26 26 26 25 25 25 25 24 23 23 22 22 22 22 22 21 22 22 22 22 22 22 22 22 22 23 23 24 24 24 24 24 24 24 23 23
25 24 25 24 30 30 33 34 34 30 28 27 26 26 26 26 25 25 25 24 24 23 23 23 23 22 22 22 22 23 23 23 23 22 23 24 23 22 23 24 24 24 24 24 24 24 25 24 24
28 27 29 29 32 33 33 34 35 29 27 26 25 26 27 26 26 26 26 26 25 25 24 24 24 23 23 23 24 24 24 24 23 24 26 25 24 23 23 24 24 24 25 25 24 25 25 24 24
31 31 32 33 34 33 31 30 34 31 29 28 27 27 27 27 26 25 26 26 26 26 25 25 24 24 24 24 26 25 25 24 24 25 25 25 26 25 24 24 24 24 24 25 25 25 25 25 26
33 31 34 33 32 33 29 31 33 31 29 28 28 27 26 27 26 26 26 27 27 26 26 26 25 25 25 25 27 26 25 25 25 25 25 25 25 25 24 24 24 24 24 25 25 25 25 26 26
34 34 32 30 33 34 33 34 33 31 30 28 28 27 27 27 26 27 27 28 27 27 27 26 26 26 26 26 26 26 26 26 26 25 25 25 25 25 24 25 24 25 25 25 25 24 25 26 26
34 34 34 34 34 34 35 31 33 31 30 29 28 27 28 27 27 27 27 27 28 28 27 26 27 26 26 26 26 27 27 27 27 26 26 25 25 25 25 25 25 25 25 25 25 25 26 26 26
33 33 32 34 34 36 33 30 30 31 31 29 29 28 28 27 27 27 27 28 28 28 26 26 26 26 26 26 26 27 27 27 27 27 27 26 26 25 25 25 25 25 25 25 25 25 26 26 26
31 31 32 34 37 37 35 33 29 29 32 30 30 30 29 28 28 27 28 28 28 28 26 26 26 26 26 26 26 26 26 27 27 27 27 27 26 25 25 25 25 26 25 25 25 25 26 26 26
29 30 32 33 36 36 34 34 30 31 29 27 28 30 30 29 28 28 28 28 28 28 27 27 26 26 26 26 26 26 26 26 26 26 27 27 27 25 25 25 25 25 25 25 26 26 26 26 27
32 32 32 34 36 35 34 34 32 29 27 27 28 28 30 30 31 30 30 29 28 28 27 28 27 26 26 25 25 25 25 26 26 27 26 27 26 25 25 25 25 25 25 25 26 26 26 26 27
32 32 32 34 36 34 35 34 35 30 30 31 30 28 28 31 31 31 31 31 29 28 27 28 27 26 26 25 25 25 25 26 26 27 26 27 26 25 25 25 25 25 25 25 25 25 25 26 26
31 31 32 32 35 37 36 35 35 31 30 27 25 25 27 31 31 31 31 31 29 27 27 27 27 26 26 25 25 25 25 26 26 27 27 26 26 25 25 25 25 25 25 25 25 25 25 26 26
30 33 33 34 33 32 35 30 32 34 31 28 26 25 28 31 32 31 31 30 29 27 27 27 27 27 26 25 25 25 25 25 26 27 27 27 26 26 26 25 25 25 25 25 25 25 25 26 26
32 33 34 34 32 31 33 33 34 34 33 31 29 28 32 32 32 31 31 31 30 28 26 27 27 27 26 25 25 25 25 26 27 27 27 27 27 27 26 25 25 25 25 25 25 25 25 26 26
34 32 32 32 32 30 31 32 32 34 35 34 34 34 34 34 33 32 31 31 31 28 27 25 26 26 26 26 25 26 25 26 26 27 27 27 27 27 26 25 25 25 25 25 25 25 25 25 26
32 30 28 28 29 29 30 30 30 34 36 35 36 35 35 34 34 32 31 31 30 28 27 25 25 24 25 25 26 26 26 26 26 27 27 27 26 26 26 25 25 25 25 25 25 25 25 25 25
31 31 26 26 28 29 32 31 32 34 35 37 37 37 36 35 34 33 32 31 31 30 27 26 25 25 25 24 25 25 25 25 26 27 27 28 27 27 27 26 26 25 25 25 25 25 25 25 25
31 30 31 29 30 29 30 31 33 35 35 36 35 37 36 35 35 33 32 32 31 30 28 27 25 25 24 24 24 24 25 25 26 26 26 27 28 27 27 27 26 26 25 26 25 25 25 25 25
32 32 30 30 27 28 30 31 32 33 34 35 35 35 37 37 36 34 32 32 31 31 29 28 26 25 24 24 24 24 25 25 25 26 27 26 28 28 27 27 27 26 26 26 26 25 25 25 24
32 31 32 29 27 26 27 30 35 34 34 35 35 34 37 37 36 34 33 33 31 31 30 28 27 25 24 24 24 24 24 24 24 25 26 27 27 28 28 28 27 26 26 25 25 25 25 25 25
33 32 30 30 28 29 29 31 33 33 36 36 36 34 34 37 36 35 33 33 32 31 30 29 28 26 25 25 24 24 24 24 24 24 25 27 27 28 28 27 27 26 26 25 25 25 25 25 25

GFSSGP_925_temp_042.txt.gz
Temp
21 21 21 21 23 22 25 25 26 25 26 28 30 28 27 24 25 23 19 21 21 21 21 21 21 21 22 21 22 22 22 21 21 21 21 21 21 21 22 21 21 21 21 21 21 20 20 20 20
22 21 21 22 24 25 25 26 25 25 26 28 28 28 26 22 22 20 19 21 21 21 21 21 22 22 22 22 22 22 21 21 21 21 21 21 21 21 21 21 21 21 21 21 21 21 21 21 21
22 23 22 22 24 25 25 27 27 27 27 28 28 27 26 21 21 21 20 21 21 21 22 21 22 22 21 22 22 22 21 21 21 22 21 21 21 21 21 21 21 21 21 21 21 21 21 21 21
23 22 22 24 24 25 25 28 29 29 29 28 27 25 23 22 22 20 20 21 21 21 21 21 21 21 22 22 21 21 21 21 21 21 22 21 21 21 21 21 21 21 21 21 21 21 21 22 22
23 23 24 25 24 26 26 25 27 29 27 27 27 23 21 22 22 20 21 21 21 21 21 21 21 21 22 21 22 21 21 22 21 21 21 21 21 21 21 21 21 21 21 21 21 21 21 22 22
22 21 24 24 25 25 25 27 27 28 28 26 25 24 21 21 21 21 21 21 22 22 21 21 21 21 22 21 21 21 22 22 21 21 21 22 21 21 21 21 21 21 21 21 22 22 22 23 23
22 22 23 24 25 25 25 26 26 27 27 26 27 23 20 21 22 22 22 22 22 22 21 21 21 21 21 21 21 21 22 22 22 22 21 22 21 22 22 22 22 21 21 22 23 22 22 23 23
22 23 24 25 25 26 28 27 27 28 27 28 26 21 20 22 22 23 23 22 22 22 22 21 21 21 22 21 21 21 21 21 22 22 22 21 22 22 23 23 22 22 22 23 23 23 23 23 23
25 23 25 25 26 28 29 27 29 28 27 28 28 25 23 23 23 23 23 21 21 21 22 21 22 22 22 22 21 21 22 22 22 22 23 22 23 22 22 23 23 23 24 24 24 24 24 24 23
24 23 25 27 28 27 27 27 29 28 27 26 25 25 24 24 24 23 23 22 21 20 21 22 22 22 22 22 22 22 23 23 23 23 23 23 23 23 23 24 24 23 24 24 24 24 24 24 24
24 24 26 29 28 31 32 29 29 27 25 25 24 24 25 24 24 24 24 22 21 21 21 22 22 23 23 23 24 23 24 23 23 24 23 23 23 23 23 24 24 24 24 24 24 24 25 24 24
26 27 29 29 30 30 32 31 29 29 27 26 26 25 25 24 24 24 24 23 22 22 22 23 23 23 23 24 25 24 24 23 23 24 25 24 24 24 24 24 24 24 24 24 24 25 25 24 25
28 29 30 31 32 31 31 32 30 28 27 27 26 26 25 25 25 25 25 24 23 22 23 24 24 23 23 25 25 25 24 24 24 24 25 25 25 24 24 24 24 24 25 24 24 25 25 25 25
30 30 32 33 31 31 30 31 29 27 26 26 26 25 25 25 25 25 25 24 24 24 23 24 24 24 24 25 25 25 25 24 24 24 25 25 25 24 24 24 25 25 24 24 24 25 25 25 25
30 30 32 31 32 30 31 31 27 27 26 26 26 26 26 26 25 25 25 25 25 24 24 24 25 25 25 25 25 25 25 25 25 25 25 26 25 25 25 24 25 25 24 24 25 25 25 25 26
29 29 29 32 32 33 32 30 28 27 26 25 25 26 26 25 25 26 26 26 25 25 25 24 25 25 25 25 25 25 25 26 26 26 25 25 25 25 25 24 25 25 24 24 24 25 26 26 26
27 27 29 31 33 33 33 29 28 27 26 25 26 26 26 26 26 26 26 26 26 26 26 25 24 25 25 25 26 26 26 26 26 26 26 25 25 25 25 25 25 25 25 25 25 25 25 26 26
26 27 29 30 33 33 32 29 28 27 26 26 26 26 26 26 26 26 26 27 27 27 26 25 25 25 26 26 26 26 26 26 26 26 26 25 25 25 25 25 25 25 25 25 25 25 26 26 26
28 28 29 30 33 33 33 29 28 28 27 26 26 26 26 26 27 27 26 27 27 26 26 25 25 25 26 26 26 26 26 26 26 26 26 26 26 26 25 25 25 25 25 25 25 25 26 26 26
28 28 29 30 32 32 31 29 28 29 28 28 27 27 26 27 26 27 27 27 27 26 25 25 25 25 26 26 26 26 27 26 26 26 26 26 26 26 25 25 25 25 25 25 25 25 25 25 26
28 27 29 29 31 32 32 28 28 29 29 28 27 28 28 29 27 27 27 27 27 25 25 24 25 25 25 26 26 26 26 26 26 26 26 26 25 26 25 25 25 25 25 25 25 25 25 25 25
27 30 30 30 29 28 33 29 28 28 27 27 27 27 28 28 29 27 28 27 28 26 25 24 24 25 25 25 25 25 25 24 25 26 26 26 25 25 25 25 25 25 24 25 25 25 25 26 26
29 30 30 30 29 29 30 28 29 28 27 28 28 29 29 29 30 29 29 29 28 28 25 25 24 24 24 25 26 25 24 24 25 25 26 26 26 25 25 25 25 25 24 25 25 25 25 25 26
31 30 29 29 27 26 29 29 29 28 28 28 27 28 28 29 30 30 30 29 28 27 26 25 24 24 25 25 25 25 24 25 24 25 26 26 26 25 25 25 25 25 25 25 25 24 24 25 25
29 26 25 26 26 26 29 27 30 30 30 30 28 27 27 28 30 31 30 30 27 26 26 25 24 23 24 24 24 25 25 25 25 25 26 26 26 25 25 26 25 25 25 25 25 25 24 25 25
28 26 23 24 24 27 27 26 28 31 32 32 30 29 28 29 30 31 30 30 29 26 26 25 24 24 24 24 24 25 25 25 25 26 26 26 26 26 27 26 25 25 25 25 25 25 25 24 25
28 27 26 24 25 25 26 29 31 31 32 31 32 30 30 30 31 31 30 30 30 27 26 25 25 25 24 24 24 24 24 25 25 25 26 26 27 27 27 27 26 25 25 25 25 25 24 24 24
29 28 27 23 25 25 26 28 27 30 31 31 30 32 31 32 32 32 31 30 30 28 27 25 25 25 24 24 24 24 24 25 25 25 26 26 26 26 27 27 26 26 25 25 25 24 24 24 24
28 29 28 27 23 24 25 28 31 29 30 31 30 33 33 33 33 32 31 31 30 29 27 26 25 25 24 24 24 24 24 24 24 24 25 26 26 26 26 27 27 26 26 25 25 25 25 24 24
31 28 27 28 25 23 24 30 32 31 32 33 34 31 34 34 33 33 32 31 30 30 28 26 25 25 24 24 24 23 23 23 23 23 24 25 26 26 26 26 27 26 26 26 25 25 25 24 24

GFSSGP_925_temp_045.txt.gz
Temp
20 20 20 20 23 23 25 25 26 25 25 28 28 28 26 24 24 22 19 20 21 21 21 21 21 21 21 21 21 21 21 21 22 21 21 21 21 21 21 21 21 21 21 21 20 20 20 20 20
20 20 20 22 23 24 25 25 26 27 28 27 28 26 24 22 22 19 19 21 21 21 21 21 21 21 21 21 21 21 21 21 21 22 22 21 22 21 21 21 21 21 21 21 21 21 20 20 21
21 21 22 22 23 25 25 24 26 26 27 28 27 25 24 21 21 20 20 20 21 21 21 21 21 21 21 21 21 21 21 21 21 21 22 21 21 21 21 21 21 21 21 21 21 21 21 21 21
21 22 22 23 24 26 25 24 26 28 27 27 26 23 22 22 21 20 20 21 21 21 21 21 21 21 21 21 21 21 21 21 22 22 21 21 21 21 21 21 21 21 21 21 21 21 21 21 21
22 23 24 24 25 26 25 25 24 26 28 27 25 21 20 21 21 20 20 21 21 21 21 21 21 21 21 21 21 21 21 21 22 21 21 21 21 21 21 21 21 21 21 21 21 21 22 22 22
22 21 23 24 25 26 25 23 26 27 25 24 23 22 20 20 20 20 20 21 21 21 21 21 21 21 21 21 21 21 21 21 21 21 21 21 21 21 21 21 21 21 21 22 22 22 22 22 22
22 22 24 25 25 26 26 24 24 26 26 25 24 21 19 20 20 20 20 21 21 21 21 21 21 21 21 21 21 21 21 21 21 21 21 21 21 21 21 21 21 21 21 22 23 23 22 22 22
23 23 23 25 25 26 28 26 25 26 26 25 24 20 19 20 20 21 21 21 21 21 22 21 21 21 21 21 21 21 21 21 21 21 22 21 21 21 22 22 22 22 22 22 23 23 23 23 22
24 23 24 26 25 27 27 26 25 26 26 28 26 23 22 21 21 21 20 20 20 21 21 21 21 21 21 21 21 21 21 21 21 21 22 23 23 22 22 22 23 23 23 23 23 23 23 23 23
23 22 25 27 27 26 27 27 26 26 27 24 23 22 22 21 21 20 20 20 20 20 21 21 21 22 22 21 21 22 21 22 22 23 23 23 23 23 22 22 23 23 23 24 23 23 23 23 23
24 24 25 28 28 24 27 28 28 27 25 24 22 22 22 22 22 21 20 20 20 20 20 21 21 22 22 22 22 22 22 23 23 23 23 23 23 23 23 23 23 24 24 24 24 24 24 24 24
24 25 27 29 30 29 29 29 28 27 26 26 23 23 23 22 22 22 21 20 20 20 21 21 22 22 23 23 23 23 23 23 23 23 23 23 23 24 24 24 24 24 24 24 24 24 24 24 24
25 26 27 28 28 29 30 29 28 27 26 25 24 24 23 23 23 23 22 21 21 20 21 22 22 23 24 24 24 24 23 23 23 24 24 23 24 24 24 24 24 24 24 24 24 24 24 25 25
27 27 28 29 29 28 30 30 27 26 26 25 24 24 24 24 23 23 23 21 21 21 21 22 23 24 24 25 24 24 24 24 23 23 24 24 24 24 24 24 24 24 24 24 24 24 24 26 25
27 27 28 29 29 30 30 29 27 26 25 24 24 24 24 24 24 24 23 22 22 22 22 23 24 24 24 25 25 24 24 24 24 24 24 24 24 25 25 25 25 24 24 24 24 24 24 25 25
27 26 25 29 31 31 30 28 25 25 25 24 24 24 24 24 24 24 24 23 23 23 22 23 24 24 25 25 25 25 24 24 24 25 25 24 24 25 25 25 24 24 25 24 25 24 24 24 24
25 24 26 28 31 32 31 27 25 25 25 24 24 24 25 24 25 24 24 24 23 23 24 24 23 24 25 25 25 25 25 25 26 25 25 24 24 25 25 25 24 24 24 25 25 25 25 26 25
23 25 27 27 30 31 29 28 25 25 25 24 24 24 25 25 24 25 25 25 24 24 24 24 24 24 25 25 25 24 25 25 26 26 25 25 24 25 25 25 25 24 25 25 24 25 25 25 25
26 27 27 28 30 31 30 29 25 25 25 24 24 24 24 25 25 25 25 25 25 24 24 24 24 24 24 24 24 24 25 25 25 25 25 25 24 24 25 25 25 24 25 24 25 25 25 25 25
25 25 26 28 30 30 30 30 27 25 25 25 24 24 24 25 25 25 25 26 25 25 25 24 25 25 24 24 24 25 26 25 25 25 25 25 24 24 25 25 25 25 25 25 24 25 25 25 25
25 25 26 27 29 30 29 29 28 26 26 26 25 25 25 25 25 25 26 26 26 24 25 24 24 24 25 25 24 24 25 26 25 25 25 25 25 25 25 25 25 25 25 25 24 24 25 25 24
22 26 28 28 28 26 30 27 26 26 26 26 26 25 25 26 26 26 26 26 26 24 25 25 24 24 24 24 24 24 25 25 26 26 25 26 25 25 25 25 25 25 25 25 24 24 24 25 25
26 27 27 27 27 27 28 25 25 27 26 26 27 26 26 26 26 26 26 26 26 26 24 25 24 24 24 24 24 25 24 25 26 26 25 25 26 25 25 25 25 25 24 24 24 24 24 25 25
28 28 27 26 24 25 28 26 25 26 27 27 27 27 27 27 27 27 27 27 26 26 24 24 23 23 23 24 24 25 25 25 25 25 25 25 25 25 25 25 25 25 25 24 24 24 24 24 25
27 23 22 22 22 25 26 25 28 28 29 29 27 28 28 28 28 28 26 27 27 27 25 24 23 23 23 23 24 24 25 25 26 25 25 25 25 25 25 25 24 24 24 24 24 24 24 24 24
25 25 20 21 22 26 25 24 26 28 30 30 31 30 29 28 28 28 28 27 27 27 25 24 23 23 22 23 23 24 24 25 25 26 25 25 25 25 26 25 25 25 25 24 24 24 24 24 24
25 25 25 23 22 23 26 26 27 28 29 29 29 30 30 28 28 28 29 29 28 27 27 24 23 23 23 23 23 23 24 24 25 26 25 25 25 26 26 26 25 25 25 25 24 24 24 24 24
27 26 25 21 23 23 23 26 28 27 27 29 29 29 30 29 28 28 29 29 28 27 26 25 24 24 23 23 23 23 23 24 25 25 25 25 25 26 26 26 26 26 25 25 24 24 24 24 24
25 26 26 25 22 26 23 26 25 27 29 29 29 30 30 29 28 29 30 30 29 27 26 25 25 24 24 23 23 23 23 23 23 24 25 25 25 25 25 26 26 26 26 25 25 24 24 24 24
20 25 23 27 23 21 23 27 30 29 29 27 30 31 30 30 29 30 30 30 30 29 26 25 25 24 24 23 23 23 23 23 23 24 25 25 25 25 25 26 26 26 26 26 25 25 24 24 24

GFSSGP_925_temp_048.txt.gz
Temp
20 20 20 20 23 22 24 25 26 24 25 27 27 26 25 23 24 22 19 21 22 21 21 21 21 21 21 21 21 21 21 21 21 21 21 21 21 21 21 21 20 21 21 21 20 20 20 21 20
20 20 20 21 23 24 25 25 24 26 27 26 26 26 24 22 22 19 19 21 22 21 21 21 21 21 21 21 21 21 21 21 21 21 21 21 21 21 21 21 21 22 21 21 21 20 20 20 20
20 21 21 22 23 24 25 25 24 26 27 27 25 24 23 21 21 19 20 21 21 21 21 21 21 21 21 21 21 21 21 21 21 21 21 21 21 21 21 21 21 21 21 20 20 20 20 21 21
20 21 21 23 24 25 25 24 25 25 25 28 24 21 21 22 21 19 19 20 21 21 21 21 21 21 21 21 21 21 21 21 21 21 21 21 21 21 21 21 21 20 21 20 20 20 21 21 21
21 22 23 23 25 26 24 24 26 27 26 24 24 21 21 20 20 19 19 20 21 21 21 21 21 21 20 21 21 21 21 21 21 21 22 21 21 21 21 21 21 21 21 20 20 21 21 21 21
22 21 23 24 25 26 25 24 24 27 24 23 21 21 20 19 19 20 20 20 21 21 21 21 21 21 21 21 21 21 21 21 21 22 21 21 21 21 21 21 21 21 21 21 21 22 22 22 22
22 21 24 25 25 26 25 24 23 25 24 24 22 20 19 20 20 20 20 21 21 21 21 21 21 21 21 21 20 21 21 21 21 21 21 21 21 21 21 21 21 22 22 21 21 22 22 22 22
22 22 24 25 25 26 24 25 27 26 25 24 23 20 20 20 19 20 20 20 21 21 21 21 21 21 21 21 21 21 21 21 21 21 21 21 21 21 22 22 22 21 22 23 22 22 22 22 22
24 22 23 25 24 26 25 26 26 25 24 26 24 21 21 20 19 19 19 20 20 21 21 21 21 21 21 21 21 21 21 21 21 21 22 22 22 22 22 22 21 22 22 23 23 23 23 23 22
22 21 24 27 27 25 26 27 25 25 25 23 21 21 20 20 20 20 20 20 20 20 21 21 21 21 21 21 21 21 21 21 21 23 23 23 23 22 22 22 22 22 22 23 23 23 23 23 23
23 23 25 28 28 27 27 27 26 25 25 23 21 20 20 20 20 21 21 20 20 20 20 21 21 22 21 21 21 21 21 22 22 22 23 23 23 23 23 23 23 23 23 23 23 23 23 23 23
23 25 25 28 29 28 28 28 27 26 26 25 22 21 21 21 20 21 21 20 20 20 20 21 21 22 22 22 22 22 22 22 23 23 23 23 23 23 23 23 23 23 23 23 24 24 24 24 24
24 26 26 27 27 27 28 28 27 26 25 24 22 22 21 21 21 21 21 20 19 20 20 21 21 22 22 22 22 22 22 23 23 23 23 23 24 23 24 24 23 23 23 23 24 24 24 24 24
26 26 27 27 27 27 27 28 27 25 24 23 22 22 22 22 21 21 20 20 19 20 20 21 22 23 22 23 23 23 23 23 23 23 24 24 24 24 24 24 24 24 24 23 24 24 24 24 25
26 25 26 27 28 27 28 26 27 24 24 22 22 22 22 22 22 22 21 20 20 21 21 22 22 23 23 23 24 24 24 23 23 23 23 24 24 24 24 24 24 23 24 24 24 24 24 25 25
25 25 25 27 28 29 29 27 25 24 23 22 22 23 23 22 23 22 22 21 21 21 21 22 23 23 23 24 24 24 24 24 24 24 23 24 24 24 24 24 24 24 24 24 24 24 25 25 25
23 23 24 27 29 30 28 26 24 24 23 23 23 23 23 23 23 23 22 22 22 22 22 22 22 24 24 24 24 24 24 24 24 24 24 24 24 24 24 24 24 24 24 24 24 24 24 24 24
22 24 25 27 29 29 28 27 24 24 23 23 23 23 23 23 23 23 23 22 22 22 23 23 23 24 24 24 24 24 24 24 24 25 25 24 24 24 24 24 24 24 25 25 25 24 23 23 24
24 25 26 27 29 28 27 26 24 24 23 23 23 23 23 23 24 24 24 23 23 22 23 23 23 24 24 23 23 23 24 24 25 25 25 25 24 24 24 24 24 24 25 25 24 24 24 24 24
24 25 25 26 29 28 28 27 25 24 24 24 23 23 23 24 24 24 24 23 23 22 23 23 24 24 24 24 24 23 24 24 25 25 25 25 24 24 24 24 24 25 24 25 24 25 24 24 24
22 22 24 27 28 29 29 27 25 25 24 24 24 24 24 24 24 24 24 24 24 23 23 23 24 24 24 24 23 23 23 23 24 25 25 25 25 24 24 24 24 24 24 24 24 24 24 24 24
19 24 25 26 26 25 28 25 25 24 24 24 24 24 24 24 25 24 24 24 24 23 23 24 24 25 24 25 24 24 23 23 24 25 25 25 25 25 24 24 24 24 24 24 24 24 24 24 24
23 24 24 25 25 26 27 26 25 24 23 24 24 24 25 25 25 25 25 25 25 24 23 24 24 24 25 24 25 24 23 24 25 25 25 25 25 25 25 24 24 24 24 24 24 24 24 24 25
26 26 24 23 22 22 25 27 25 23 25 24 25 25 25 25 25 25 25 25 25 25 24 23 24 24 24 24 24 24 24 24 24 25 25 25 25 25 25 25 24 24 24 24 24 24 24 24 24
24 23 20 21 21 24 25 27 26 27 26 27 26 26 26 26 26 26 25 25 25 25 23 23 23 23 24 24 24 24 24 25 24 25 25 25 25 25 25 25 24 24 24 24 24 24 24 24 24
24 22 19 19 20 25 22 23 25 30 27 28 28 28 27 27 26 26 26 26 25 25 25 23 23 23 23 23 23 24 24 24 25 25 25 25 26 26 25 25 25 25 24 24 24 24 24 24 24
23 22 22 21 20 21 26 24 26 27 28 27 28 28 27 27 27 27 27 27 26 26 25 24 23 23 23 23 23 23 23 24 24 25 25 25 26 26 25 25 25 25 24 24 24 24 24 24 24
23 24 23 19 21 21 22 24 27 26 26 26 26 27 28 28 28 27 27 27 26 26 26 24 24 23 23 23 23 23 23 24 24 25 25 25 26 25 25 25 25 25 25 25 24 24 24 24 24
23 24 23 23 21 21 21 23 25 25 28 29 27 27 28 28 28 28 28 28 27 27 26 24 24 23 23 22 22 22 23 23 23 24 25 25 26 25 25 25 25 25 25 25 24 24 24 24 24
18 19 21 25 22 19 21 24 27 27 26 26 30 28 28 29 29 28 28 28 28 27 27 26 24 23 23 23 23 23 23 23 23 23 25 25 25 25 25 25 25 25 26 25 25 24 24 24 24

GFSSGP_925_temp_051.txt.gz
Temp
20 20 20 20 23 24 26 26 25 26 27 28 29 28 27 25 26 26 21 21 21 21 21 21 21 21 21 21 21 21 21 21 22 21 21 21 22 21 20 21 21 21 21 20 20 20 21 20 20
20 20 20 21 24 26 26 25 25 27 28 28 28 27 27 24 23 21 21 21 22 22 22 21 21 21 21 21 21 21 21 21 21 21 22 21 21 21 21 21 21 21 21 21 20 20 20 21 20
20 21 21 22 24 26 25 25 24 26 28 28 26 26 25 22 22 22 22 21 22 21 22 21 21 21 21 21 21 21 21 21 21 21 21 21 21 21 21 21 21 20 21 20 20 20 20 20 20
21 21 21 24 24 26 24 25 26 26 28 29 27 24 23 22 22 21 21 21 22 22 22 21 21 21 21 21 21 21 21 21 21 21 21 21 21 21 21 21 20 20 20 20 20 20 21 22 21
22 22 25 25 25 26 24 24 26 27 27 27 26 23 21 21 21 21 21 22 22 22 22 21 21 21 21 21 21 21 21 21 21 21 21 21 22 21 21 21 21 21 20 20 20 21 21 21 22
23 22 25 25 25 26 27 26 25 28 23 24 24 23 21 21 21 21 22 22 22 22 22 22 21 21 21 21 21 21 21 21 21 21 22 22 21 21 21 21 21 21 21 21 21 21 21 22 22
24 24 25 26 26 27 27 24 24 26 24 24 25 23 21 21 21 21 22 22 22 22 22 22 22 21 21 21 21 21 21 21 21 22 22 22 21 21 21 21 21 21 21 21 21 22 22 22 22
25 25 25 27 26 27 26 26 26 26 24 26 25 24 21 22 20 21 21 22 22 22 22 21 21 22 22 21 21 21 21 21 21 22 21 21 21 22 22 22 22 22 21 21 21 22 22 22 22
25 25 26 27 27 27 25 27 27 27 24 27 26 25 24 21 20 21 22 22 22 22 22 22 22 21 21 21 21 21 21 21 21 21 21 21 21 22 22 22 22 22 22 21 22 22 22 22 23
24 25 27 28 27 26 28 28 27 26 26 25 24 24 22 21 21 22 22 22 22 22 22 22 21 21 21 22 21 21 22 22 22 21 22 21 22 21 22 22 22 22 22 22 22 22 23 23 23
26 26 28 29 29 28 26 28 28 27 27 26 24 23 22 22 23 22 23 22 23 22 22 21 21 21 21 21 21 21 21 21 21 22 22 23 23 23 22 22 22 22 23 22 22 22 23 23 23
25 26 28 28 30 29 29 30 28 28 29 28 25 24 23 23 24 23 23 22 23 22 22 21 21 20 21 21 21 21 21 21 21 22 22 23 23 23 23 22 22 23 22 23 23 22 22 22 22
26 27 28 27 29 30 30 30 29 29 28 27 25 24 24 24 24 23 23 22 22 22 22 21 21 20 20 20 21 21 21 22 22 23 23 23 23 23 23 23 23 22 23 23 23 23 23 24 23
28 27 28 28 29 30 29 30 29 27 27 25 24 24 24 24 24 23 23 22 22 22 21 21 21 20 20 21 21 21 21 21 21 22 23 23 23 23 23 23 23 23 23 24 24 23 23 24 23
28 27 28 29 30 30 31 29 29 27 26 25 24 24 24 24 24 24 23 23 22 22 21 21 21 20 20 21 22 21 21 22 22 22 23 23 23 23 23 23 23 22 23 24 24 24 24 23 23
28 28 28 31 31 31 31 31 28 26 26 25 24 24 24 24 24 24 23 23 22 22 21 21 22 21 21 21 23 22 22 22 22 22 23 23 23 23 23 23 22 23 23 24 23 23 23 24 24
27 30 28 30 31 32 31 31 28 26 26 25 25 25 25 24 24 24 23 23 23 22 22 21 21 21 21 22 22 23 23 23 23 23 24 23 23 23 24 23 23 24 24 24 23 23 24 24 24
28 28 29 30 32 32 31 31 27 26 26 25 25 25 25 25 25 24 24 23 23 22 22 21 22 21 21 21 22 22 23 23 24 24 24 24 24 24 23 24 23 23 23 24 23 24 24 23 23
27 28 30 30 32 31 32 32 28 27 26 26 25 25 25 25 25 25 24 24 23 22 22 21 21 21 21 21 22 22 23 23 23 24 25 25 24 24 24 24 24 24 24 24 24 23 24 22 22
26 26 29 30 31 31 31 32 30 27 27 27 26 26 26 26 26 25 25 24 24 23 22 21 21 21 22 22 22 23 23 23 23 24 25 25 25 24 24 24 23 24 24 25 24 24 23 23 22
26 26 27 29 29 31 31 31 30 28 28 27 27 27 27 27 26 26 25 25 24 24 22 22 21 21 22 22 22 22 23 23 23 24 25 25 25 24 24 24 23 24 24 24 24 24 24 25 23
26 27 27 27 28 30 31 31 32 30 27 27 27 27 27 27 27 27 26 25 25 24 23 22 22 22 22 23 22 23 24 24 24 24 24 25 25 25 24 24 24 24 24 24 24 24 24 24 25
26 27 27 27 27 28 30 30 32 30 29 28 28 28 28 28 27 27 26 26 25 25 23 23 22 23 22 22 22 23 23 24 23 24 25 25 25 25 25 24 24 24 23 24 24 24 24 24 24
27 27 27 27 28 26 28 29 31 31 31 30 29 29 28 28 28 28 26 26 26 25 24 23 22 22 23 22 23 23 23 23 23 23 24 24 24 25 25 24 24 24 23 24 23 24 24 23 24
26 26 26 25 25 26 30 28 30 33 32 33 31 29 29 29 28 28 27 26 26 25 24 23 22 22 22 22 23 23 23 23 23 23 24 24 24 24 24 25 24 23 24 24 24 23 23 23 23
26 27 26 25 27 28 29 28 30 32 33 32 33 32 30 29 29 28 28 27 26 25 25 24 23 23 22 23 23 23 24 23 23 23 24 24 24 24 24 25 25 25 24 24 24 22 23 22 23
26 26 28 27 26 27 30 29 31 31 32 34 33 32 31 30 29 29 28 27 26 26 25 24 23 23 22 23 22 22 23 23 23 24 23 23 23 24 23 25 25 25 25 24 23 23 23 22 23
26 28 25 26 25 26 28 29 30 31 32 32 32 33 32 31 30 30 29 28 27 26 26 24 24 23 23 23 23 23 22 23 23 23 23 24 24 25 24 25 25 25 25 24 23 23 23 22 23
25 25 27 28 27 27 27 29 32 32 32 33 32 33 33 32 31 30 30 29 27 27 26 25 24 24 23 23 23 23 23 22 22 22 23 24 25 26 25 25 25 25 25 24 23 23 23 22 22
20 23 27 26 26 27 28 30 32 32 34 34 35 35 33 32 32 31 31 29 29 28 27 26 25 25 24 23 23 23 23 23 22 22 22 23 24 26 25 25 25 25 24 23 23 23 24 23 23

GFSSGP_925_temp_054.txt.gz
Temp
20 22 24 24 24 29 30 29 29 29 31 32 32 30 31 31 30 26 25 23 25 24 23 22 21 21 21 22 22 21 21 21 21 22 21 21 21 21 21 21 21 21 21 20 20 21 20 20 21
21 20 21 24 26 28 30 30 29 31 32 32 31 31 31 27 27 26 25 25 25 25 25 23 21 21 21 22 22 22 21 21 21 21 21 21 21 21 21 21 21 21 21 21 21 21 21 21 20
22 23 24 23 26 30 29 29 29 31 31 31 29 31 30 27 26 26 26 25 26 26 26 22 21 21 21 21 21 21 21 21 21 21 21 21 21 21 21 21 21 21 21 21 20 20 21 21 21
25 24 22 25 27 29 27 28 28 31 31 30 31 28 27 26 27 26 25 26 26 26 26 21 22 21 21 21 21 21 21 21 21 21 21 21 21 21 21 21 21 21 21 21 21 21 21 20 20
26 25 26 28 27 27 28 28 28 30 29 29 31 27 22 25 25 25 25 26 26 26 25 23 22 21 21 21 21 21 21 21 21 21 22 21 21 21 21 21 21 21 21 21 21 21 21 21 21
26 26 28 29 27 29 26 26 26 29 28 28 29 27 23 23 25 25 26 27 27 27 25 23 21 21 21 21 21 21 21 21 21 21 21 21 21 21 21 21 21 21 21 21 21 21 22 21 21
28 29 29 30 27 30 30 30 28 30 27 27 30 29 24 24 25 26 26 27 27 27 26 24 23 21 21 21 21 21 21 21 21 21 21 21 21 21 21 21 21 21 21 21 21 22 22 22 22
27 29 30 31 28 30 28 26 27 29 28 30 30 28 24 24 25 26 27 26 26 27 26 25 24 24 24 22 21 21 21 21 21 21 21 21 21 22 22 23 22 21 21 21 22 22 22 22 22
29 29 31 32 29 29 29 28 29 28 26 28 29 30 28 24 24 26 27 27 26 26 26 26 25 24 24 23 22 21 21 21 21 22 22 23 25 24 24 23 21 21 21 21 22 22 22 23 22
29 28 32 31 31 28 29 31 31 30 29 29 29 29 25 24 24 27 27 27 26 26 26 26 25 25 24 25 22 23 23 24 25 24 23 24 24 24 24 23 22 22 22 22 22 23 23 24 25
29 29 32 30 30 31 31 32 32 32 31 31 29 27 25 25 25 27 27 27 27 26 26 26 25 24 24 25 24 24 25 24 24 23 23 23 24 24 25 24 24 24 23 25 24 23 25 26 26
30 31 32 31 32 33 32 32 32 32 32 33 30 28 26 27 28 28 28 27 27 26 26 25 24 24 24 24 25 25 25 25 24 24 22 23 25 24 25 25 25 25 25 24 25 26 25 25 25
31 32 31 30 32 33 33 33 33 33 32 32 30 28 28 28 28 28 28 27 27 26 26 25 24 23 24 24 25 25 25 25 25 23 23 24 25 25 25 24 25 25 25 25 25 25 25 24 25
32 32 32 31 31 32 33 34 33 33 32 31 29 28 29 29 28 28 28 27 27 26 26 25 24 23 23 24 24 24 25 25 25 25 24 23 25 24 25 23 25 25 25 25 26 25 26 26 26
32 31 31 31 31 31 34 33 33 32 31 30 29 29 29 29 28 28 27 27 27 26 26 25 24 23 23 23 23 24 24 25 25 25 23 23 23 23 24 25 24 25 24 24 24 25 25 26 26
31 32 31 34 30 32 33 34 34 32 32 30 30 29 29 29 28 27 27 27 27 26 25 25 25 24 23 23 23 24 25 25 25 25 24 23 23 23 23 24 25 25 25 26 26 26 27 27 27
32 33 33 34 34 33 33 35 33 33 32 31 30 29 29 29 29 27 27 27 27 26 25 25 25 25 24 23 23 24 24 25 25 25 25 23 23 23 24 25 24 24 25 26 26 26 27 27 27
33 33 35 34 35 35 35 35 33 32 32 31 30 30 29 29 29 28 27 27 27 26 25 25 25 25 24 23 23 24 25 25 25 25 25 24 24 23 24 24 23 24 26 26 27 26 26 27 27
32 34 34 35 34 35 35 35 33 32 32 31 30 30 29 29 29 28 27 27 27 26 25 24 24 24 23 24 24 25 25 25 25 26 25 24 24 23 23 24 23 24 25 26 25 25 24 26 26
31 31 32 35 33 35 35 36 36 33 33 32 31 30 30 30 30 29 28 27 27 26 25 24 24 24 23 24 25 26 26 26 26 26 25 25 24 24 24 24 24 24 25 24 24 25 26 26 26
30 31 32 33 33 33 35 34 35 35 33 33 32 31 31 31 30 29 28 28 27 27 26 25 24 24 23 25 24 24 25 25 25 26 26 25 25 24 24 24 24 24 25 25 24 24 26 27 26
30 32 31 32 31 32 34 34 35 36 33 33 33 32 32 31 31 30 29 28 28 27 26 25 24 24 23 23 25 24 26 27 27 27 27 26 25 25 24 24 24 24 24 24 25 25 26 26 27
29 32 31 31 31 32 33 33 34 37 35 34 34 33 33 32 32 31 30 29 28 28 27 25 24 24 24 23 25 24 25 27 27 27 26 26 25 25 25 24 24 24 23 24 24 24 24 26 27
30 30 30 30 31 30 32 33 35 36 36 36 35 34 34 33 32 32 30 29 29 28 27 26 25 23 23 23 23 24 25 27 27 26 26 27 27 25 24 24 24 24 24 24 24 24 24 25 25
29 29 29 29 30 30 33 33 34 37 37 37 37 35 35 34 33 32 31 30 29 28 28 27 25 24 24 24 24 24 24 25 26 26 26 27 27 27 26 24 24 24 24 24 23 23 24 24 25
29 30 30 29 31 32 33 32 34 36 37 38 38 38 36 35 34 33 32 30 29 29 28 27 26 24 24 24 24 23 24 25 25 25 27 27 27 27 27 25 25 24 24 24 24 24 24 25 24
30 29 31 32 33 33 34 34 35 36 36 36 36 37 36 35 35 34 33 31 30 29 28 27 26 25 25 25 24 24 24 24 26 26 25 26 26 27 26 25 25 25 25 24 24 25 25 25 24
28 31 29 30 28 29 32 33 33 34 35 36 36 37 37 37 35 35 34 32 30 29 29 27 26 25 25 25 25 25 25 24 25 26 25 26 26 25 26 25 25 25 25 25 24 25 25 25 25
27 28 29 30 30 30 30 33 36 35 35 35 36 37 38 37 36 35 34 33 31 30 29 28 27 26 26 26 26 25 25 25 25 25 25 25 25 25 24 25 25 25 25 25 24 25 26 25 25
26 27 29 28 28 30 31 33 36 35 36 36 37 37 38 38 37 36 35 34 32 31 30 29 28 27 26 26 26 25 26 25 26 25 25 25 24 25 24 25 25 25 25 25 25 25 26 25 25

GFSSGP_925_temp_057.txt.gz
Temp
21 23 25 28 24 30 28 30 32 31 32 32 33 33 29 29 29 27 25 25 26 26 24 22 21 21 21 22 22 21 21 21 21 21 21 21 21 21 21 21 21 21 21 21 21 21 21 21 21
25 24 26 24 25 28 29 33 30 31 34 34 34 33 32 30 30 27 26 26 27 27 25 24 22 22 21 22 22 21 21 21 21 21 21 21 21 21 21 21 21 21 21 21 21 21 21 21 21
25 24 25 26 30 29 27 32 32 33 34 32 32 32 31 28 29 29 28 28 28 28 26 22 21 21 21 22 22 21 21 21 21 21 21 21 21 21 21 21 21 21 21 21 21 21 21 21 21
27 27 23 25 29 31 29 30 32 33 33 32 33 30 29 30 29 28 28 29 29 28 26 22 21 21 21 21 21 21 21 21 21 21 21 21 21 21 21 21 21 21 21 21 21 21 21 21 21
28 26 26 28 30 29 31 30 28 32 30 32 32 29 28 28 29 29 29 30 30 29 25 23 22 21 21 21 21 21 21 21 21 21 21 21 21 21 21 21 21 21 21 21 21 21 21 21 21
25 29 29 29 31 30 31 28 27 31 30 31 30 28 27 28 28 29 30 30 30 28 26 23 21 21 21 21 21 21 21 21 21 21 21 21 21 21 21 21 21 21 21 21 21 21 21 22 21
28 26 29 31 32 27 28 27 26 30 31 30 33 29 27 28 28 29 30 30 30 29 26 24 23 22 21 21 21 21 21 21 21 21 21 21 21 21 21 21 21 21 21 21 21 21 21 22 21
28 28 31 31 32 28 31 30 29 31 28 33 33 29 26 28 28 29 30 30 30 29 27 26 25 24 24 22 21 21 21 21 21 21 22 21 22 23 23 23 21 21 21 21 22 22 21 22 22
30 29 30 27 30 31 31 29 29 29 30 31 32 32 29 28 28 29 30 30 30 29 28 28 27 26 25 23 21 21 21 21 21 22 23 24 25 24 24 23 21 22 21 21 22 22 23 23 23
29 32 26 33 32 33 33 31 30 30 32 33 32 31 28 29 29 29 31 30 30 29 29 29 28 27 26 26 23 24 23 24 25 25 24 24 25 25 25 23 23 22 23 23 24 23 23 24 25
33 33 34 33 33 31 31 26 31 33 33 33 32 29 28 30 30 31 31 30 30 30 30 29 27 27 27 25 26 26 25 24 26 25 25 26 26 25 25 24 24 24 23 25 24 23 24 24 26
33 35 33 31 34 32 31 32 34 33 28 34 32 29 29 30 31 31 31 30 30 30 29 29 27 27 27 26 27 27 24 27 27 25 25 25 25 26 25 25 25 26 25 26 25 24 26 25 25
34 34 34 34 34 33 33 33 25 32 35 34 32 29 29 31 31 31 31 30 30 29 29 28 27 26 26 26 27 27 28 28 27 25 25 26 25 25 26 26 24 26 26 27 26 26 26 26 27
36 35 32 32 35 35 34 34 36 35 35 33 31 30 31 31 31 31 31 30 30 29 28 28 27 26 26 26 26 27 27 28 27 27 25 25 25 25 25 26 25 26 26 27 26 26 27 27 27
35 34 35 33 33 35 36 35 36 35 35 33 32 31 32 32 31 31 31 30 29 29 28 27 26 26 25 25 26 27 26 28 27 27 25 25 25 25 25 26 25 26 25 26 26 27 27 28 27
34 35 34 36 33 35 35 34 37 36 35 33 32 32 32 32 32 31 30 30 29 29 28 27 27 26 25 26 25 26 26 27 26 27 25 24 24 24 24 26 26 27 26 26 25 27 27 28 28
35 34 34 35 33 35 34 31 30 36 35 34 33 32 32 32 32 30 30 30 30 29 28 27 27 26 25 25 25 26 26 27 27 27 26 25 25 24 25 27 25 25 26 27 27 27 27 28 28
35 35 37 35 35 35 35 33 25 36 36 34 33 33 32 32 32 31 30 30 29 29 27 27 27 26 25 25 25 27 26 27 27 27 25 25 24 24 25 25 25 25 26 27 27 27 27 28 28
37 37 36 38 36 35 34 32 25 36 37 35 34 33 32 32 32 31 30 30 29 28 27 26 26 26 25 25 26 27 27 27 26 27 26 25 25 24 24 25 25 25 25 25 26 27 26 28 28
35 35 36 38 37 34 32 34 36 36 36 35 34 33 33 33 32 31 30 30 30 28 27 26 26 25 25 25 26 27 28 28 28 28 26 26 26 25 25 24 25 25 26 26 26 26 26 28 28
34 34 35 36 36 37 35 33 36 35 37 36 35 34 34 33 33 32 31 30 30 29 27 26 26 25 24 26 26 26 27 28 28 28 27 26 26 25 26 25 24 25 25 26 25 25 26 27 28
33 35 35 35 35 35 36 32 34 28 36 36 35 35 35 34 34 33 31 31 30 29 28 27 25 25 24 25 26 26 27 28 28 28 28 27 26 26 26 25 25 25 25 25 25 25 26 26 28
32 35 35 34 34 35 35 35 37 37 34 36 36 35 36 35 34 33 32 31 31 30 28 27 25 25 25 24 26 26 27 28 28 29 28 28 26 26 26 25 25 25 25 25 24 25 25 27 27
33 33 33 34 34 32 34 35 36 34 36 37 37 37 36 36 35 34 32 31 31 30 29 28 26 25 24 24 24 26 26 27 29 29 28 27 27 26 26 26 24 25 25 25 25 25 25 25 27
32 32 30 31 31 32 35 35 37 38 37 36 38 38 37 37 36 35 34 32 31 31 30 29 27 25 24 25 24 25 26 26 27 28 28 29 29 29 27 26 25 25 25 25 25 24 24 25 26
31 32 32 30 32 34 35 35 36 39 38 35 31 38 39 38 37 36 34 33 32 31 30 29 28 25 25 25 24 24 25 26 27 27 28 28 29 29 27 26 26 25 26 25 25 25 25 26 25
32 31 34 33 35 35 37 36 38 39 39 36 36 39 38 38 38 36 35 34 32 31 30 29 29 26 25 25 25 24 24 25 27 28 27 28 28 29 29 27 26 26 26 26 25 26 25 25 25
31 34 31 32 30 31 35 36 36 37 38 38 38 39 37 36 38 38 36 34 33 32 31 30 29 27 26 26 25 25 24 25 26 27 27 27 28 28 28 27 27 26 26 26 25 27 26 26 26
30 30 31 32 33 31 32 36 39 38 38 38 39 38 39 39 38 38 37 35 34 33 32 30 29 28 26 26 26 26 25 25 25 26 26 26 27 27 26 27 26 26 26 26 25 26 27 26 26
30 31 31 30 30 33 33 35 39 39 39 38 38 39 39 39 39 39 39 37 35 33 32 31 30 29 28 27 27 26 26 26 26 26 26 26 26 26 26 26 26 26 26 26 25 25 27 27 26

GFSSGP_925_temp_060.txt.gz
Temp
22 22 23 24 25 26 28 26 26 31 32 34 33 30 28 30 26 25 23 25 26 25 22 21 21 22 21 21 21 21 21 21 21 21 21 21 21 21 21 21 21 21 21 21 21 21 21 21 21
25 26 26 25 24 27 28 26 28 32 34 34 33 28 31 29 29 27 26 27 27 25 24 22 22 21 22 22 21 21 21 21 21 21 21 21 21 21 21 21 21 21 21 21 21 21 21 21 21
25 26 24 26 28 27 23 28 29 34 34 32 31 32 31 28 28 28 28 28 28 26 25 21 22 21 21 21 21 21 21 21 21 21 21 21 21 21 21 21 21 21 21 21 21 21 21 21 20
27 27 25 25 27 29 28 29 33 32 33 33 32 30 30 29 29 28 28 29 28 26 24 22 22 21 21 21 22 22 22 22 21 21 21 21 21 21 21 21 21 21 21 21 21 21 21 21 21
28 27 25 28 30 30 31 26 31 30 32 26 31 28 28 28 29 29 30 30 29 25 23 22 22 21 22 21 21 21 21 21 21 21 21 21 21 21 21 21 21 21 21 21 21 21 21 21 22
26 27 27 29 29 31 30 29 28 26 27 23 30 28 28 28 29 30 31 30 28 26 24 22 21 21 21 21 21 21 21 21 21 21 21 21 21 21 21 21 21 21 21 21 21 21 21 22 23
29 26 28 28 29 28 29 29 29 31 29 26 31 28 28 29 29 31 31 29 28 26 24 23 22 21 21 21 21 21 21 21 21 21 21 21 21 21 21 21 21 21 21 21 21 21 22 23 24
28 27 29 29 27 25 29 28 26 27 31 31 31 28 27 29 30 31 31 30 29 27 26 24 23 23 22 22 21 21 21 21 22 22 22 24 23 22 22 22 21 21 21 21 22 23 24 25 25
31 27 27 27 31 25 30 29 25 24 30 32 32 29 30 29 30 31 31 30 28 28 27 26 25 24 23 22 21 21 21 22 22 22 23 23 23 23 22 23 22 22 22 22 22 23 23 24 24
30 27 25 27 31 31 32 32 31 29 32 32 32 32 30 30 31 31 31 29 29 29 29 28 26 25 24 24 22 22 22 22 24 24 24 24 24 25 23 23 22 23 23 23 23 22 22 22 23
33 31 27 31 32 33 32 29 28 31 32 32 30 30 30 30 31 31 31 28 29 30 30 28 27 26 26 25 24 24 24 24 25 24 25 24 25 25 23 23 23 23 24 24 23 23 22 23 22
33 33 33 32 34 34 32 24 24 23 28 33 31 31 31 30 31 32 32 30 30 30 30 28 27 27 26 26 25 26 25 25 26 25 25 25 25 25 23 23 23 23 24 24 25 24 23 23 25
35 35 34 33 33 34 32 25 23 25 25 28 31 31 31 30 31 32 32 31 30 30 29 28 27 26 26 26 26 26 26 26 26 26 25 25 25 24 24 24 25 24 24 25 25 26 24 24 26
37 37 36 35 33 32 31 30 31 26 27 32 30 30 31 31 32 32 32 31 31 30 29 28 27 26 25 26 25 26 26 27 27 26 26 24 24 25 25 25 25 24 26 25 25 26 26 26 25
36 36 36 35 33 30 32 27 28 26 27 31 30 30 32 32 33 32 32 31 31 30 29 27 27 26 26 26 26 27 27 28 28 27 26 25 25 25 25 24 25 25 26 26 27 27 27 26 27
34 35 34 36 34 36 35 31 30 26 30 31 31 31 32 32 33 32 32 31 30 30 28 27 28 26 26 25 26 27 27 27 27 26 25 25 25 24 25 25 24 26 25 27 26 27 27 27 26
34 33 34 36 35 36 36 30 28 26 32 33 32 32 32 31 33 32 32 31 30 29 28 27 27 26 26 25 26 26 26 26 27 26 26 25 25 24 23 25 25 25 25 26 27 27 27 28 27
34 34 36 36 36 36 36 32 29 25 29 34 33 33 32 32 33 32 32 31 30 29 28 27 27 26 26 25 26 26 26 27 26 27 26 25 25 24 24 24 26 25 25 26 27 27 27 27 28
35 36 37 38 38 36 35 27 29 29 30 30 34 33 33 32 33 32 32 31 30 28 27 27 27 26 25 25 25 26 26 26 26 26 25 25 25 25 24 25 25 25 26 26 26 27 27 27 28
34 35 36 39 39 37 32 27 29 32 30 29 35 34 33 33 33 32 32 31 31 29 27 27 27 25 25 25 26 27 27 26 26 25 25 26 25 25 25 25 26 25 26 26 26 27 26 27 28
35 34 36 36 38 38 36 28 26 27 25 26 36 35 34 34 33 32 32 31 31 29 27 26 26 25 25 25 26 26 27 27 26 26 26 26 26 26 25 25 25 26 25 25 25 25 25 26 27
33 36 36 36 36 35 37 31 30 25 25 23 32 35 34 34 34 32 32 31 31 29 27 26 26 25 25 25 26 26 27 28 28 27 27 27 26 26 25 25 25 25 25 25 26 25 25 26 27
33 36 36 35 35 35 36 36 35 29 27 24 26 33 35 35 34 33 32 31 31 29 28 26 26 25 25 25 26 26 26 28 28 28 27 26 26 26 26 25 25 25 25 25 25 25 25 25 26
35 34 34 35 35 33 34 35 36 30 28 25 27 25 36 35 35 33 32 31 31 30 28 27 25 25 25 25 25 26 27 27 28 28 27 26 26 26 26 26 25 25 25 25 25 25 25 25 26
33 32 30 30 31 32 35 35 36 38 33 29 26 24 36 36 35 34 32 32 31 31 29 28 25 25 24 24 25 25 26 27 27 28 28 27 26 26 26 26 25 25 25 24 24 24 25 25 25
32 32 31 29 31 32 35 34 36 39 39 33 31 31 33 37 36 35 33 32 31 31 30 28 26 25 24 24 24 25 25 26 26 27 29 28 28 28 27 26 26 25 25 25 24 24 24 25 25
32 32 33 32 34 33 35 36 37 39 39 39 34 33 27 25 28 35 34 33 31 31 30 29 27 25 25 25 24 24 25 26 26 27 28 28 29 28 28 27 26 26 25 25 25 25 25 25 25
32 33 31 32 29 30 33 35 36 37 38 39 33 31 28 27 24 26 35 34 32 31 31 30 28 26 25 24 25 24 24 25 26 27 27 28 28 28 27 26 26 26 26 26 25 25 26 25 25
31 30 31 32 33 31 31 34 38 38 38 38 37 31 27 28 25 22 25 35 33 32 31 30 29 27 26 25 25 25 24 25 25 26 27 27 28 28 28 27 27 26 26 26 26 26 26 26 26
31 30 31 31 29 31 32 34 39 39 39 39 39 39 33 30 27 23 21 25 34 33 32 31 30 29 27 26 25 25 25 24 25 25 27 27 27 27 27 27 27 26 26 26 26 25 26 26 26

GFSSGP_925_temp_063.txt.gz
Temp
23 22 23 24 22 23 25 24 26 27 31 32 32 30 28 29 28 24 23 23 23 22 22 22 22 22 21 22 22 21 21 21 21 21 21 21 21 21 21 21 21 21 21 21 21 21 21 21 21
24 22 23 22 23 25 25 25 25 31 30 29 30 30 29 26 26 23 23 24 23 22 22 21 22 22 22 22 22 22 21 21 21 21 21 21 21 21 21 21 21 21 21 21 21 21 21 21 21
24 25 23 23 24 25 24 23 24 31 32 30 28 30 28 25 25 24 25 24 23 22 22 22 22 22 21 21 22 22 21 21 22 21 21 21 21 21 21 21 21 21 21 21 21 21 20 20 21
23 25 23 24 25 24 23 23 24 31 30 29 28 27 27 27 27 26 26 25 23 22 22 22 21 21 21 21 21 21 21 21 21 21 21 21 21 21 21 21 21 21 21 21 21 21 21 21 22
24 24 24 25 26 25 25 24 24 28 26 28 28 26 26 27 27 27 27 25 24 23 22 21 22 22 21 21 21 21 21 22 21 21 21 21 21 21 21 21 21 21 21 21 21 21 21 21 22
24 24 25 26 28 26 28 28 27 26 25 26 27 27 26 28 27 28 27 24 25 22 22 21 22 21 21 21 21 21 21 22 21 21 21 21 21 21 21 21 21 21 21 21 21 21 22 23 22
25 25 26 27 27 27 25 28 26 28 26 28 29 26 26 28 28 28 25 24 23 23 22 22 21 21 21 22 21 22 21 21 21 22 21 21 21 21 21 21 21 21 21 21 22 23 23 23 23
26 25 26 27 27 27 26 26 27 28 26 27 29 26 26 28 30 27 26 24 23 23 22 21 21 22 21 21 21 21 21 21 22 22 21 22 21 21 21 21 21 21 21 21 21 22 22 23 23
30 25 25 26 27 26 27 26 26 25 25 29 28 28 28 29 29 28 26 25 24 23 23 23 22 22 22 22 21 21 22 21 23 23 23 22 22 22 22 22 21 21 21 21 22 23 23 24 23
27 25 26 27 27 27 30 28 27 26 27 26 27 29 28 28 29 28 26 25 25 24 24 24 23 22 23 22 22 22 23 23 24 23 23 23 22 23 23 22 22 22 23 23 23 24 24 24 24
30 28 27 27 28 27 24 25 27 26 29 26 26 28 28 28 29 28 27 26 26 25 24 24 24 24 23 24 23 23 23 23 23 24 24 23 23 24 23 23 23 22 23 24 24 23 24 24 25
30 32 28 29 30 27 25 25 25 24 24 25 28 28 28 29 29 28 28 28 28 27 25 25 25 24 24 25 24 24 24 24 24 25 24 24 24 24 24 24 23 23 23 23 23 23 24 23 25
32 32 31 32 31 27 26 26 26 24 24 25 28 29 28 29 29 28 28 29 29 27 26 26 25 25 25 25 24 25 25 24 24 25 25 24 24 24 24 24 23 23 23 24 23 24 25 23 25
33 35 35 31 30 28 27 26 26 24 22 24 29 29 29 29 30 29 28 29 28 27 26 26 26 26 25 25 25 25 25 25 25 26 25 25 24 24 23 24 24 24 24 25 25 23 25 25 25
33 32 34 32 30 29 27 25 27 25 25 25 29 29 29 29 30 30 29 29 29 27 27 26 26 26 26 26 26 26 26 26 25 26 26 25 24 24 24 23 24 24 25 26 25 26 25 25 25
31 31 30 33 32 31 29 26 25 24 24 24 29 29 29 29 30 30 29 29 28 27 27 26 26 26 25 26 26 26 26 26 26 25 25 24 25 24 24 25 25 25 25 26 27 26 25 25 26
29 28 30 32 32 33 29 26 24 24 24 26 29 30 29 29 30 30 30 30 27 27 27 27 26 26 26 26 25 26 26 26 26 26 25 25 24 25 25 25 25 25 26 26 26 26 26 25 26
27 29 30 31 33 33 30 26 26 25 23 25 28 30 30 30 30 30 30 30 28 27 27 27 26 26 26 26 26 26 26 26 26 26 25 25 25 24 25 25 25 25 26 26 27 26 27 26 27
30 30 31 33 34 33 29 25 25 23 22 21 23 29 30 30 31 31 30 29 27 27 27 27 26 26 26 25 26 25 26 25 25 25 25 25 25 24 25 25 25 26 26 26 26 26 26 26 26
30 30 30 32 35 33 28 27 26 23 24 23 23 29 30 30 30 30 30 28 27 26 27 27 26 26 26 25 26 25 26 26 26 26 26 25 24 24 25 25 25 25 26 25 26 26 26 26 27
30 29 30 31 34 32 27 26 27 27 27 25 22 26 28 30 30 30 29 29 27 26 26 27 26 26 25 25 25 25 26 26 25 25 25 25 25 25 25 25 25 25 25 25 25 26 26 25 26
28 31 33 33 31 29 32 26 26 26 24 25 24 23 25 30 30 29 29 29 27 26 27 27 26 26 25 26 26 25 25 25 26 26 25 25 25 25 25 25 25 25 25 25 25 25 25 25 26
30 32 31 31 30 30 31 30 28 27 24 24 25 22 27 29 31 29 30 30 27 26 26 27 26 25 25 25 26 25 26 26 27 26 25 26 25 26 25 25 25 25 25 25 25 25 25 25 25
33 31 30 29 27 26 29 29 28 25 26 24 26 27 28 28 31 30 30 30 29 26 26 26 25 25 25 25 25 26 26 27 27 26 26 26 26 26 25 25 25 25 25 25 25 25 25 25 25
31 29 24 24 25 25 29 28 28 27 27 27 27 27 27 28 32 30 29 30 29 26 25 25 25 24 25 25 25 25 26 27 27 27 27 26 26 26 26 25 25 25 25 24 24 24 24 25 25
28 27 23 25 24 26 29 28 28 30 29 28 28 27 27 25 27 31 29 30 29 27 26 25 24 24 24 25 25 25 26 27 27 26 27 26 26 26 26 26 25 25 25 25 24 24 24 25 25
28 26 28 26 27 26 28 29 32 32 30 28 29 26 26 26 24 27 30 30 30 28 26 25 24 24 23 24 25 25 25 26 27 27 27 27 27 27 27 26 26 26 25 25 25 25 25 25 25
28 29 26 25 24 24 27 28 28 31 32 30 26 26 25 24 23 22 23 29 29 30 27 26 24 24 23 23 24 24 25 26 26 27 27 27 28 27 27 26 26 26 25 25 25 25 25 25 25
26 26 26 25 25 24 25 26 30 31 30 28 28 27 27 24 23 22 22 24 27 28 29 27 25 24 24 23 23 23 24 25 26 26 27 27 28 27 28 26 26 26 25 25 25 25 25 25 25
25 24 25 23 24 24 24 26 31 31 32 29 31 30 27 24 25 23 23 23 24 27 29 28 27 24 24 23 24 23 23 24 24 26 26 27 27 27 27 27 26 26 25 26 25 25 25 25 25

GFSSGP_925_temp_066.txt.gz
Temp
21 23 22 22 22 22 24 24 23 24 28 30 29 29 28 26 26 23 21 21 23 22 22 22 21 21 22 22 21 21 21 22 21 21 21 21 21 21 20 20 20 20 21 21 21 21 21 21 21
23 22 22 22 22 24 25 25 25 26 28 30 30 29 28 25 24 22 21 22 23 22 22 22 22 22 21 22 21 21 21 21 21 21 21 21 21 21 21 21 21 20 20 21 21 21 21 21 22
23 23 23 23 23 25 24 24 23 28 30 30 28 28 27 23 23 22 22 22 22 22 22 22 22 22 22 22 21 21 21 21 21 21 21 21 21 21 21 21 21 20 20 21 21 21 20 21 22
23 23 23 23 25 23 23 22 22 24 27 27 27 25 26 25 23 23 22 22 22 21 22 22 22 22 21 22 22 21 21 21 21 21 21 21 21 21 21 21 21 21 21 20 21 20 20 21 21
23 22 23 24 25 23 24 25 23 26 25 26 27 25 24 25 25 23 22 22 22 21 21 22 22 21 21 21 21 21 21 21 21 21 21 21 21 21 21 21 21 21 21 21 20 21 20 21 22
23 23 24 25 26 25 25 24 26 26 26 26 26 25 24 25 24 23 22 22 22 22 21 22 22 21 21 21 21 21 21 21 21 21 21 21 21 21 21 21 21 21 21 21 21 20 21 22 22
23 24 24 26 26 25 24 24 25 25 26 27 27 25 24 25 24 22 22 23 23 22 21 21 21 21 21 21 21 21 21 21 21 21 21 21 21 21 21 21 21 21 21 21 20 21 21 22 22
24 24 26 27 26 26 25 26 28 28 27 29 28 25 24 26 23 22 22 21 22 22 22 21 21 21 21 21 21 21 21 21 21 21 21 21 21 21 21 21 21 21 21 21 21 22 22 22 22
27 24 25 26 26 26 26 27 25 25 25 28 27 28 27 25 23 22 21 21 21 21 22 21 21 21 21 21 21 21 21 21 22 21 22 21 21 21 21 21 21 21 21 21 22 22 22 22 22
26 24 27 27 26 27 26 26 26 25 25 28 27 28 27 25 24 23 22 21 21 21 22 22 22 22 21 21 21 21 22 22 23 22 22 22 21 22 22 22 21 22 22 23 23 23 23 23 23
27 27 29 28 28 27 27 26 27 26 25 24 24 27 27 26 25 24 23 22 22 22 22 22 22 22 22 22 22 23 23 23 23 23 22 22 22 22 22 23 23 22 23 24 24 24 24 24 24
26 30 30 29 29 27 26 25 25 25 23 23 25 28 27 27 25 25 24 23 22 22 22 23 23 23 23 23 24 24 23 23 23 23 23 23 22 23 23 23 23 23 23 23 24 25 25 25 24
28 29 31 31 28 28 25 25 26 24 23 24 26 28 27 27 26 26 25 24 23 23 23 23 24 23 24 24 24 23 23 23 23 23 24 24 23 24 23 23 23 23 24 24 24 24 25 25 24
30 31 32 29 27 26 26 26 26 25 24 25 27 28 28 27 27 26 26 25 24 24 23 23 24 24 24 24 24 24 24 24 23 24 24 24 24 24 24 23 24 24 24 24 24 24 24 24 24
30 30 32 29 27 27 27 25 27 24 25 26 25 28 28 27 27 27 27 26 25 25 24 24 24 25 24 25 24 24 24 24 24 24 25 25 24 24 24 24 24 25 24 24 24 25 24 23 23
28 28 28 30 28 27 28 26 23 24 24 25 27 28 28 27 27 27 27 26 25 25 25 24 24 25 25 24 25 25 25 24 25 25 25 25 24 24 24 25 25 25 24 24 24 25 25 25 24
24 26 28 30 30 27 28 25 24 24 25 25 28 28 28 27 27 28 27 26 25 26 25 25 25 25 25 25 25 25 26 26 25 25 25 24 25 24 24 25 24 24 25 25 25 25 26 25 25
25 26 27 28 30 27 27 26 23 24 25 26 27 28 28 28 27 29 27 26 25 26 26 26 26 26 26 25 25 25 25 25 25 25 24 24 24 25 24 24 25 25 25 25 25 26 25 26 25
27 27 27 29 31 27 27 24 23 23 24 24 24 27 28 28 29 29 27 26 25 25 26 26 26 26 26 25 25 25 25 25 25 25 25 24 25 25 25 25 25 25 25 25 26 25 25 25 25
27 26 26 28 29 28 26 24 23 23 24 24 25 26 27 29 29 29 27 26 25 25 26 26 26 26 26 25 25 26 25 25 26 25 25 24 24 24 25 25 25 25 26 26 26 26 26 26 25
26 25 27 27 28 27 25 24 24 23 24 24 25 26 26 28 27 29 27 26 25 25 25 26 26 26 26 25 26 25 25 25 24 24 24 24 25 24 24 25 25 25 25 25 26 26 26 26 26
24 27 29 30 28 27 27 25 23 22 23 23 24 24 23 27 29 28 27 25 25 25 26 26 26 26 26 26 25 25 25 24 24 25 25 25 25 25 25 25 25 25 25 25 25 25 25 26 25
27 29 29 30 28 27 27 25 25 24 23 23 23 25 25 25 29 29 28 26 25 25 25 26 26 26 26 26 26 25 25 25 26 25 25 25 24 24 25 25 25 25 25 25 25 25 25 25 25
30 30 26 24 24 23 26 27 24 25 26 24 23 24 25 27 28 29 28 27 25 25 25 25 25 25 26 26 25 25 25 25 25 25 25 25 25 25 25 25 25 25 25 25 25 24 25 25 25
29 23 22 24 23 24 25 25 25 26 28 25 25 25 28 29 27 29 28 26 26 25 24 24 25 24 25 25 25 25 25 25 25 25 25 25 25 25 25 25 25 25 25 24 25 25 24 24 25
28 24 22 24 23 23 25 27 28 28 28 28 27 27 27 27 27 29 29 27 26 25 25 24 23 24 25 25 25 25 25 25 25 26 26 25 25 26 25 25 25 25 25 25 24 24 24 25 25
26 25 24 23 23 23 24 26 28 31 28 27 27 26 26 27 26 29 29 28 26 25 25 24 23 23 24 25 25 25 25 26 25 25 25 26 26 26 26 25 25 25 25 25 24 24 24 24 24
22 25 25 20 23 24 23 25 25 26 26 26 26 25 26 25 24 29 28 28 27 26 25 25 24 24 24 24 24 25 25 25 26 26 25 25 26 26 26 26 25 25 25 25 24 24 24 24 24
20 20 21 21 21 21 22 23 27 24 25 26 26 26 26 24 24 25 25 26 27 26 25 24 24 24 23 23 23 24 25 25 25 25 26 26 26 26 26 26 26 25 25 25 24 25 25 25 25
22 20 17 18 21 20 21 22 25 25 26 25 26 26 27 25 25 25 25 25 25 26 26 25 24 24 24 23 23 23 25 25 25 25 26 26 26 26 26 27 26 26 25 25 24 25 25 25 25

GFSSGP_925_temp_069.txt.gz
Temp
20 20 21 21 22 22 23 25 24 25 27 28 27 27 26 25 25 23 20 22 23 22 21 21 21 21 21 21 21 21 21 21 21 21 21 21 21 21 20 20 20 20 20 21 21 21 21 21 21
21 21 21 21 23 24 25 25 24 25 26 27 28 27 26 23 22 20 20 22 23 22 21 21 21 21 21 20 21 21 21 21 21 21 21 21 21 21 21 20 20 21 21 21 21 21 21 21 21
22 22 22 22 23 24 24 24 25 26 29 28 26 26 24 22 21 21 21 22 23 22 22 21 21 21 21 21 21 21 21 21 21 21 21 21 21 21 20 21 20 20 21 20 20 20 21 21 21
22 22 22 23 24 24 24 23 23 24 27 25 25 23 24 23 22 21 20 22 22 21 22 21 21 21 22 21 21 21 21 21 21 21 21 20 21 21 20 21 20 20 21 20 20 20 21 21 21
22 21 23 24 25 24 24 24 23 24 25 25 25 22 22 23 22 20 21 22 22 21 21 21 21 21 21 21 21 21 21 21 21 21 20 20 21 20 21 21 21 20 20 20 20 20 21 21 22
22 22 23 25 26 25 23 25 24 24 25 25 24 24 22 22 21 20 21 22 22 22 21 21 21 21 21 21 21 21 20 21 21 21 21 21 21 20 20 21 21 21 21 20 20 20 21 21 21
22 23 24 25 24 23 24 23 24 25 26 26 25 23 22 22 21 21 21 22 22 22 21 21 21 21 21 21 21 21 21 21 21 20 21 21 20 20 21 21 21 21 21 20 20 21 21 21 21
23 23 25 26 25 25 25 25 26 26 26 28 27 23 22 22 21 20 21 21 21 21 22 21 21 21 21 21 21 21 21 21 21 21 21 21 21 21 21 21 21 21 21 20 20 21 22 22 22
26 24 24 26 26 25 25 25 23 25 26 28 26 25 24 21 20 20 20 20 20 21 21 21 21 21 21 21 21 21 21 21 21 21 21 21 21 21 21 21 21 21 21 21 21 22 22 22 22
24 24 26 27 27 25 26 25 24 25 26 26 26 25 22 21 21 20 20 20 20 20 21 21 21 21 21 21 21 21 21 21 21 21 21 21 21 21 21 21 21 21 21 21 22 23 23 22 23
23 24 28 28 28 27 27 26 24 25 23 24 25 24 23 22 21 21 20 20 20 20 21 21 21 21 21 21 22 22 22 22 22 21 22 22 21 21 21 21 22 21 22 23 22 23 23 23 23
25 28 28 29 28 27 26 25 25 26 24 24 24 24 23 23 22 22 21 21 20 21 21 22 22 22 22 22 22 23 23 22 22 22 22 22 22 22 22 22 23 23 23 23 23 23 23 23 23
26 27 28 29 29 27 25 25 25 24 23 23 25 25 24 23 23 23 22 21 21 21 21 22 22 22 22 23 23 23 23 23 22 22 23 23 23 23 23 23 23 23 24 24 24 24 23 23 23
28 28 28 28 27 26 26 25 26 24 23 24 24 26 25 24 24 24 23 22 21 22 22 22 22 23 23 23 23 23 23 23 23 23 23 23 23 23 23 23 23 23 24 24 24 24 24 24 23
27 27 28 26 25 26 26 25 26 25 24 23 26 27 26 25 25 24 23 22 23 23 23 22 22 23 23 24 24 23 23 23 23 24 24 23 24 24 24 24 24 24 24 24 24 24 24 24 24
28 26 26 25 26 27 27 26 25 24 23 24 26 28 27 26 26 25 24 23 23 23 24 23 23 23 24 24 24 24 24 23 24 23 24 24 24 24 24 24 24 24 24 24 24 24 24 24 24
23 25 27 26 25 27 26 25 25 24 25 25 25 27 27 26 26 25 25 24 24 24 24 24 23 23 24 24 24 24 24 24 24 24 24 24 24 24 24 24 24 24 24 25 24 25 25 24 24
25 26 26 27 26 26 25 25 24 24 24 25 26 27 27 26 26 26 25 25 24 24 25 25 24 24 24 24 24 24 24 24 24 24 24 24 24 24 24 24 24 24 24 25 25 24 25 24 24
26 26 26 27 28 26 25 24 23 23 24 25 25 26 27 27 27 27 26 24 24 23 24 24 24 24 24 24 24 24 25 25 24 24 24 24 24 24 24 24 24 24 24 25 25 25 25 24 24
26 26 25 26 28 26 25 23 23 23 24 25 25 27 27 27 26 26 25 24 23 23 24 24 24 25 25 25 25 25 25 25 25 25 24 24 24 24 24 24 24 24 25 25 25 25 24 24 25
25 25 25 25 27 25 24 23 23 23 24 23 24 25 26 27 27 26 25 24 24 23 23 24 25 25 25 25 25 24 24 24 24 24 24 24 24 24 24 25 25 24 25 25 25 25 25 25 25
23 24 26 27 26 26 26 23 24 24 23 23 23 24 24 26 28 27 25 25 24 24 24 25 26 26 26 26 25 25 24 24 24 25 24 24 24 24 24 24 25 25 25 25 25 25 26 26 26
25 26 26 27 26 25 26 23 24 23 23 23 23 24 25 25 28 27 25 25 25 24 24 24 26 25 25 25 25 25 25 25 25 25 24 24 24 24 24 24 24 24 25 25 25 25 25 25 26
28 27 23 21 21 23 25 24 24 23 24 24 24 23 25 26 27 27 26 26 25 24 24 23 25 25 25 25 25 25 25 25 24 25 24 24 25 24 24 24 24 25 25 25 25 25 25 25 25
25 22 22 23 22 23 23 24 25 27 26 26 25 24 25 27 26 26 26 25 25 24 23 23 24 24 25 25 26 25 25 25 25 25 25 25 25 25 24 24 24 24 25 24 24 24 24 25 25
26 23 20 23 21 23 23 25 27 27 25 26 26 26 26 26 26 27 27 26 25 24 23 23 23 23 24 25 26 26 25 25 25 25 25 25 25 25 25 24 24 24 24 24 24 24 24 24 25
25 22 23 19 20 22 22 25 27 25 25 25 25 25 25 25 26 27 27 26 25 25 24 23 23 23 24 25 25 26 25 25 25 25 25 25 25 25 25 25 25 24 24 24 24 24 24 24 24
21 22 22 19 22 24 22 24 23 23 23 24 25 25 25 25 24 25 27 26 26 25 24 24 24 23 25 25 25 26 26 26 25 25 25 25 25 25 25 25 25 25 24 24 24 24 24 24 24
18 17 16 17 18 19 21 22 24 23 22 22 23 24 23 25 25 24 26 27 26 26 25 24 23 23 23 23 24 24 25 26 25 25 25 25 25 25 25 25 25 25 25 24 24 24 24 24 24
18 17 15 16 19 17 19 20 22 21 22 22 21 22 23 25 24 23 24 26 26 25 25 24 24 23 23 23 23 24 25 25 26 25 25 25 25 25 25 25 25 25 25 25 24 24 24 24 24

GFSSGP_925_temp_072.txt.gz
Temp
20 20 21 21 22 22 23 25 23 25 26 26 26 25 24 24 24 22 19 21 23 22 21 21 21 21 21 21 21 22 21 21 21 21 20 20 20 21 20 20 21 21 20 21 21 21 21 21 21
21 20 21 21 22 24 24 25 24 25 26 26 26 26 25 22 21 20 19 21 23 22 22 21 21 21 21 21 21 22 21 21 21 21 21 21 20 20 21 20 20 20 21 21 21 21 21 21 21
21 21 22 22 23 24 24 24 24 24 27 27 25 24 23 21 21 20 20 22 22 22 22 21 21 21 21 21 21 21 21 21 21 21 21 21 21 21 20 20 20 21 20 20 21 20 21 21 22
21 21 21 22 24 25 24 24 23 24 26 25 25 23 22 22 21 20 20 22 22 22 22 21 21 21 21 21 21 21 21 21 21 21 20 21 20 20 20 20 20 20 21 20 20 21 21 21 21
22 21 23 24 25 23 24 24 23 24 24 23 25 22 21 21 21 20 21 22 22 21 21 21 21 21 21 21 21 21 21 21 21 21 21 20 21 21 20 21 20 21 20 20 21 21 21 21 21
22 22 24 24 25 23 24 24 23 24 23 22 23 22 21 20 20 20 21 22 22 21 21 21 21 21 21 21 21 21 21 21 21 21 20 20 20 20 20 21 20 20 20 20 20 21 21 21 21
22 23 23 25 24 23 23 23 23 24 24 23 24 23 21 20 20 20 21 22 21 21 21 21 21 21 21 21 21 21 21 21 21 21 21 21 21 21 21 21 21 21 21 20 20 21 20 20 22
22 23 24 26 25 24 24 24 24 25 26 26 25 22 22 21 20 20 20 21 21 21 21 21 21 21 21 21 21 21 21 21 21 21 21 20 20 20 21 21 21 21 21 20 20 21 21 22 22
25 24 24 26 26 25 25 24 22 23 26 27 26 24 22 20 20 20 20 20 20 21 21 21 22 21 21 21 21 21 21 20 21 20 21 21 21 21 21 21 21 21 20 20 21 22 22 22 22
24 23 25 27 26 25 24 25 25 25 26 24 23 22 21 20 20 21 21 20 20 20 21 21 21 21 21 21 21 21 21 21 21 21 21 21 21 21 20 21 20 21 21 21 22 22 22 22 22
25 23 26 27 27 26 25 25 26 25 24 24 22 21 21 21 21 21 20 20 20 20 20 21 21 21 21 21 21 21 21 21 21 21 21 22 22 21 20 20 21 21 22 22 22 23 23 23 23
24 26 26 28 27 25 25 24 25 25 24 24 23 22 21 21 20 20 20 20 19 20 20 21 21 21 21 21 22 22 22 21 21 21 21 22 22 22 21 21 22 22 22 22 23 23 22 22 23
25 26 27 28 27 27 26 26 23 23 24 25 23 23 22 21 21 21 20 20 19 20 20 21 21 21 22 22 22 22 22 22 22 22 22 22 23 23 23 22 23 22 22 23 23 23 22 22 23
27 27 27 27 25 25 25 25 26 24 23 23 23 23 23 23 22 21 21 20 20 20 21 21 22 22 22 23 23 23 22 22 22 22 22 22 23 23 23 23 23 23 23 23 23 23 23 23 23
26 26 27 24 24 24 26 25 25 24 23 23 23 23 23 24 23 22 22 21 21 21 22 21 22 22 22 23 23 23 23 23 23 23 23 23 23 24 24 23 23 24 24 24 24 23 23 23 24
26 25 25 25 25 25 26 26 25 24 24 23 24 24 24 24 24 23 22 22 22 22 22 22 22 22 23 23 23 23 23 23 23 23 23 23 23 23 23 23 24 24 24 24 24 24 24 24 24
23 25 26 25 26 25 24 26 24 24 24 23 24 24 25 24 24 24 23 23 23 23 23 22 22 23 24 24 23 23 23 23 23 23 23 23 23 23 24 24 24 24 24 24 24 24 24 24 24
24 25 26 26 25 26 24 24 23 23 24 24 25 25 25 24 25 24 23 23 23 23 23 23 23 23 24 24 23 23 23 23 24 24 24 24 23 23 24 24 24 24 24 24 25 24 24 24 24
25 25 25 26 27 26 24 24 23 23 24 24 25 26 25 25 26 24 24 23 23 23 23 23 23 24 23 23 23 23 23 24 24 24 24 24 24 23 24 24 24 24 25 25 24 25 24 24 24
25 25 25 26 26 25 24 22 22 23 24 24 24 25 25 26 25 25 24 24 23 24 24 23 23 24 24 24 24 24 24 24 24 24 24 24 24 24 23 24 24 24 24 25 25 25 25 24 24
24 24 25 26 26 23 24 24 22 23 24 23 23 25 25 26 25 25 24 24 23 22 23 24 24 24 24 24 23 24 24 24 24 24 24 24 24 24 24 24 24 24 24 25 25 25 25 25 24
24 24 26 26 25 24 25 24 23 22 22 22 22 23 23 26 25 25 25 24 23 23 24 24 25 24 24 24 24 25 25 24 25 25 24 24 24 24 24 24 24 24 24 25 25 25 25 25 25
24 24 25 26 25 24 25 23 23 22 22 22 23 23 23 24 26 24 24 24 23 23 23 24 25 24 23 24 24 25 25 25 25 25 24 24 24 24 24 24 24 24 24 24 25 25 25 25 25
25 24 21 20 20 23 25 24 23 22 23 24 24 24 25 25 25 26 25 24 23 23 22 23 24 24 24 24 24 24 25 25 24 24 24 24 24 24 24 24 24 24 24 24 24 24 24 25 25
23 21 20 22 21 23 22 23 23 24 27 25 26 26 25 25 25 25 25 24 24 23 23 23 23 23 24 24 24 24 25 25 25 25 25 25 24 24 24 24 24 24 24 24 24 24 24 24 24
23 22 20 23 20 22 22 24 24 24 24 24 25 25 25 25 25 26 25 25 24 23 23 23 23 23 24 24 25 25 25 25 25 25 25 25 25 25 25 24 24 24 24 24 24 24 24 24 24
23 20 21 18 18 21 21 23 24 24 23 23 23 24 23 24 25 25 25 25 24 24 23 23 23 23 24 24 25 25 25 25 25 25 25 25 25 25 25 25 24 24 24 23 24 23 23 24 24
20 20 21 19 22 24 22 21 20 20 20 21 20 20 21 23 23 24 25 25 25 24 23 23 23 23 24 24 25 25 25 25 25 25 25 25 25 25 25 25 25 24 24 24 24 24 23 23 23
17 16 16 16 17 19 19 20 20 18 19 19 19 19 20 21 23 23 24 25 25 24 24 23 23 23 23 23 23 24 25 25 25 25 25 25 25 25 25 24 24 25 25 25 25 24 24 23 23
16 16 14 17 19 15 17 19 17 18 18 18 19 19 19 20 22 22 22 24 25 25 24 23 23 22 23 23 23 24 25 25 25 25 26 25 25 25 25 24 24 24 25 25 24 24 24 24 24

GFSSGP_925_temp_078.txt.gz
Temp
21 23 23 25 29 28 27 25 26 27 30 30 31 31 30 31 30 28 26 26 25 25 23 22 21 21 20 21 21 21 21 21 21 20 21 21 21 21 21 21 21 21 21 21 21 21 21 21 21
24 24 24 27 29 27 26 28 26 28 31 31 31 31 30 27 28 27 26 26 25 25 25 23 21 21 20 20 21 21 21 21 21 21 21 21 20 21 21 21 21 21 21 21 21 21 21 21 21
24 24 27 26 28 25 27 26 27 29 31 31 30 31 30 27 27 28 26 26 26 26 26 23 21 21 21 21 21 21 21 21 21 21 21 21 21 21 21 21 21 21 21 21 21 21 21 21 21
25 27 28 27 27 23 25 26 29 30 30 30 30 28 27 25 28 27 26 26 26 26 26 22 21 21 21 21 21 21 21 21 21 21 20 21 21 20 21 20 20 21 21 21 21 22 21 21 21
26 29 27 28 24 23 27 27 29 30 30 30 31 28 25 26 26 26 26 27 27 27 25 23 21 21 21 21 21 21 21 21 21 21 20 21 21 20 20 21 21 21 21 21 22 22 22 21 20
27 29 28 27 24 25 28 27 28 29 29 28 29 28 25 25 26 26 27 27 27 27 26 23 21 21 21 21 21 21 21 21 21 21 21 20 20 21 21 21 21 21 21 21 22 22 22 22 20
28 27 28 28 25 25 26 27 26 28 28 28 29 27 25 26 26 26 27 27 27 27 26 25 24 22 21 21 21 20 21 21 21 20 20 20 20 20 20 21 21 21 21 22 22 22 22 22 21
28 28 28 29 29 24 26 24 26 27 26 26 30 28 26 27 26 26 27 27 27 26 26 26 25 23 24 23 21 21 21 20 20 20 20 21 21 21 22 22 21 21 22 22 22 23 22 22 22
30 28 28 29 28 27 25 24 23 23 25 27 30 30 28 26 26 26 27 27 26 26 26 25 26 24 23 23 22 21 21 21 21 21 22 23 24 24 23 22 21 21 22 21 22 22 22 23 22
28 28 29 30 30 28 25 24 24 24 25 29 29 29 26 26 26 27 27 27 27 26 27 26 25 24 24 25 23 23 23 22 24 23 23 24 24 24 23 22 21 21 22 22 22 23 23 25 25
29 30 31 32 31 28 26 25 27 27 28 28 27 27 27 26 27 27 27 27 27 27 27 26 24 24 25 24 25 25 25 24 23 22 24 23 24 25 25 24 24 23 23 25 24 24 25 24 25
28 31 32 32 31 28 27 27 27 29 28 30 28 28 27 28 28 27 28 27 27 26 26 26 24 24 25 24 25 25 25 24 24 23 22 23 24 24 24 25 24 25 25 24 24 25 24 24 24
29 32 32 32 28 29 29 28 28 24 27 28 27 28 28 29 28 27 28 27 27 26 26 26 24 24 24 24 25 25 24 25 24 24 23 24 24 24 24 24 25 25 25 25 24 25 24 25 25
32 32 33 33 32 32 30 29 28 26 27 26 26 28 29 29 29 28 28 27 26 26 25 25 24 23 23 24 24 24 25 24 25 24 23 23 24 24 24 24 24 25 25 25 25 24 25 25 25
32 32 33 32 33 32 32 28 29 27 28 26 27 28 28 29 28 28 27 27 26 25 25 25 24 24 23 23 23 24 24 25 25 25 23 23 23 23 24 24 25 25 24 24 24 25 25 26 26
32 33 34 32 32 31 31 29 29 27 27 27 29 29 29 29 29 28 27 27 26 26 25 24 25 24 23 23 23 25 25 25 25 25 24 23 22 22 23 25 25 24 25 25 26 26 26 26 27
32 34 34 32 33 31 31 29 26 27 27 29 29 30 30 29 29 28 28 27 26 26 25 24 24 24 24 23 24 24 24 25 25 25 25 23 23 23 23 24 25 24 25 26 26 26 26 26 27
33 34 34 33 32 32 32 31 29 25 25 26 27 28 30 30 30 28 28 27 27 26 25 24 24 24 23 23 24 25 25 25 25 25 25 23 24 23 23 24 24 24 26 26 26 26 26 27 27
34 34 34 33 33 33 33 33 29 27 26 24 24 26 30 31 30 29 28 27 27 26 25 24 24 23 23 24 25 25 26 26 25 25 24 23 24 23 23 24 24 24 25 25 25 25 25 27 26
32 33 33 33 33 33 33 33 31 27 29 28 28 28 29 31 30 29 29 28 28 27 25 24 24 23 23 24 25 26 26 26 26 25 24 24 24 23 23 24 24 24 26 24 25 25 27 27 27
32 33 33 33 33 33 33 31 30 30 27 30 30 30 31 31 31 30 29 29 28 27 26 25 24 23 23 25 24 24 24 25 25 25 25 24 24 23 23 23 25 24 24 26 25 25 25 28 26
32 33 32 32 33 33 34 31 31 30 28 26 29 31 32 32 31 31 29 29 29 28 26 25 24 24 23 23 25 25 26 27 27 26 26 25 24 24 23 24 24 23 25 25 25 25 26 26 28
33 32 32 33 33 33 33 34 31 31 30 27 27 28 29 32 32 31 30 29 29 28 27 26 24 24 24 23 24 24 25 27 27 27 25 25 24 24 24 23 24 23 25 24 24 24 24 26 27
32 31 31 32 34 32 35 35 32 31 30 31 28 30 30 30 32 32 30 30 29 29 28 27 25 24 24 23 23 24 25 26 27 26 26 26 26 25 24 24 23 23 25 24 24 24 24 25 25
31 32 31 30 31 33 35 34 30 28 28 28 27 28 31 31 31 32 31 30 30 29 28 27 26 24 24 24 24 24 24 24 25 25 26 27 27 27 24 24 23 24 23 24 24 24 24 24 25
31 32 33 30 32 33 33 32 28 28 27 27 27 28 31 32 33 32 31 31 30 29 28 27 26 25 24 24 24 24 24 25 25 26 27 27 27 27 26 24 24 24 24 24 24 24 24 25 25
31 31 34 34 34 34 33 29 29 28 26 25 23 23 25 31 32 33 32 31 30 29 28 27 27 25 25 25 24 24 24 24 26 26 26 26 26 27 26 25 25 24 24 24 24 25 24 24 24
31 33 31 32 31 31 32 30 30 25 23 22 20 20 22 28 29 33 32 31 30 29 29 28 27 26 26 25 25 25 24 24 24 25 25 25 26 25 26 25 25 24 24 24 24 25 24 24 24
29 30 31 34 33 33 31 30 24 22 20 20 19 19 20 21 25 26 30 31 30 30 29 29 28 27 26 26 25 25 25 25 24 24 24 24 25 25 25 25 25 24 25 25 24 24 25 24 24
27 28 30 31 30 33 33 27 25 24 20 20 19 18 19 19 19 19 19 26 30 29 29 29 29 28 27 26 25 25 25 25 25 24 25 24 24 25 25 25 24 25 25 25 24 25 26 25 25

GFSSGP_925_temp_081.txt.gz
Temp
22 23 26 29 27 29 27 25 30 32 32 35 35 35 33 32 29 28 29 28 26 26 23 22 21 21 21 21 21 21 21 22 21 21 21 21 21 21 21 21 21 21 21 21 21 21 21 21 21
26 26 27 27 30 25 27 25 29 31 33 35 34 33 32 30 31 31 30 29 28 27 26 23 21 21 21 21 21 21 21 21 21 21 21 21 21 21 21 21 21 21 21 21 21 22 21 21 21
25 28 26 26 27 26 27 27 29 32 34 34 33 34 31 30 31 31 29 29 29 28 26 22 22 21 21 21 21 21 21 21 21 21 21 21 21 21 21 21 21 21 21 21 22 22 21 21 21
27 28 28 27 25 24 27 29 31 32 34 34 33 29 29 31 31 30 29 29 29 28 26 22 21 21 21 21 21 21 21 21 21 21 21 21 21 21 21 21 21 21 21 21 22 22 21 21 21
28 27 26 24 24 23 28 29 32 32 33 33 33 30 30 31 30 29 30 30 30 27 25 23 22 21 21 21 21 21 21 21 21 21 21 21 21 21 21 21 21 21 21 21 21 21 21 21 20
24 27 27 29 26 27 29 31 30 30 32 32 31 29 28 29 30 30 30 30 29 29 26 23 22 21 21 21 21 21 21 21 21 21 21 21 21 21 21 21 21 21 21 22 21 21 21 20 20
25 27 29 30 27 27 28 28 29 31 32 31 33 30 29 30 30 30 30 29 30 28 27 25 24 21 21 21 21 21 21 21 21 20 21 21 21 21 21 21 21 21 21 22 21 22 21 21 22
30 29 30 31 30 27 29 26 29 31 29 32 33 30 29 30 30 30 30 28 28 29 28 27 25 25 24 22 21 20 20 20 20 21 22 23 22 22 21 22 21 21 22 22 22 22 22 23 23
32 29 30 30 31 26 28 26 26 27 30 32 33 33 31 30 30 31 30 27 27 29 29 28 26 24 23 23 22 21 22 21 22 22 23 23 24 24 22 22 22 21 22 23 23 23 23 24 25
32 29 31 31 33 29 27 27 26 27 28 30 32 33 30 30 30 31 30 29 30 30 29 28 26 26 24 26 23 24 23 21 24 24 24 24 24 25 24 22 22 23 23 24 24 24 23 24 25
31 30 32 31 32 30 28 25 27 26 28 30 31 31 31 30 31 31 31 31 31 30 29 26 25 25 27 26 25 25 26 25 24 24 26 25 25 25 25 23 24 23 24 25 25 25 25 26 28
32 32 33 31 32 30 28 29 28 28 29 31 32 32 31 31 32 32 32 31 30 30 29 26 25 27 26 27 26 27 27 26 26 25 25 25 27 26 26 26 27 25 25 26 25 26 26 26 27
33 34 34 34 31 32 32 30 30 29 30 31 32 31 31 32 31 31 31 31 30 29 29 28 27 26 26 26 28 27 27 27 25 25 25 26 26 25 26 25 24 27 27 27 26 26 26 26 27
34 34 34 35 31 31 31 30 31 30 30 30 31 31 32 32 31 31 31 31 29 29 29 28 26 25 25 26 26 26 27 27 27 26 25 25 26 25 25 25 26 26 26 26 26 25 26 26 26
35 34 36 36 35 33 32 30 28 29 29 28 31 32 32 33 32 31 31 30 29 29 28 27 26 26 25 25 25 27 27 27 28 25 25 25 25 25 26 26 23 26 25 25 26 26 27 27 27
34 35 35 36 36 35 31 29 30 30 29 28 31 31 32 32 32 31 30 30 29 29 28 27 28 26 26 25 25 27 26 25 26 27 26 25 24 25 25 26 26 26 26 26 26 26 27 28 27
35 35 35 35 35 35 33 28 26 31 31 30 31 32 32 32 32 31 30 30 29 28 27 27 27 26 26 25 26 26 26 26 26 26 26 25 25 24 25 26 26 26 27 27 26 27 27 27 28
35 36 36 35 35 34 29 31 31 28 29 30 30 31 32 32 32 30 30 30 29 28 27 26 27 26 26 25 26 27 26 26 27 26 25 25 25 25 24 26 26 24 26 26 26 26 26 26 28
38 37 31 35 37 34 34 31 31 27 26 26 30 31 32 32 32 31 30 30 29 28 27 26 26 25 25 25 27 28 28 27 27 26 25 25 25 25 25 26 25 25 26 25 26 26 27 28 28
36 37 36 36 36 33 27 32 31 28 26 24 25 30 31 32 31 31 30 30 30 28 27 26 26 25 25 26 27 28 28 28 27 26 25 26 25 24 25 26 25 25 25 26 26 25 27 29 28
35 37 36 35 35 36 36 34 32 30 28 24 23 27 30 31 31 30 30 30 30 29 27 26 26 24 25 26 26 26 26 27 27 27 27 26 25 25 25 24 25 25 26 26 26 26 26 26 28
35 37 37 36 35 35 37 30 33 31 31 25 26 27 31 30 31 31 30 30 31 29 28 26 25 25 24 25 26 25 27 28 29 28 27 26 26 25 25 25 25 25 26 25 26 27 26 26 27
35 37 35 36 36 37 36 32 25 31 31 26 24 27 29 30 31 31 31 30 31 30 28 27 25 25 25 25 25 26 26 27 28 27 26 25 25 25 25 25 25 24 25 26 26 26 26 27 27
36 36 35 35 36 35 36 35 25 30 31 29 26 30 29 28 32 30 31 30 32 30 29 28 26 25 25 25 24 25 27 27 27 28 27 27 26 26 25 25 25 25 25 25 25 25 25 25 26
35 34 32 32 33 34 37 35 28 32 32 31 29 30 25 29 30 32 29 30 32 31 30 29 26 25 25 25 25 25 25 26 26 26 28 27 26 28 25 25 24 25 24 25 25 25 25 25 26
33 34 34 31 34 35 38 34 31 31 30 28 29 29 32 32 30 29 32 32 31 31 30 29 28 26 25 25 25 25 25 25 26 27 27 28 27 28 25 25 25 25 25 25 25 25 25 26 25
33 33 37 36 37 37 35 30 30 30 28 25 24 27 30 34 32 32 32 31 30 31 31 30 29 27 26 26 25 25 25 25 27 27 27 27 27 25 27 27 26 25 25 25 25 25 26 25 25
32 35 34 35 33 34 34 31 32 29 25 23 21 21 24 32 24 21 27 31 30 30 31 30 29 28 27 26 26 26 25 25 25 26 26 27 28 27 25 27 26 26 26 25 25 26 26 25 26
32 32 35 36 36 36 32 31 30 26 23 21 20 20 20 21 21 21 23 25 26 31 31 31 30 29 28 27 27 27 26 26 25 26 26 26 26 26 27 26 27 26 26 26 25 25 25 25 25
33 33 34 33 33 36 35 28 29 26 24 21 19 19 20 20 20 19 19 19 20 23 25 31 31 30 29 28 27 27 27 27 27 26 26 26 25 25 26 26 25 25 26 26 26 26 27 26 26

GFSSGP_925_temp_084.txt.gz
Temp
23 23 24 26 25 23 27 27 29 32 34 36 36 34 32 31 31 26 28 27 26 24 22 21 21 21 21 21 21 21 20 20 21 21 21 21 21 21 21 21 21 21 21 21 21 21 21 21 21
25 26 28 27 25 24 26 26 29 31 35 35 34 32 32 29 30 29 28 27 26 25 24 22 22 21 21 21 21 21 21 21 21 21 21 21 21 21 21 21 21 21 21 21 21 21 21 21 21
24 28 25 25 25 26 25 27 29 33 35 35 31 32 32 30 31 30 28 28 27 26 24 21 22 21 21 21 21 21 21 21 21 21 21 21 21 21 21 21 21 21 22 22 21 21 21 21 22
28 27 27 24 24 25 25 28 33 34 34 33 32 31 32 32 31 30 29 28 27 25 23 21 21 21 21 21 21 21 21 21 21 21 21 21 21 21 21 21 21 21 21 22 22 21 21 21 22
28 26 24 24 24 23 24 32 32 33 32 32 32 31 31 31 31 31 29 27 27 25 23 22 21 21 21 21 21 21 21 21 21 21 21 21 21 21 21 21 21 21 22 21 21 21 21 22 23
24 24 26 26 26 24 29 30 31 31 32 31 32 31 31 31 31 30 29 27 27 26 24 22 21 21 21 21 21 21 21 21 21 21 21 21 21 21 21 21 21 21 21 21 21 21 21 23 23
26 26 27 29 27 26 28 28 31 31 32 31 32 29 31 32 31 30 29 28 28 26 25 23 22 21 21 21 21 20 21 21 21 22 21 21 21 21 21 21 21 21 21 21 22 23 23 23 24
28 27 28 30 28 26 29 28 27 30 30 32 33 29 30 32 31 30 28 25 28 28 26 25 23 22 22 21 21 21 21 21 22 22 22 22 21 21 21 21 21 21 22 22 23 23 24 25 25
29 27 29 28 30 27 29 27 25 29 32 31 33 32 32 32 31 29 30 26 28 28 27 26 24 23 23 22 21 21 22 23 23 23 22 22 23 22 22 22 22 22 23 23 23 24 24 24 25
24 28 29 32 31 29 29 29 26 29 32 31 33 33 32 32 29 29 29 29 30 27 25 25 24 24 24 24 23 22 23 22 23 23 23 24 24 24 23 23 23 24 24 24 23 23 24 24 24
28 31 32 31 32 30 28 27 27 30 31 31 31 31 32 33 32 31 30 30 30 27 26 26 25 25 26 25 24 23 24 24 24 24 24 24 25 25 24 24 23 23 23 23 23 24 24 24 25
25 33 34 32 32 30 28 27 27 27 28 33 32 32 32 33 33 31 30 30 27 27 27 27 25 25 25 25 24 24 25 25 25 25 26 25 25 25 24 23 24 25 23 24 24 25 26 27 27
29 33 34 32 32 31 31 29 27 25 23 32 32 32 32 33 33 33 32 32 28 27 27 27 25 26 26 26 25 25 26 26 26 25 25 25 26 25 24 26 25 24 24 24 24 24 26 26 27
33 34 34 34 32 32 32 28 29 25 23 30 32 32 32 33 33 33 32 32 31 28 27 27 26 26 26 26 27 27 27 26 26 26 25 25 25 25 22 24 23 26 26 26 27 26 26 27 27
34 32 34 34 33 33 32 29 29 30 28 30 32 32 33 33 33 33 32 31 31 30 28 27 26 26 25 26 27 26 27 26 26 26 25 25 25 25 24 25 25 25 26 25 25 25 26 26 26
34 34 34 35 34 33 31 28 29 29 30 31 31 32 33 33 32 32 32 31 30 29 28 28 28 26 26 26 26 26 26 26 26 25 25 25 25 25 24 24 26 25 26 25 25 26 26 27 27
35 34 34 35 35 34 32 25 25 30 30 31 31 32 33 33 32 32 31 31 30 29 28 28 27 27 26 26 26 25 25 26 26 26 25 25 25 25 25 25 26 25 25 26 26 26 27 27 27
34 35 34 35 36 34 31 29 26 29 30 30 30 31 33 33 32 32 31 31 29 28 27 28 27 27 26 26 26 26 25 25 26 25 25 25 25 25 25 25 26 26 25 25 26 27 27 27 28
37 37 32 32 30 34 33 28 29 30 30 29 30 30 32 33 32 31 31 31 29 28 27 27 27 26 25 26 26 27 27 26 25 25 25 25 25 25 25 25 25 26 25 26 26 26 26 27 27
36 36 35 33 32 26 31 29 29 30 30 28 30 30 32 33 32 31 31 31 30 28 27 27 26 26 25 26 26 27 27 27 26 26 25 25 25 25 25 25 25 25 25 26 26 26 26 28 28
36 36 34 33 29 24 25 27 23 28 28 25 24 25 30 33 31 31 30 31 30 28 27 26 25 25 25 26 26 27 27 27 26 26 25 26 26 25 25 25 25 25 26 25 26 26 27 26 28
35 38 34 34 33 29 26 29 27 29 28 26 25 25 24 31 31 31 29 31 30 28 27 26 25 25 25 25 26 27 27 27 27 27 26 26 26 26 25 25 25 24 25 26 26 27 27 26 27
36 38 35 37 36 36 36 35 28 27 26 25 22 24 24 25 31 30 30 30 30 28 27 26 25 24 25 25 26 27 26 26 26 26 26 25 26 26 25 25 25 25 24 25 25 26 26 26 26
37 37 37 36 36 34 36 35 28 27 23 26 26 24 21 22 30 29 30 30 30 29 28 26 25 24 25 25 25 25 26 25 25 25 26 25 25 25 25 25 25 24 25 25 25 26 26 26 26
35 35 34 33 34 34 38 36 28 24 25 24 28 24 21 21 23 27 30 30 30 29 28 26 25 25 25 25 25 25 25 25 25 26 26 26 26 26 25 25 25 24 24 24 25 25 25 25 26
35 35 34 32 33 34 37 35 28 25 25 30 32 27 25 26 23 23 31 29 30 30 29 27 25 25 24 25 25 25 25 25 26 26 27 27 26 24 25 25 25 25 25 25 25 25 25 26 26
34 34 37 36 36 35 33 30 30 29 27 27 27 27 27 26 27 26 29 29 31 30 29 28 26 25 25 25 25 25 25 25 26 27 27 27 26 25 25 24 25 25 25 25 24 25 25 25 25
34 36 34 35 32 34 33 30 30 29 25 24 23 23 22 21 22 21 21 21 31 30 30 29 26 26 25 26 25 25 25 25 25 26 27 27 26 26 25 24 25 26 25 25 25 25 25 25 25
33 32 34 35 36 34 31 28 31 28 25 22 21 21 21 20 20 20 19 19 23 27 29 30 28 27 26 26 26 26 25 25 25 25 26 27 26 25 25 26 25 26 26 26 25 25 25 25 25
34 33 34 33 33 35 28 26 28 26 23 22 20 20 21 20 19 19 19 18 17 18 21 24 26 29 28 27 27 26 26 26 25 25 25 26 26 26 26 25 26 26 25 26 25 25 26 25 25

GFSSGP_925_temp_087.txt.gz
Temp
24 23 23 24 23 23 24 24 25 31 31 32 32 29 29 30 28 24 24 23 22 21 21 21 21 21 21 21 21 21 21 21 21 21 21 21 21 22 21 21 21 21 21 21 21 21 21 21 21
24 23 24 23 24 23 25 24 26 29 31 31 30 29 27 26 26 25 24 23 22 21 21 21 21 21 21 21 21 21 21 21 21 21 21 21 21 21 21 21 21 21 21 21 21 21 21 22 22
24 24 24 23 24 24 25 26 26 30 32 32 30 30 28 26 27 26 24 23 23 22 22 21 21 21 21 21 21 21 21 21 21 21 21 21 21 21 21 21 21 21 21 21 21 21 21 22 23
23 25 24 23 23 25 26 26 27 30 31 31 30 28 28 28 27 26 25 24 23 23 22 21 21 21 21 21 21 21 21 21 21 21 22 21 21 21 21 21 21 21 21 21 21 21 21 22 22
25 23 23 24 24 23 24 26 31 30 31 30 30 28 28 28 27 27 26 24 23 23 22 21 21 21 21 21 21 21 21 21 21 21 21 21 21 21 21 21 21 21 21 21 21 22 23 23 23
24 23 25 25 24 23 24 27 30 30 30 30 29 29 28 28 27 26 25 23 24 22 22 21 21 21 21 21 21 21 21 21 21 21 21 21 21 21 21 21 21 21 22 21 21 23 23 23 23
25 24 26 26 25 24 27 26 28 30 30 29 30 27 28 28 27 26 25 24 23 22 22 21 21 21 21 21 21 21 21 21 21 21 21 21 21 21 21 21 21 21 21 21 23 24 24 24 24
26 25 25 27 25 25 28 27 27 30 29 31 30 27 27 28 27 26 25 24 24 23 23 22 22 21 21 21 21 21 21 21 21 21 21 21 21 21 21 22 22 21 21 21 23 24 24 24 24
26 25 25 27 27 25 28 27 26 28 30 31 31 30 29 27 27 26 27 25 24 23 22 23 22 22 22 21 21 21 22 22 22 22 22 22 22 22 22 23 23 22 23 23 24 25 24 24 25
24 25 24 27 29 27 28 27 26 28 28 30 30 31 29 28 26 25 25 26 25 24 24 23 23 22 22 22 23 23 23 22 22 22 22 22 22 23 23 23 22 22 22 23 23 25 25 25 24
24 26 29 27 29 30 28 26 27 29 29 29 29 30 28 28 28 27 26 26 25 25 24 24 24 23 23 24 24 24 23 23 23 23 23 22 23 23 23 23 24 23 23 24 23 23 24 25 25
25 28 29 30 29 28 28 28 27 27 26 30 31 30 28 28 28 28 27 25 24 25 24 24 24 24 24 23 24 24 24 24 24 24 24 24 24 23 24 23 23 24 23 24 24 25 24 24 25
27 27 30 30 29 29 28 28 26 23 25 29 31 31 27 28 28 29 27 25 26 25 24 25 25 25 24 24 24 25 25 25 25 25 24 24 23 23 24 24 24 23 23 25 26 25 26 26 27
29 30 30 30 28 30 28 27 27 24 24 26 31 29 29 30 30 29 27 26 25 25 25 26 26 25 25 25 25 25 24 26 25 25 24 24 24 24 24 24 24 24 24 25 25 26 26 26 27
28 30 32 31 28 29 25 24 26 25 25 26 31 30 30 31 30 30 27 26 26 26 26 26 25 26 26 26 25 25 25 25 25 25 25 24 25 25 25 24 24 24 24 25 25 25 25 26 27
32 29 28 31 30 28 29 24 27 26 26 28 30 30 30 31 31 30 29 27 26 26 26 26 26 26 26 26 26 26 26 25 25 25 25 25 25 25 25 25 25 25 25 26 25 25 26 26 26
31 28 30 32 33 31 28 24 24 24 28 28 30 31 30 30 30 30 30 28 27 27 27 26 26 26 26 26 26 26 26 25 25 25 25 25 24 24 25 25 24 25 25 25 26 26 26 26 27
29 30 30 30 31 30 26 25 25 27 25 29 29 30 31 30 29 30 30 29 27 27 27 27 26 26 26 25 25 26 26 25 25 25 25 25 25 24 25 24 25 25 26 26 26 26 27 27 27
32 32 30 30 26 29 25 25 25 26 28 28 29 30 31 30 30 30 29 28 27 28 27 26 26 26 26 25 24 25 26 25 25 25 25 25 25 25 24 25 25 26 26 26 26 26 26 26 27
31 32 31 29 25 25 21 24 26 27 27 28 29 29 30 30 29 29 29 28 27 27 27 27 26 26 26 26 25 25 26 25 25 25 25 25 25 24 25 25 25 26 25 25 25 26 26 26 27
31 32 30 31 27 23 22 23 25 27 27 25 24 28 27 30 30 27 29 27 27 27 27 26 26 26 26 26 25 26 26 25 25 25 25 25 25 25 25 25 25 25 25 26 25 25 26 26 27
29 33 34 28 29 26 26 25 23 24 26 25 25 25 24 26 30 28 28 28 27 26 27 26 26 26 26 25 26 26 26 25 25 25 26 25 26 25 25 25 24 25 25 25 26 25 26 27 26
31 34 33 33 30 29 27 25 24 24 25 25 24 24 23 24 23 29 28 28 27 26 26 26 25 26 26 25 25 26 26 26 25 26 25 25 26 26 25 24 24 25 25 25 25 25 26 26 26
34 33 33 32 29 26 30 26 24 25 25 25 24 25 23 23 22 22 29 29 26 26 26 25 25 25 25 25 25 26 26 26 25 25 25 26 25 25 25 25 24 24 25 25 25 25 26 26 26
32 30 28 27 28 28 30 27 24 24 26 25 25 25 22 22 22 21 21 28 27 26 25 25 25 24 25 25 25 25 25 25 25 25 25 25 25 25 25 25 24 24 25 25 25 25 25 25 26
29 29 26 28 28 28 31 24 23 26 25 25 24 24 23 21 22 21 22 25 27 27 25 25 24 24 25 25 25 25 25 25 25 25 25 25 26 25 25 25 24 24 24 25 24 25 25 25 25
30 29 30 29 31 29 25 24 24 25 25 25 23 23 22 22 21 21 22 22 25 27 26 25 24 24 24 24 25 25 25 25 25 26 26 26 26 26 25 25 24 24 24 24 24 24 25 25 25
30 31 29 27 28 29 24 24 24 24 21 22 21 21 21 21 23 22 22 21 21 24 26 25 25 24 25 24 24 25 25 25 25 26 26 26 26 25 26 25 24 25 25 25 25 25 25 25 25
29 29 29 28 28 27 25 24 24 22 22 20 20 20 20 19 20 21 21 19 20 21 23 25 24 24 25 25 25 25 25 25 25 26 26 26 26 26 25 25 25 25 25 25 25 25 25 25 25
32 30 29 25 27 27 25 22 22 21 21 20 20 20 19 19 18 19 19 19 20 19 18 20 20 22 23 25 25 25 25 25 25 25 26 25 25 26 26 25 26 25 25 25 25 25 25 25 25

GFSSGP_925_temp_090.txt.gz
Temp
21 23 22 22 23 23 24 24 24 26 29 30 29 27 26 26 25 23 22 21 22 21 22 21 21 20 21 21 21 20 20 21 21 21 21 21 21 21 21 21 21 21 21 21 21 21 21 21 21
23 22 22 22 24 23 24 25 27 28 29 29 29 28 27 25 25 22 21 21 22 21 21 21 21 21 21 21 21 21 20 20 21 22 21 21 21 21 21 21 21 21 21 21 21 21 21 21 21
23 23 22 23 23 24 25 25 25 29 30 29 27 27 26 23 23 22 21 22 22 21 21 21 21 21 21 21 21 21 21 20 20 21 21 21 21 21 21 21 21 21 21 21 21 21 21 21 21
23 23 23 23 23 24 25 26 28 29 29 29 27 25 26 26 24 22 22 22 21 21 21 21 21 21 21 21 21 21 21 21 21 21 21 21 21 21 21 21 21 21 21 21 21 21 21 22 22
23 22 23 23 23 23 25 26 29 29 28 28 27 25 25 25 24 23 23 22 22 21 21 21 21 21 21 21 21 21 21 21 21 21 21 21 21 21 21 21 21 21 21 21 21 23 22 22 22
23 22 23 24 24 24 25 26 28 28 28 27 26 25 24 24 23 23 22 22 23 22 21 21 21 21 21 21 21 21 20 21 21 21 21 21 21 21 21 21 21 21 21 21 21 22 22 22 22
23 22 25 24 25 24 25 27 28 28 27 27 27 25 24 25 24 22 22 22 22 22 22 21 21 21 21 20 20 20 21 21 21 21 21 21 21 21 21 21 21 21 21 21 22 22 23 23 23
24 23 25 26 25 26 27 27 29 28 27 28 27 24 24 25 23 22 22 22 22 21 22 21 21 21 21 21 20 20 21 21 20 20 21 21 21 21 21 21 21 21 21 21 23 23 23 23 23
26 24 24 26 24 24 26 28 27 29 29 29 29 26 26 25 23 22 22 21 21 21 22 21 22 22 22 21 21 21 21 21 21 21 21 21 21 21 22 22 21 21 23 23 23 24 24 23 23
24 24 24 27 26 26 28 28 27 28 29 28 27 26 25 24 24 23 22 21 21 21 22 22 22 22 22 21 21 22 22 22 22 21 21 22 22 22 22 22 23 23 24 24 24 24 24 23 23
24 24 25 26 29 28 27 26 27 27 27 27 25 25 26 26 25 24 23 23 23 22 22 22 22 23 22 21 22 22 22 22 22 22 21 22 22 22 22 22 23 24 24 25 25 25 24 23 24
26 25 26 26 29 28 27 27 26 27 27 28 27 26 26 25 25 25 24 23 23 23 23 22 23 22 22 22 22 23 23 22 23 22 22 22 22 23 23 23 23 24 24 24 24 24 25 24 24
26 26 28 27 27 28 29 27 26 26 28 29 28 27 26 26 26 26 25 24 24 23 23 23 23 23 24 23 23 23 23 23 24 23 23 23 23 24 23 23 23 24 24 24 25 25 25 25 26
27 28 29 27 26 25 28 26 27 25 27 28 28 27 27 27 26 25 24 23 24 24 24 23 24 24 24 24 24 24 23 24 24 24 24 24 24 24 24 24 24 24 24 25 25 25 25 26 25
30 26 25 27 28 28 27 26 26 27 25 29 28 27 27 27 27 24 25 24 24 25 25 24 24 24 24 25 25 24 24 24 24 24 24 24 24 24 24 24 24 25 24 25 25 25 26 26 26
28 28 25 26 26 27 27 24 25 26 25 26 30 29 28 29 27 25 25 25 25 25 25 25 25 25 25 25 25 25 25 25 24 24 24 24 24 24 24 24 24 24 24 25 25 26 26 26 26
29 26 27 25 29 26 26 23 23 25 24 27 29 30 28 28 26 26 26 25 25 25 25 25 25 25 25 25 25 25 25 25 24 24 24 24 24 24 24 24 24 25 25 25 25 26 26 26 26
27 28 27 27 27 26 24 24 24 24 25 27 29 29 28 28 27 26 25 25 25 25 25 25 26 25 25 25 25 25 25 25 25 25 25 24 24 25 24 25 25 24 25 25 25 25 26 26 26
28 28 29 26 26 23 23 25 24 24 24 23 27 29 27 28 27 26 26 25 25 25 25 26 26 25 25 25 25 25 25 25 25 25 25 25 24 24 24 24 25 25 25 25 25 25 26 27 26
28 29 28 25 23 23 22 23 24 24 24 26 28 28 28 28 28 26 26 25 25 26 26 26 26 26 26 25 25 25 25 25 25 25 25 25 25 24 24 24 25 25 25 25 25 25 26 26 26
27 28 28 28 23 22 22 22 23 25 23 23 26 26 29 28 27 25 25 26 25 25 26 26 27 26 26 25 25 25 24 25 25 25 25 25 25 25 25 25 25 25 25 25 25 25 25 26 26
25 30 31 25 25 23 22 23 23 24 25 25 26 24 24 29 28 26 25 25 25 26 26 26 26 26 26 26 25 25 25 25 25 25 25 25 25 25 25 25 25 25 25 25 25 25 25 26 25
27 31 31 28 26 23 24 25 24 23 24 24 24 24 24 24 25 27 26 25 26 26 26 26 26 26 26 25 26 25 25 25 25 25 25 25 25 25 25 24 24 25 25 25 25 25 25 25 26
31 31 31 27 23 25 24 24 23 23 25 25 23 24 24 24 23 23 25 26 25 25 25 26 26 26 26 25 25 25 25 25 25 25 25 25 25 25 24 24 24 24 25 25 25 25 25 25 26
29 26 24 25 23 24 27 25 26 25 26 26 25 25 24 24 22 22 22 25 25 25 24 25 25 25 25 25 25 24 25 25 26 26 25 25 25 24 24 24 24 24 25 25 25 25 25 25 25
27 27 23 26 25 28 25 24 25 26 26 26 26 26 24 24 22 22 21 22 24 24 24 24 25 25 25 25 25 24 25 25 25 25 25 25 25 25 25 25 24 24 24 25 24 25 25 25 25
28 26 26 25 28 25 23 23 25 23 23 23 22 23 23 24 23 22 20 21 23 24 24 24 24 25 25 25 25 24 25 25 26 25 26 25 25 25 25 25 24 24 24 24 24 24 24 25 25
28 28 27 23 26 27 23 23 22 22 22 22 22 20 20 21 22 21 20 21 22 22 24 24 24 25 25 25 25 25 25 25 26 25 25 25 25 25 25 25 25 24 24 24 24 24 24 25 25
26 26 25 24 23 25 24 23 22 21 20 20 20 20 20 19 20 21 21 20 20 21 22 23 24 24 23 24 24 25 25 25 25 25 25 25 26 25 25 25 25 25 24 24 24 24 24 24 25
27 26 24 23 26 23 23 22 21 20 20 20 20 19 19 18 19 20 19 19 20 21 20 20 21 24 23 23 24 25 25 25 25 25 25 25 25 25 25 25 25 24 25 24 24 24 25 25 25

GFSSGP_925_temp_093.txt.gz
Temp
20 21 21 21 22 23 23 24 24 26 26 27 26 27 26 25 25 23 21 21 22 22 21 21 21 21 20 20 20 21 21 21 21 21 21 21 21 21 21 21 21 21 21 21 21 21 21 21 21
21 21 21 21 23 23 24 25 25 26 28 26 27 27 25 23 23 20 20 20 22 21 21 21 21 20 20 20 21 20 21 21 21 21 21 21 21 21 21 21 21 21 21 21 21 21 20 20 20
22 22 21 22 22 24 24 25 26 28 28 28 26 26 24 22 21 20 21 21 22 21 21 21 21 20 21 21 21 21 20 21 21 21 21 21 21 21 21 21 21 21 21 21 21 21 21 21 21
22 22 22 23 23 24 25 26 28 29 29 28 25 23 24 23 22 21 20 21 22 21 21 21 21 21 21 21 21 21 21 20 21 21 21 21 21 21 21 21 21 21 21 21 21 21 21 21 21
23 22 22 23 23 23 25 26 27 28 27 27 26 24 23 23 22 21 21 22 21 21 21 21 21 21 21 21 21 21 21 21 21 21 21 21 21 21 21 21 21 21 21 21 21 21 21 21 21
22 21 22 24 24 25 24 25 24 26 26 25 25 24 22 21 21 21 22 22 22 21 21 21 21 21 21 21 21 21 21 21 21 21 21 21 21 21 21 21 21 21 21 21 22 22 21 22 21
23 22 24 24 25 25 25 26 25 26 26 25 26 23 21 22 21 21 22 22 21 21 21 21 22 21 21 21 21 21 21 21 21 21 21 21 21 21 21 21 21 21 21 21 22 22 22 22 22
24 23 25 25 24 24 26 27 27 26 26 27 27 23 21 22 21 21 21 21 21 21 21 21 21 21 21 20 21 21 21 21 21 21 21 21 21 21 21 21 21 21 21 21 21 22 22 22 22
24 23 24 25 23 25 27 27 27 27 26 27 27 25 23 22 21 21 20 20 20 20 21 21 21 20 20 21 21 20 20 20 20 21 21 22 22 21 21 21 21 21 21 21 22 22 22 22 22
24 24 24 25 24 24 27 27 26 26 26 25 25 24 23 21 21 20 20 20 20 20 21 21 21 21 21 21 21 21 21 21 20 20 21 22 22 22 21 22 21 21 22 23 23 23 23 23 23
24 24 25 25 25 26 27 25 28 26 24 24 24 23 23 22 22 21 21 20 21 21 21 21 21 21 21 21 22 21 22 22 21 21 21 21 21 22 23 23 23 23 22 23 24 24 24 23 23
25 23 23 26 25 26 27 26 28 27 26 26 25 24 23 23 22 22 21 21 22 21 22 21 21 22 22 22 22 22 22 22 22 21 21 22 22 22 23 23 23 24 24 24 24 23 24 24 24
25 26 27 24 26 27 27 27 27 26 26 25 25 24 23 23 23 23 22 22 22 22 22 22 22 22 23 23 22 22 22 22 22 23 23 22 23 23 23 23 23 23 23 24 24 24 24 25 25
27 25 26 25 24 25 26 24 26 25 26 25 25 24 24 24 24 23 23 22 22 22 23 22 23 23 23 23 23 23 22 23 23 23 24 23 23 23 23 24 24 24 24 24 24 25 25 25 26
28 26 25 24 23 27 26 25 24 26 26 25 25 25 25 25 25 24 23 23 23 23 23 23 23 23 23 24 24 23 23 24 24 24 23 23 23 23 23 23 24 24 24 24 25 25 25 25 25
28 26 25 27 27 26 25 24 25 25 26 26 26 26 26 25 25 24 23 23 23 24 24 23 23 24 24 24 24 24 24 24 24 24 24 24 24 24 24 24 24 24 24 24 24 25 25 25 25
27 26 25 26 25 27 25 23 24 25 25 26 27 27 26 26 25 24 24 24 24 24 24 24 24 24 24 24 24 24 24 24 24 24 24 24 24 24 24 24 24 24 24 25 25 25 25 26 26
26 27 26 27 26 26 24 23 23 25 24 26 27 27 26 26 24 25 24 24 24 25 24 24 24 24 25 24 24 24 24 24 24 24 24 24 24 24 24 24 24 24 25 24 25 25 26 25 26
27 28 28 26 24 23 23 23 24 24 24 24 27 27 27 26 25 25 24 24 24 25 24 24 24 25 25 24 24 24 24 24 24 24 24 24 24 24 24 24 24 24 24 25 25 25 25 25 25
27 28 24 23 23 23 22 23 23 23 24 23 26 27 27 26 25 25 24 24 24 25 24 24 25 25 25 25 24 24 24 24 25 24 24 24 24 24 24 24 25 24 24 25 25 25 25 25 25
26 27 26 23 23 23 22 22 22 24 24 23 23 25 28 26 24 24 24 24 24 24 24 25 25 25 25 25 25 24 24 24 24 24 24 24 24 24 24 24 24 24 24 25 25 25 25 25 25
26 27 29 24 23 23 24 23 23 23 24 23 24 24 27 26 25 25 24 24 23 24 25 25 25 25 26 25 25 25 25 24 25 25 24 24 24 24 24 24 24 25 24 25 25 25 25 25 25
26 28 29 25 23 21 22 23 24 23 24 23 22 24 24 27 26 25 25 24 24 24 25 25 25 25 26 25 25 25 25 25 25 25 25 24 24 24 24 24 24 24 24 25 25 25 25 25 25
27 29 25 22 22 23 22 23 24 23 25 24 24 25 23 25 25 25 25 25 24 24 24 25 25 25 25 25 25 25 25 25 24 25 25 25 25 24 24 24 24 24 24 24 25 25 25 25 25
27 25 24 22 22 23 24 23 26 25 25 25 25 24 23 23 23 23 24 25 24 23 24 24 25 25 25 25 25 25 25 25 25 25 25 25 24 24 24 24 24 24 24 24 24 24 25 25 25
24 23 22 24 22 24 23 24 25 23 25 26 26 24 22 21 22 21 20 23 24 23 23 24 24 25 25 25 25 25 25 25 24 25 25 25 25 25 24 24 24 24 24 24 24 24 24 24 24
26 24 25 25 24 23 23 22 24 23 22 23 23 23 23 22 22 22 21 22 23 24 23 24 24 25 25 25 24 24 24 24 25 25 25 25 25 25 24 24 24 24 24 24 24 24 24 24 24
26 25 25 21 23 25 23 22 23 22 21 20 20 20 20 21 21 20 20 21 21 22 23 23 23 23 24 24 24 24 24 24 25 25 25 25 25 25 25 24 24 24 24 24 24 24 24 24 24
25 25 22 22 21 23 23 22 21 21 22 21 20 20 19 19 20 20 20 20 20 21 22 23 23 23 24 24 24 24 24 24 24 25 25 25 25 25 25 25 25 24 24 24 24 24 24 24 24
25 24 23 22 25 21 23 22 21 20 19 19 20 19 19 19 19 19 19 19 19 20 21 22 22 23 23 23 24 24 24 24 24 24 25 25 25 25 24 24 24 24 24 24 24 24 24 24 24

GFSSGP_925_temp_096.txt.gz
Temp
20 21 21 21 23 22 23 24 24 24 24 25 25 25 24 23 23 22 20 21 22 22 21 21 21 21 21 21 21 21 21 21 21 21 21 21 21 21 21 21 21 21 21 21 21 21 21 21 20
21 21 21 21 23 23 23 25 25 26 26 25 26 25 24 22 21 18 19 20 22 21 21 21 21 20 20 21 21 21 20 21 22 21 20 21 21 21 21 21 21 21 21 21 21 21 20 21 20
22 22 21 22 22 24 24 25 26 26 26 25 25 25 23 22 20 19 20 21 22 21 21 21 21 21 21 21 20 21 20 20 21 21 21 21 21 21 21 21 21 21 20 20 20 20 20 21 20
22 21 21 23 23 24 25 25 26 26 27 25 25 23 22 22 21 20 20 21 22 21 21 21 21 21 21 20 20 20 21 21 21 21 21 21 21 21 21 21 21 21 21 21 21 21 21 21 21
22 21 22 23 23 24 26 26 26 26 27 26 25 22 21 21 21 20 20 21 21 21 21 21 21 21 21 21 20 20 20 21 21 21 21 21 21 21 21 21 21 21 21 21 21 21 21 21 21
22 22 22 24 24 24 25 24 24 25 25 24 23 22 21 20 20 20 21 21 21 21 21 21 21 21 21 21 21 21 21 21 21 21 21 21 21 21 21 21 21 21 21 21 21 21 21 21 21
22 22 24 24 24 23 25 25 25 25 24 24 25 21 21 20 20 20 21 21 21 21 21 21 21 21 21 21 21 21 20 20 21 21 21 21 22 21 21 21 21 21 21 21 21 21 21 21 21
23 22 25 24 25 24 25 26 25 25 24 26 24 21 21 20 20 20 20 20 20 21 21 21 21 21 21 21 21 21 21 21 21 21 21 21 21 21 21 21 21 21 20 21 22 21 22 22 22
23 23 24 24 24 25 26 25 26 26 25 26 26 23 21 19 20 20 20 20 20 20 21 21 21 21 21 21 20 20 21 20 21 20 21 21 21 21 21 21 21 21 21 22 22 22 22 22 22
23 23 25 24 24 25 26 26 25 25 24 23 22 21 20 20 20 19 19 19 20 20 20 20 20 21 21 21 21 20 20 20 21 21 21 21 21 21 21 21 21 21 21 22 23 23 23 23 22
24 24 24 23 23 25 26 25 27 24 23 24 21 21 21 20 20 20 20 20 20 21 20 20 20 21 21 21 21 21 20 21 21 21 21 21 22 22 22 22 22 22 23 23 23 23 23 23 23
24 24 24 23 25 26 26 26 26 26 24 24 23 22 21 21 21 20 20 20 20 21 21 21 21 21 21 21 21 21 21 21 21 21 22 22 22 23 23 23 23 23 23 23 23 23 24 24 24
24 25 24 25 26 26 26 27 26 25 24 24 23 22 22 21 21 21 21 21 21 21 21 21 21 22 22 22 22 22 22 21 22 22 22 23 23 23 23 23 23 23 23 23 23 24 24 25 25
27 26 24 23 24 26 25 24 25 24 24 24 23 22 22 22 22 22 21 21 21 22 22 22 22 22 22 22 22 22 22 22 22 22 23 23 23 23 23 23 23 24 24 24 23 24 25 25 25
27 25 24 23 24 24 24 23 25 22 24 23 23 23 23 23 22 22 22 22 22 23 22 22 22 22 23 23 23 23 23 23 23 23 23 23 23 23 23 23 23 23 24 24 24 25 25 25 25
25 26 25 24 22 23 22 23 22 21 25 24 24 24 23 23 23 23 23 23 23 23 23 22 22 22 23 23 23 23 24 23 24 23 23 23 23 23 24 24 24 24 24 24 24 25 25 25 25
25 24 25 25 26 24 23 22 23 23 25 25 24 24 24 23 23 23 23 23 23 23 23 23 22 23 23 23 23 23 24 24 24 24 23 23 24 24 23 24 24 24 24 24 25 25 25 25 26
25 26 25 26 25 25 25 23 23 23 25 25 25 24 24 23 24 24 23 23 24 24 24 23 23 23 23 23 23 23 24 24 24 24 24 23 23 23 24 24 24 24 24 24 25 25 25 25 25
26 27 26 23 22 23 23 23 23 23 23 23 24 25 24 24 25 23 24 23 24 24 24 24 23 23 23 23 23 23 24 23 24 24 24 24 24 24 24 24 24 24 24 25 25 25 25 25 25
27 25 23 23 23 23 22 22 24 24 24 24 23 25 25 24 23 23 24 23 24 24 24 24 23 24 24 25 24 24 24 23 23 24 23 23 23 24 24 24 24 24 24 24 25 25 25 25 25
25 26 23 24 22 23 22 22 22 24 23 24 24 24 24 24 23 24 23 23 23 24 24 24 24 24 25 25 24 24 23 24 23 24 24 24 23 24 24 24 24 24 24 25 24 25 25 25 24
25 25 28 23 22 23 22 23 23 23 23 23 24 23 23 24 24 24 23 23 23 24 24 24 24 24 25 24 24 24 24 24 24 24 24 24 24 24 24 24 24 24 24 24 24 25 25 25 24
24 27 27 23 21 22 22 23 24 23 22 23 23 24 24 25 24 23 24 23 23 24 24 24 24 23 24 25 25 25 25 25 25 24 24 24 24 24 24 24 24 24 24 24 24 24 25 25 25
26 27 23 21 20 22 23 23 23 22 24 24 23 23 24 24 24 24 25 24 23 23 24 24 24 24 24 24 24 25 25 25 25 24 24 24 24 24 24 24 24 24 24 24 24 24 24 24 24
26 26 22 23 22 22 21 23 24 24 25 24 24 24 23 23 23 24 24 24 23 23 23 24 24 24 24 24 25 25 25 25 25 25 25 25 24 24 24 24 24 24 24 24 24 24 24 24 24
23 23 21 23 21 23 22 22 24 23 24 25 25 24 24 22 23 23 22 22 23 23 23 23 24 24 24 24 24 25 25 25 25 25 25 25 25 25 24 24 24 24 24 24 24 24 24 24 24
24 23 23 21 22 22 21 22 24 22 22 24 23 22 22 22 22 23 22 22 22 23 23 23 23 24 24 24 24 24 25 25 25 25 25 25 24 24 24 24 24 24 24 24 23 23 23 23 23
24 23 23 19 22 24 22 22 23 22 21 21 22 22 22 21 21 22 21 21 21 22 23 23 23 23 24 24 24 24 24 24 24 24 25 24 24 24 24 24 24 24 24 23 23 23 23 23 23
23 23 21 20 20 21 22 21 21 21 21 21 20 20 20 21 20 20 20 20 20 21 22 22 23 23 23 24 24 24 24 23 24 24 24 24 24 25 25 25 24 24 23 23 23 23 23 23 23
24 24 22 21 23 19 21 22 21 22 21 20 20 19 19 19 19 20 19 19 19 20 21 21 22 23 23 23 24 23 23 23 23 24 24 24 24 24 25 25 24 24 24 23 23 23 24 24 24

GFSSGP_925_temp_099.txt.gz
Temp
21 22 21 22 25 26 26 26 26 26 26 28 27 27 26 25 26 26 21 20 21 21 21 21 21 21 21 21 21 22 21 21 21 21 21 21 21 21 21 21 21 21 21 21 21 21 21 20 20
22 21 22 23 26 27 26 26 26 27 28 28 27 27 26 24 23 22 22 21 22 22 22 21 21 21 22 21 21 21 21 21 21 21 21 21 21 21 21 21 21 21 21 21 21 21 21 20 20
21 21 24 23 24 27 27 27 28 28 28 28 27 27 25 23 22 22 22 21 22 21 21 21 21 21 21 21 21 21 21 21 21 21 21 21 21 21 21 21 21 20 21 21 21 21 21 21 20
22 23 23 24 24 26 27 27 28 28 28 27 27 25 24 23 23 21 21 21 22 21 21 21 21 21 21 21 20 21 21 21 21 21 21 21 21 21 21 21 20 20 21 21 21 21 21 20 20
23 22 24 22 24 26 27 28 28 28 28 27 27 23 23 22 21 21 21 22 22 21 22 21 21 21 21 21 21 21 21 21 21 21 21 21 21 21 21 21 21 21 21 21 21 21 21 21 20
22 23 22 24 25 26 27 27 28 28 27 25 25 25 23 21 22 21 21 21 22 22 22 21 21 20 20 21 21 21 21 21 21 21 21 22 21 21 21 21 21 21 21 21 21 21 21 21 20
23 22 23 24 26 26 26 27 28 27 27 26 26 25 21 22 21 21 21 21 22 22 22 21 21 21 20 20 21 21 21 21 21 21 22 21 21 21 21 21 21 21 21 21 21 22 21 21 21
24 24 25 26 25 25 27 27 27 28 26 27 27 24 22 21 20 21 21 21 21 21 21 21 21 21 21 21 20 20 21 20 21 21 21 21 21 21 21 21 21 21 21 21 22 22 22 22 22
22 24 25 26 24 26 27 27 27 27 27 26 26 26 24 21 21 21 21 21 21 21 21 21 21 20 20 20 20 20 20 20 20 21 21 21 21 22 22 21 21 21 22 22 22 22 22 22 22
24 25 25 25 24 27 28 28 27 27 26 24 23 23 22 21 22 22 22 21 22 21 21 21 21 21 21 21 20 20 20 20 20 21 21 21 21 21 22 21 21 22 22 22 23 23 23 22 22
25 25 25 25 25 28 28 27 27 27 26 25 24 23 23 22 23 23 23 22 22 21 21 21 20 20 21 20 20 20 21 21 20 21 21 21 21 21 21 21 22 22 23 22 23 22 22 23 22
25 25 25 24 25 27 27 28 27 27 27 27 25 24 23 24 24 24 23 23 22 21 21 21 20 20 20 21 21 20 21 21 21 21 22 22 22 21 22 22 22 23 23 23 23 23 23 23 24
25 26 25 24 25 26 28 27 27 26 26 26 25 24 25 25 24 24 23 23 22 22 21 21 20 20 21 20 20 21 21 21 21 21 23 22 22 23 22 23 22 23 23 24 24 24 24 24 24
27 26 25 25 25 23 26 26 28 26 26 25 25 25 25 25 25 24 23 23 22 22 21 21 20 20 21 21 21 21 21 21 21 22 23 23 23 23 23 23 22 23 23 24 24 24 24 24 24
28 25 25 25 25 23 23 24 24 25 26 25 26 26 26 25 25 25 24 23 23 22 22 21 21 21 21 22 22 22 22 23 22 22 23 23 23 23 23 23 23 23 24 24 25 25 25 24 25
27 28 26 24 25 23 23 23 23 24 26 26 26 26 25 25 25 25 24 24 23 23 22 21 22 21 22 22 22 22 23 23 23 23 23 23 23 23 23 23 23 24 24 24 24 24 24 24 24
27 27 27 24 23 22 22 22 22 22 26 26 26 26 26 26 25 25 24 24 24 23 22 22 22 21 22 23 23 23 23 23 23 23 23 23 23 23 23 23 24 24 24 24 24 25 25 25 25
27 27 28 26 23 23 22 22 22 22 23 26 25 26 26 26 26 25 25 24 24 23 22 22 22 22 22 23 23 23 23 23 23 23 23 23 23 23 24 24 24 24 23 23 24 25 25 25 25
29 28 28 25 24 23 23 25 23 24 24 23 26 26 26 27 26 26 25 24 24 23 22 22 22 22 22 22 22 22 23 23 23 23 23 23 23 24 23 24 24 24 24 24 25 25 25 25 25
29 28 26 24 23 24 22 23 25 25 25 23 24 26 26 26 27 25 25 25 24 24 23 22 22 23 23 22 23 23 23 23 23 23 23 23 23 23 24 24 24 24 24 24 25 25 25 24 24
29 29 27 26 24 24 24 22 22 25 25 24 23 25 27 26 28 27 26 25 25 24 23 22 22 23 23 22 23 23 23 23 22 23 23 23 24 24 24 24 24 24 24 24 24 25 25 25 24
28 29 28 25 27 26 25 27 24 24 25 24 23 23 27 27 28 28 26 25 25 24 23 23 23 24 23 23 23 24 24 24 24 24 23 23 24 24 24 23 24 24 24 24 24 24 24 24 25
28 28 27 27 25 26 25 26 26 25 24 24 24 25 27 28 28 28 27 26 26 24 24 23 23 23 22 23 23 24 24 24 23 24 24 24 24 24 23 23 24 24 24 24 24 24 25 24 24
29 26 27 25 26 26 28 28 28 25 26 26 24 25 26 28 28 27 26 26 25 24 24 23 23 23 23 23 23 24 24 24 23 23 24 23 23 23 24 24 24 24 24 24 24 24 24 24 24
28 28 25 24 26 28 26 27 30 28 27 27 26 25 25 27 27 27 25 24 25 24 24 23 22 22 23 23 22 23 24 25 25 25 24 23 24 24 24 24 24 23 24 24 24 24 24 24 24
28 28 29 26 26 29 25 28 30 27 27 28 27 27 26 27 26 27 26 24 24 24 24 23 23 22 22 22 23 24 24 24 25 25 24 24 23 24 24 24 24 23 24 23 24 23 23 24 23
27 27 30 29 27 28 28 27 27 26 26 27 27 27 26 25 26 24 26 25 25 23 24 24 23 22 22 22 22 23 24 24 24 25 25 24 24 23 24 24 24 23 24 23 23 23 23 23 23
29 30 28 28 27 28 28 27 30 25 25 27 27 27 26 25 26 25 22 22 22 23 23 23 23 23 22 22 22 23 23 24 24 24 24 24 24 24 24 24 24 24 24 23 23 22 23 23 23
27 28 27 29 29 29 29 29 26 26 24 26 26 26 25 25 25 25 23 21 23 22 24 22 22 22 22 22 22 23 23 23 24 24 24 24 24 24 24 24 24 24 23 23 23 23 22 23 23
27 28 29 29 27 28 30 30 24 24 24 24 24 24 25 24 24 24 23 22 20 22 21 21 22 22 23 23 22 23 24 23 23 24 24 23 24 24 24 24 24 24 24 23 22 22 23 23 23

GFSSGP_925_temp_102.txt.gz
Temp
22 24 24 26 29 32 31 29 30 29 30 31 31 31 30 29 30 28 26 25 25 25 23 21 21 21 21 21 21 21 21 21 21 21 21 21 21 21 21 21 21 21 21 21 21 20 20 20 20
25 23 25 27 31 32 30 31 30 31 31 31 31 30 30 27 28 27 26 25 25 26 25 24 21 21 21 21 22 21 21 21 21 21 21 21 21 21 21 21 21 21 21 21 21 21 21 20 20
25 24 28 26 30 32 30 31 31 31 31 31 30 31 29 27 28 28 26 25 26 26 24 22 21 21 21 21 22 22 21 22 21 21 21 21 21 21 21 21 21 21 21 21 21 21 20 20 20
26 27 28 25 30 29 31 31 32 31 31 31 30 28 28 28 27 27 25 26 26 25 25 22 21 21 21 21 21 21 21 21 21 21 21 21 21 21 21 21 21 21 21 21 21 21 21 21 20
27 27 26 26 29 30 31 32 32 31 31 30 31 28 27 26 26 26 26 26 27 26 25 23 21 21 21 21 21 21 21 21 21 22 21 21 21 21 21 21 21 21 21 21 21 21 21 20 20
23 26 24 28 29 29 30 32 32 32 30 29 29 29 27 25 26 26 26 27 26 26 26 23 21 21 21 21 20 21 21 21 22 22 22 22 21 21 21 21 21 21 21 21 21 21 21 20 20
24 23 25 28 29 28 29 32 31 31 30 30 31 29 26 27 26 26 26 26 26 26 26 25 23 21 21 21 21 21 21 21 21 21 22 22 21 21 21 21 21 21 21 21 21 22 22 21 21
25 25 25 29 29 28 30 31 31 31 30 31 32 28 25 25 26 26 26 26 26 26 26 25 24 24 24 23 21 21 20 20 21 21 21 21 21 21 22 22 21 21 21 22 22 22 22 22 22
23 25 28 30 30 29 30 30 30 31 30 30 30 31 27 24 26 26 26 26 26 26 25 25 25 23 23 23 22 21 21 21 22 22 22 22 24 24 23 22 21 22 22 22 22 22 22 22 23
26 26 28 29 28 31 31 30 30 30 29 29 30 28 26 25 26 27 27 27 27 26 26 25 25 24 24 24 23 23 23 24 24 23 23 24 25 24 23 22 23 23 23 23 23 23 23 24 26
28 27 29 25 27 32 31 30 31 31 30 29 28 27 27 27 27 27 27 27 27 26 25 25 24 24 24 23 24 24 24 24 23 23 24 24 24 24 24 24 24 24 24 25 25 25 26 24 25
27 28 28 27 29 31 30 31 30 31 31 30 30 29 28 28 28 28 28 27 26 25 25 25 24 24 24 24 24 24 24 24 24 23 23 24 24 24 25 25 24 25 25 24 25 26 25 25 25
29 28 26 26 28 31 31 30 30 29 30 30 29 29 29 29 29 28 28 27 26 26 25 24 23 23 22 24 24 24 24 25 24 24 23 24 25 24 24 24 25 25 25 25 25 25 25 25 26
30 28 27 24 26 27 31 30 31 29 30 29 29 30 30 30 29 28 27 27 26 26 25 24 23 22 23 23 23 24 25 24 25 25 24 23 25 24 24 24 25 25 25 25 25 25 26 27 27
29 27 26 26 27 23 28 29 30 29 30 29 30 30 30 30 29 28 27 27 26 26 25 24 24 23 23 23 23 24 25 25 25 25 23 23 24 23 24 24 25 25 24 24 25 26 26 27 28
28 28 27 26 26 23 23 27 26 30 30 29 30 30 30 30 29 28 28 27 26 26 25 24 25 24 24 23 23 25 25 25 25 25 24 24 23 23 24 25 25 25 25 26 27 27 28 28 28
28 29 27 25 23 21 22 24 23 28 30 30 30 30 30 30 29 28 28 27 26 25 25 24 25 25 24 23 24 25 23 25 25 25 25 23 23 23 24 25 25 25 26 26 27 27 27 28 28
32 29 28 28 23 21 21 22 22 25 29 30 30 30 30 30 30 28 28 28 27 25 25 25 25 24 24 24 24 25 25 25 25 25 25 23 24 23 24 25 24 25 26 27 27 26 27 28 28
33 29 26 23 22 22 22 22 23 23 25 28 30 31 31 31 30 29 28 28 27 26 25 25 25 23 24 24 25 25 26 25 25 25 23 23 24 24 24 25 25 25 26 25 26 27 27 28 28
33 31 25 23 23 24 22 23 23 25 23 26 30 31 31 31 31 30 29 28 28 26 26 25 24 23 24 25 25 26 26 26 26 25 24 24 24 24 24 24 25 25 26 25 25 25 28 28 27
33 33 30 27 25 25 24 22 23 25 23 23 24 30 32 32 30 30 29 29 28 27 26 25 24 24 24 25 24 24 24 25 25 24 24 24 24 24 24 24 25 24 26 26 25 26 26 29 27
31 32 31 28 27 28 28 25 23 24 25 24 24 26 31 31 31 31 30 29 29 28 26 25 24 24 23 23 25 25 25 26 27 26 26 25 24 24 24 24 24 24 25 25 25 26 26 27 28
29 32 31 31 31 31 29 30 30 26 26 26 27 29 28 31 31 32 31 30 29 28 27 26 25 24 24 23 25 24 26 26 26 26 24 24 24 24 24 24 24 24 25 24 24 25 25 27 28
29 29 30 30 31 31 33 32 28 27 28 28 26 27 27 30 32 32 31 30 29 29 27 27 25 24 24 23 23 24 25 26 26 26 25 25 25 24 24 24 24 23 25 24 25 24 25 25 26
30 27 27 26 30 31 32 32 33 31 31 31 29 26 28 28 32 32 31 30 29 29 28 27 25 24 24 24 24 24 24 24 25 25 26 26 25 25 23 24 23 24 24 24 24 24 24 25 26
31 29 27 29 28 32 31 32 33 33 33 33 32 30 29 28 30 32 31 30 29 28 28 27 26 25 24 24 24 23 24 24 25 25 27 26 25 26 25 24 24 24 24 24 23 25 25 25 26
31 30 32 29 33 32 33 33 32 31 31 31 32 32 29 28 29 30 31 29 28 28 28 27 26 25 25 24 24 24 24 24 26 25 24 26 25 25 24 24 24 24 24 24 24 25 24 24 25
31 33 31 32 30 30 33 33 34 31 31 31 31 31 29 27 28 29 30 29 25 28 28 27 27 26 25 25 25 25 24 24 24 24 24 24 24 25 24 24 24 24 24 24 23 25 24 24 25
30 31 32 33 33 32 32 33 32 32 31 32 32 32 30 27 28 26 26 28 28 28 25 24 27 26 26 25 25 25 25 24 24 24 25 24 24 24 24 24 24 24 24 24 24 24 25 24 24
32 32 32 31 30 32 33 33 30 29 29 30 31 32 30 29 28 26 23 23 24 23 22 23 23 24 24 25 24 24 25 24 25 24 24 24 24 24 24 24 25 24 24 24 24 24 25 24 24

GFSSGP_925_temp_105.txt.gz
Temp
23 23 27 29 28 33 32 32 34 33 34 35 35 34 32 32 31 29 29 29 28 27 24 22 21 21 21 20 21 21 21 21 21 21 21 21 21 21 21 21 20 21 21 20 21 21 21 21 21
27 27 28 29 28 34 32 33 32 33 34 34 34 33 30 30 32 30 29 28 29 28 26 23 21 21 21 21 21 21 21 21 21 21 21 21 21 21 21 21 21 21 21 21 21 21 21 21 20
26 27 28 29 31 34 32 33 33 34 34 34 33 32 32 30 31 30 29 29 26 26 26 22 21 22 21 21 20 21 21 21 21 21 21 21 21 21 21 21 21 21 21 21 21 20 20 21 20
29 31 30 27 32 33 34 33 34 33 34 34 33 30 32 30 31 29 29 28 26 26 24 22 21 21 20 21 21 21 21 21 21 22 22 21 21 21 21 21 21 21 21 21 21 21 21 21 20
29 28 24 27 32 33 34 34 34 33 33 33 32 30 30 30 29 29 27 27 26 27 25 23 20 21 21 21 21 21 21 21 21 21 21 21 21 21 21 21 21 21 21 21 21 21 21 21 20
25 26 25 29 32 33 34 35 34 32 32 32 32 31 29 30 29 28 29 29 30 29 26 23 21 21 21 21 21 21 21 21 21 21 21 21 21 21 21 21 21 21 21 21 21 21 21 21 21
26 24 28 30 31 32 33 35 34 33 33 31 33 30 30 30 29 30 30 30 30 27 26 25 24 22 21 21 21 21 21 21 22 21 21 21 21 21 21 21 21 21 21 21 21 21 21 21 21
26 23 29 32 31 30 33 34 34 33 31 34 33 30 30 29 30 30 30 30 28 27 25 25 25 24 24 23 21 21 21 21 21 21 22 22 22 22 22 23 21 21 21 21 22 22 22 22 23
24 24 30 31 31 30 33 31 32 32 33 33 34 32 31 30 30 30 29 29 28 26 26 26 25 24 24 23 22 22 22 23 23 23 23 23 25 24 23 23 22 22 23 23 23 24 23 23 24
28 26 30 32 33 32 33 33 32 33 33 32 33 32 29 30 30 30 30 30 29 26 26 26 27 26 25 25 23 24 23 23 24 24 24 25 25 25 24 23 23 24 24 24 24 25 25 25 24
30 28 26 31 31 34 34 33 34 34 33 33 31 30 30 30 31 30 31 30 29 28 27 25 25 25 26 26 26 27 25 25 24 25 26 25 25 25 25 24 25 25 25 25 26 25 25 27 28
29 30 30 30 30 32 33 34 33 34 34 33 32 31 31 31 31 31 31 30 29 28 28 28 27 26 26 26 27 27 26 25 26 25 25 25 26 26 26 27 26 26 27 27 27 27 26 26 27
30 29 29 29 30 32 33 33 32 32 33 33 32 32 32 32 31 31 31 30 29 29 28 27 26 25 25 26 27 27 26 26 26 25 24 26 26 26 26 25 26 27 27 28 28 28 27 27 28
30 30 28 28 31 32 32 32 33 32 33 32 32 32 32 33 32 31 31 30 29 29 28 26 24 24 25 25 26 26 24 26 27 26 26 25 26 26 26 26 27 27 27 28 27 27 28 29 28
30 29 29 26 27 29 27 31 31 32 33 32 32 33 33 33 32 31 30 30 29 29 27 26 25 25 25 25 25 26 27 26 26 26 25 25 26 25 26 26 26 27 26 26 27 28 28 29 29
29 27 27 25 25 27 29 28 31 32 32 32 33 33 32 33 31 31 30 30 29 28 27 27 27 26 25 26 26 27 27 27 27 26 25 25 24 25 26 26 28 27 27 28 29 29 30 30 30
25 26 27 24 23 24 26 27 31 32 33 32 33 33 33 33 32 31 30 30 29 27 26 27 26 27 26 25 26 27 26 27 27 27 26 25 25 25 26 26 26 25 28 29 29 29 29 30 30
25 25 27 24 22 22 22 23 27 32 32 31 32 33 32 32 32 31 31 30 29 27 26 27 27 26 26 25 26 27 26 27 27 27 26 25 25 25 25 26 26 26 28 28 28 27 29 29 29
26 24 26 23 22 23 23 23 24 27 30 28 30 32 31 31 32 31 31 30 29 27 27 27 26 25 26 26 27 26 26 27 26 25 25 25 25 25 25 26 26 27 27 26 27 28 28 30 29
34 30 25 22 23 25 22 22 22 23 28 28 30 30 32 31 32 31 30 30 29 28 27 26 26 25 25 27 26 27 27 27 27 26 26 26 25 25 25 26 26 24 27 26 26 27 28 30 29
35 27 25 24 23 23 23 22 22 22 25 26 26 27 32 32 31 32 29 31 30 28 27 27 26 25 25 26 25 26 27 26 27 27 26 26 26 25 25 25 25 26 26 27 26 27 28 30 29
33 30 27 24 27 25 26 23 22 23 23 23 26 28 29 34 32 32 31 31 31 29 28 27 26 25 24 25 26 25 26 27 26 27 27 26 26 26 25 25 25 25 26 26 27 27 27 28 30
33 34 25 25 30 30 27 28 26 24 23 22 24 27 29 27 34 32 32 32 31 30 29 27 26 25 26 25 24 25 26 25 23 27 26 26 25 25 26 25 25 25 26 26 26 26 26 28 28
34 32 33 32 32 32 31 33 28 26 27 26 25 26 26 30 33 31 32 31 32 31 29 28 26 25 25 24 25 25 25 26 26 26 26 27 26 26 26 25 25 25 25 25 26 26 26 25 26
33 32 30 30 33 33 32 33 32 31 30 29 29 28 29 31 28 33 27 32 30 30 29 29 27 26 25 25 25 25 26 25 25 26 27 25 26 27 25 25 24 25 24 25 25 25 25 26 26
33 33 31 29 31 34 34 33 32 34 33 34 33 31 31 31 31 31 32 32 30 27 28 29 27 26 26 26 25 25 25 26 26 27 25 24 26 26 25 25 25 25 25 25 25 26 26 27 26
33 33 35 33 26 29 32 34 30 35 34 34 34 33 31 31 31 27 33 31 25 31 30 29 28 26 26 26 25 25 25 25 26 25 25 26 27 26 26 26 26 26 25 25 25 25 26 26 25
34 35 33 34 30 30 33 32 32 32 33 34 35 35 32 32 30 31 31 32 32 31 31 29 28 27 27 27 26 26 25 25 25 25 25 24 24 25 25 26 26 25 25 25 25 26 26 25 26
33 33 34 35 35 34 34 33 32 32 34 34 35 35 34 30 29 24 28 27 32 31 30 29 28 27 27 27 27 27 27 26 26 26 25 26 25 24 25 24 25 25 25 25 24 25 25 25 25
35 34 34 33 33 35 35 29 34 35 35 35 35 34 33 30 29 25 24 26 29 29 30 29 27 28 28 27 27 26 27 27 27 26 26 26 25 25 24 25 25 25 25 25 24 25 27 26 26

GFSSGP_925_temp_108.txt.gz
Temp
23 24 26 27 25 27 33 33 35 34 35 36 34 33 32 32 31 27 28 26 26 24 22 21 21 21 21 21 21 21 21 21 21 21 21 21 21 21 21 21 21 21 21 21 21 21 21 20 21
25 28 29 27 26 31 32 34 34 34 35 34 31 33 32 30 31 30 28 29 27 25 23 22 21 21 21 21 21 21 21 21 21 21 21 21 21 21 21 21 21 21 21 21 21 21 21 20 21
24 28 26 27 27 29 32 34 34 34 35 33 27 30 32 30 32 31 28 29 27 25 23 21 21 21 21 21 21 21 21 21 21 21 21 21 21 21 21 21 21 21 21 21 21 21 21 20 21
28 30 28 24 28 34 34 34 34 34 35 34 33 31 32 32 31 30 29 28 26 25 23 21 21 21 21 21 21 21 21 21 21 21 21 21 21 21 21 21 21 21 21 21 21 21 21 20 22
29 28 26 25 31 34 35 35 35 34 32 33 32 30 31 31 30 29 28 26 26 25 23 21 21 21 21 21 21 21 21 21 21 21 21 21 21 21 21 21 21 21 21 21 21 21 21 20 22
25 27 25 26 32 34 34 35 35 32 30 28 31 31 30 31 30 30 29 28 28 26 24 22 21 21 21 21 21 21 21 21 21 22 22 22 21 21 21 21 21 21 21 21 21 21 21 22 23
25 23 26 28 28 31 34 35 30 32 32 32 32 30 31 31 30 29 29 28 27 27 25 23 22 21 21 21 21 21 21 22 22 21 22 21 21 21 21 21 21 21 21 21 22 22 23 24 24
24 23 27 28 28 32 35 34 31 32 32 35 33 30 29 31 31 31 27 26 25 27 25 25 23 23 22 22 21 22 22 22 22 22 22 22 21 21 21 22 22 21 22 23 23 23 24 25 25
24 25 26 30 32 33 35 32 33 33 32 33 33 32 31 32 31 31 28 28 27 26 26 25 24 24 23 22 21 22 22 23 22 23 23 23 24 23 22 23 23 23 24 24 24 24 24 24 24
26 24 28 31 33 34 34 32 33 31 34 32 33 32 32 32 31 30 27 28 27 26 26 24 25 24 25 24 23 23 23 23 24 23 23 23 25 25 24 24 24 24 24 25 25 25 24 24 24
28 24 23 28 32 34 33 31 35 33 32 32 32 32 33 32 31 31 29 28 28 27 26 25 25 25 25 25 24 24 24 24 25 25 24 25 26 25 25 24 24 25 25 22 24 25 23 26 25
29 23 24 25 33 31 35 35 35 35 33 33 32 32 33 32 32 32 30 29 27 26 26 26 26 25 26 26 26 25 25 25 26 26 26 25 25 25 22 23 24 25 24 26 26 26 27 26 28
27 30 27 28 32 33 35 34 33 33 33 33 32 32 32 33 32 32 29 29 30 28 27 26 25 26 26 27 26 26 26 26 26 25 25 25 26 26 25 27 26 25 25 27 27 27 27 27 28
30 30 30 31 31 27 33 33 34 33 34 33 32 32 33 33 33 32 31 31 30 29 27 25 25 25 25 26 26 26 26 26 25 25 21 25 25 25 26 25 24 27 26 27 28 27 27 28 28
31 29 30 28 29 27 32 31 32 33 34 33 33 33 33 33 33 32 31 31 30 29 26 25 25 25 25 26 25 26 26 26 26 25 25 24 26 26 25 26 26 27 28 28 28 28 29 28 28
30 29 28 27 27 24 29 28 32 33 33 32 33 33 33 33 32 32 31 30 30 28 26 25 26 26 25 26 26 25 26 26 26 26 26 25 25 25 26 25 26 27 27 26 28 28 29 29 29
27 24 26 25 23 24 28 28 31 34 33 32 33 33 33 33 32 31 31 30 29 27 27 26 27 26 26 25 26 26 27 27 26 26 26 25 25 25 25 26 27 27 26 26 27 28 29 29 30
25 23 23 24 23 23 27 28 31 33 33 33 33 33 33 32 32 31 31 30 28 27 27 26 27 26 26 26 26 27 26 27 26 26 25 25 25 25 25 26 27 25 26 27 27 28 29 29 29
29 26 24 22 22 23 23 23 27 29 32 31 33 33 32 32 32 32 31 30 28 27 27 27 26 26 25 26 26 26 26 26 26 26 25 25 25 25 25 26 26 24 25 27 27 27 27 29 30
29 26 23 22 22 22 22 23 22 24 25 31 29 32 32 31 30 32 31 30 29 28 27 27 26 26 26 26 26 26 26 26 26 26 26 25 26 25 25 25 26 25 26 27 26 27 27 29 29
25 25 23 23 23 22 22 22 22 23 24 25 26 28 28 30 27 32 31 31 29 28 27 26 25 26 26 25 26 26 25 26 26 25 26 25 25 25 25 25 25 26 26 26 26 27 27 28 29
26 28 27 24 24 24 25 24 21 21 23 25 26 27 28 27 29 31 31 29 30 28 27 26 25 26 25 25 26 25 26 26 26 26 26 26 26 26 25 26 26 25 26 26 26 26 26 27 27
28 30 29 26 25 27 24 26 24 22 22 24 25 28 28 25 27 29 32 29 29 29 28 26 25 25 25 25 24 25 25 25 26 25 25 26 26 26 26 26 26 25 25 25 26 26 26 26 26
32 30 28 25 23 24 27 27 25 23 25 26 27 28 28 29 25 28 31 29 30 29 28 26 26 25 25 24 25 25 24 24 23 22 24 25 25 25 25 26 25 25 25 25 26 26 26 26 26
34 29 29 26 24 28 31 28 28 26 27 28 27 29 27 27 27 25 31 31 29 29 29 27 25 25 25 24 25 24 25 24 23 24 23 25 25 25 26 25 25 25 25 25 25 25 25 26 26
33 34 32 29 30 25 24 30 32 29 30 29 28 29 26 26 27 26 31 29 28 28 28 28 26 25 25 25 25 25 25 26 25 24 25 24 23 23 25 25 25 25 25 25 25 25 26 26 26
33 33 35 30 27 31 27 29 32 30 32 30 30 29 29 29 29 29 29 28 29 27 27 25 26 26 25 25 25 25 25 25 25 25 22 21 21 22 24 25 25 26 25 25 25 25 25 25 25
35 35 33 34 30 29 27 27 24 31 32 32 30 29 30 30 31 30 28 24 24 27 28 28 25 26 26 26 25 25 25 25 25 25 25 25 23 22 23 25 26 26 25 25 25 25 25 26 25
34 33 34 35 35 32 26 25 25 29 33 34 32 31 30 31 31 31 27 26 25 27 27 26 27 27 26 26 26 26 25 25 25 25 25 25 25 24 25 24 25 25 25 25 25 25 25 25 25
35 34 34 33 33 34 33 29 29 26 25 29 35 32 30 31 32 31 27 24 22 24 26 26 28 27 27 27 27 27 26 27 26 26 26 26 25 25 24 24 24 25 25 25 24 24 24 25 26

GFSSGP_925_temp_111.txt.gz
Temp
25 25 23 23 24 24 29 30 32 31 29 31 30 30 29 30 28 23 24 24 22 22 22 21 21 21 21 21 21 21 21 21 21 21 21 21 21 21 21 21 21 20 21 21 21 21 21 21 21
25 24 24 25 24 26 29 31 30 30 30 30 31 29 28 27 28 25 24 23 23 22 21 21 22 21 21 21 21 21 21 21 21 21 21 21 21 21 21 21 21 21 21 21 21 21 22 21 21
25 24 24 23 25 28 28 31 31 30 31 30 30 30 29 26 27 25 24 24 23 22 22 21 21 21 21 21 21 21 21 21 21 21 21 21 21 21 21 21 21 21 21 21 21 21 22 22 22
25 26 23 23 25 30 30 31 32 31 31 31 30 29 29 28 26 24 25 24 23 22 22 21 21 21 21 21 21 21 21 21 21 21 21 21 21 21 21 21 21 21 21 21 21 21 23 23 23
26 24 22 23 26 32 32 32 30 31 31 30 30 28 27 28 25 26 25 24 24 22 21 21 21 21 21 21 21 21 21 21 21 21 21 21 21 21 21 21 21 21 21 21 21 22 24 24 24
24 24 24 25 30 31 32 32 31 30 30 30 29 27 26 28 26 25 24 24 23 22 21 21 21 21 21 21 21 21 21 21 21 21 21 21 21 21 21 21 21 21 21 21 22 23 24 24 24
24 22 24 26 30 29 31 32 30 30 30 30 30 26 27 27 27 27 27 25 24 23 22 21 21 21 21 21 21 21 22 22 22 21 21 21 21 21 21 21 21 21 21 21 22 24 24 24 24
22 23 26 26 29 31 31 31 30 30 29 31 30 27 25 25 25 26 26 25 24 23 23 22 22 22 21 21 21 22 22 22 21 21 21 21 21 21 22 22 22 23 23 23 23 23 24 24 25
24 23 25 26 27 30 30 28 31 32 31 31 31 29 29 28 26 26 26 25 25 24 23 23 22 22 22 21 21 22 22 22 22 22 22 23 23 22 22 23 23 23 22 23 23 24 24 24 24
25 24 23 25 26 31 30 29 31 30 29 30 29 30 30 27 26 25 25 26 25 24 24 24 23 23 24 23 23 23 23 23 23 23 22 23 23 24 23 24 24 23 23 23 23 23 23 24 24
25 23 22 23 25 33 32 31 32 31 28 29 28 29 30 29 27 27 26 26 25 25 25 24 24 24 24 23 23 24 23 23 24 24 24 23 23 23 23 23 23 23 25 25 22 26 26 25 25
26 23 22 22 24 23 31 32 31 32 30 31 30 30 30 29 28 27 27 26 25 25 25 25 25 25 25 24 23 25 25 25 25 24 24 23 23 26 24 24 21 22 25 25 24 25 26 26 26
27 22 22 21 23 23 30 31 32 31 31 31 31 31 30 29 28 28 27 27 26 26 25 25 26 25 25 25 24 25 25 25 25 24 24 24 23 24 24 23 24 25 25 26 26 26 26 27 27
27 24 24 23 23 28 30 30 32 31 31 31 31 30 30 29 28 27 28 27 26 25 25 25 26 25 26 25 25 25 25 25 26 25 25 25 24 24 23 25 24 26 25 26 26 27 27 27 28
28 27 27 26 27 26 25 30 30 31 31 30 30 30 31 29 28 28 29 27 25 25 25 25 26 25 25 26 26 26 25 25 25 25 25 25 25 25 25 25 24 25 25 25 26 26 27 27 28
24 26 26 25 26 25 24 28 30 31 31 30 30 31 31 30 29 29 29 27 26 26 26 25 26 25 25 25 25 26 25 25 25 25 25 25 25 25 26 26 26 25 26 26 26 27 27 27 27
23 23 22 24 24 24 23 27 30 31 31 30 30 30 30 30 29 30 29 26 26 27 26 25 25 25 25 25 26 26 26 26 26 25 25 25 25 25 26 25 25 26 26 27 27 27 28 28 28
24 23 23 22 23 23 23 28 29 30 30 30 29 29 29 29 28 30 28 27 27 26 26 26 26 26 25 25 25 26 25 26 25 25 25 25 25 25 25 25 26 26 26 27 27 27 28 28 29
26 25 23 22 22 23 22 24 24 24 29 29 28 28 29 29 29 31 28 27 27 27 26 26 26 26 26 25 26 26 26 25 25 26 26 25 25 25 25 25 26 26 26 26 26 27 27 28 29
26 24 22 22 22 22 22 22 23 23 23 24 25 30 29 30 29 29 27 27 27 26 26 26 26 26 26 26 26 26 26 25 25 25 25 26 26 25 25 25 26 26 26 26 26 27 26 27 28
25 24 23 23 22 22 22 22 21 23 23 24 24 26 28 29 28 28 27 27 27 26 26 26 26 26 26 25 25 26 26 25 25 25 26 26 26 26 25 25 25 25 25 26 26 26 26 26 27
25 25 25 23 23 23 22 23 21 22 22 22 24 25 27 28 27 28 28 27 26 27 26 26 26 26 25 25 25 25 26 25 25 25 25 26 26 25 25 25 25 25 25 25 25 26 26 26 26
24 23 24 25 22 23 22 22 23 22 23 23 24 25 27 27 27 28 28 28 27 27 26 26 26 26 25 25 25 25 25 25 24 25 25 25 25 26 26 25 25 25 25 25 25 25 26 26 26
26 24 24 24 22 23 25 24 24 22 23 25 25 25 26 26 25 26 27 28 27 26 26 26 26 26 26 25 24 24 24 25 24 24 25 24 24 25 26 26 25 25 25 25 25 25 26 26 26
25 23 21 22 23 24 24 24 26 26 25 26 27 26 26 25 23 24 24 27 27 26 26 25 25 25 25 25 25 24 24 24 26 24 24 23 24 24 25 25 25 25 25 25 25 25 25 25 26
27 26 26 24 25 25 24 24 26 26 28 27 28 28 27 25 24 24 25 27 28 27 26 25 25 25 25 24 24 25 24 24 24 24 24 23 24 23 24 24 25 25 24 25 25 25 25 25 26
31 27 30 25 26 26 24 23 25 27 27 27 27 28 27 26 26 25 25 26 27 27 26 25 25 25 24 24 24 24 24 24 24 24 24 24 24 25 25 24 24 25 25 25 25 25 25 25 25
31 31 29 26 25 26 26 27 25 26 26 27 28 27 27 26 25 25 25 24 26 27 26 25 25 25 25 25 24 24 25 24 24 24 24 25 25 25 24 24 24 25 25 25 25 25 25 25 25
30 29 30 28 27 26 25 25 24 27 25 23 24 28 27 26 26 26 26 25 26 26 26 26 25 25 25 25 25 25 25 25 24 25 25 24 25 25 24 25 24 25 25 25 25 25 25 25 25
31 30 29 25 27 28 27 27 27 27 25 23 23 22 26 27 27 27 25 23 25 25 25 25 26 26 25 25 25 25 25 25 25 25 25 24 24 24 24 24 24 25 25 25 25 25 24 24 25

GFSSGP_925_temp_114.txt.gz
Temp
24 23 22 22 23 23 27 27 28 29 29 28 30 30 28 27 26 22 23 23 22 22 21 21 21 21 21 21 21 21 21 21 21 21 21 21 21 21 21 21 21 21 21 21 21 21 21 21 21
25 23 23 22 24 26 27 29 28 28 28 29 29 28 26 25 25 22 21 22 22 21 21 21 21 21 21 21 21 21 21 21 21 21 21 21 21 21 21 21 21 21 21 21 20 21 21 21 21
25 23 23 22 23 27 26 29 28 29 29 29 28 28 26 23 24 23 22 22 21 21 21 21 21 21 20 21 21 21 21 21 21 21 21 21 21 21 21 21 21 21 21 21 21 20 21 22 22
24 22 23 24 25 29 28 28 29 29 29 29 28 26 26 26 25 23 22 22 21 21 21 21 21 21 20 21 21 21 21 21 21 21 21 21 21 21 21 21 21 21 20 21 21 22 22 22 22
25 23 23 24 26 30 30 30 30 29 27 27 27 26 24 23 24 22 22 22 22 21 21 21 21 21 20 21 21 21 21 21 21 21 21 21 21 21 21 21 21 21 21 21 22 22 23 23 22
24 23 24 24 30 29 29 30 30 28 27 26 26 25 23 23 23 22 22 22 22 22 21 21 21 21 21 21 21 21 21 21 21 21 21 21 21 21 21 21 21 21 21 22 23 23 23 23 23
23 21 23 25 29 27 28 30 29 28 27 27 27 24 22 23 22 23 23 22 23 22 21 21 21 21 21 21 21 21 21 21 21 21 21 21 21 21 21 21 21 21 21 22 23 24 24 24 23
22 21 23 26 27 28 29 29 29 28 27 29 28 25 21 22 23 24 23 22 22 21 21 21 21 21 21 21 21 22 21 21 21 21 21 21 21 21 21 21 21 21 21 22 22 23 24 24 24
23 23 25 27 27 28 30 29 30 30 28 29 29 27 25 23 24 23 22 22 21 21 22 22 22 22 22 21 21 21 21 21 21 21 21 22 23 23 22 22 22 22 22 23 23 24 24 24 24
24 22 23 24 24 26 29 30 30 29 29 29 27 25 25 24 24 23 22 21 22 21 22 23 22 22 23 21 21 22 22 23 23 23 22 23 23 22 23 22 22 21 22 23 24 24 25 25 25
25 22 21 24 24 24 27 29 31 29 28 29 26 26 25 25 25 24 23 22 22 23 23 23 23 23 22 22 22 23 23 23 23 22 22 23 23 23 23 23 23 22 23 23 23 24 25 25 25
23 22 21 23 24 23 26 30 28 30 28 29 27 26 26 26 25 25 24 23 23 23 23 23 23 23 23 23 23 23 23 23 23 23 22 23 23 23 24 24 24 24 24 24 24 24 25 25 25
23 23 23 23 23 24 24 28 29 28 29 29 27 27 26 25 26 25 25 24 24 24 24 24 23 24 24 24 24 23 23 23 23 24 24 24 25 24 25 25 25 25 24 24 24 25 25 26 26
24 23 23 22 23 24 27 29 29 28 29 29 29 28 27 26 26 25 25 24 24 25 25 24 24 24 24 25 24 24 24 24 25 24 24 25 24 25 25 25 25 25 25 24 25 25 25 26 26
24 23 23 23 22 24 26 28 28 29 30 29 29 28 27 27 27 26 25 24 25 25 25 25 25 25 26 25 25 24 24 24 25 25 24 24 24 25 24 24 25 24 24 25 26 26 26 27 27
23 25 23 22 23 25 26 25 28 29 29 28 28 28 27 27 27 27 25 25 25 25 26 25 25 25 25 25 25 24 25 25 25 25 25 24 24 24 24 24 25 24 25 25 26 27 27 27 27
22 23 22 23 23 23 25 25 27 29 29 28 28 28 27 27 27 26 25 25 25 26 25 25 25 25 25 25 25 25 25 25 25 25 25 25 25 25 25 25 25 25 25 26 26 26 27 27 27
23 22 23 22 22 23 23 23 25 28 28 28 27 28 27 28 27 26 25 25 25 25 25 25 25 25 25 25 25 25 25 24 25 25 25 25 25 25 25 25 26 26 26 26 26 26 27 27 27
24 25 23 23 22 22 22 23 23 23 25 26 25 27 27 28 26 25 25 25 26 25 25 26 25 25 25 25 25 25 25 25 25 25 25 25 25 25 25 25 26 26 26 25 26 26 27 27 28
26 23 22 22 22 23 22 23 22 22 23 23 24 25 27 25 25 25 25 25 26 25 26 25 25 25 25 25 25 25 25 25 25 25 25 25 25 25 25 25 25 26 26 25 25 26 26 27 27
25 24 22 23 22 21 22 22 21 22 23 23 23 25 27 27 25 25 25 25 25 25 26 26 25 26 25 25 25 25 25 25 25 25 25 25 25 25 25 25 25 25 25 25 25 25 26 26 24
24 25 25 23 23 22 22 22 22 21 23 23 23 24 26 27 25 25 25 25 25 25 26 26 26 26 25 25 25 25 25 24 24 25 25 25 25 25 25 25 25 25 25 25 25 25 25 26 25
24 26 25 24 22 22 22 22 23 22 23 24 23 24 25 24 26 25 25 25 25 25 26 26 26 26 25 25 25 25 25 25 24 25 25 25 25 24 25 25 25 25 25 25 25 25 25 25 25
25 24 24 22 22 22 23 23 24 22 25 27 26 24 24 25 26 26 26 25 25 25 25 25 25 25 25 25 25 25 25 25 24 24 25 25 25 25 25 25 25 25 25 25 25 25 25 25 25
24 22 22 22 22 23 23 23 25 24 24 25 27 25 24 25 24 24 25 25 25 24 25 25 25 25 25 25 24 24 24 24 24 24 25 25 24 24 25 25 25 24 25 25 25 25 25 25 25
24 23 22 24 24 25 24 23 25 27 26 26 26 27 25 25 24 23 24 25 25 24 24 25 25 25 24 25 25 24 24 24 24 24 25 25 25 24 25 25 25 24 24 25 24 24 25 25 25
24 25 26 23 25 24 23 24 25 25 25 24 25 27 26 25 24 24 24 24 25 24 24 25 25 25 25 25 25 25 24 24 25 24 25 25 24 24 24 24 24 24 24 24 24 24 24 25 25
26 26 24 23 24 25 24 26 25 25 25 25 25 26 27 25 24 24 24 25 25 25 25 25 26 25 25 24 25 25 24 25 25 25 24 24 24 24 24 24 24 24 24 24 24 24 24 25 25
28 27 26 24 24 25 24 24 25 26 25 25 25 26 26 25 24 24 24 24 25 25 24 24 24 25 24 24 24 24 24 24 24 24 24 24 24 24 24 25 24 24 25 24 24 24 24 25 24
28 28 25 23 26 25 24 26 26 25 25 24 24 25 24 24 25 25 23 23 23 23 24 23 24 25 25 24 24 24 24 24 24 24 25 25 25 25 24 24 24 24 24 24 24 24 24 25 25

GFSSGP_925_temp_117.txt.gz
Temp
22 22 22 21 23 22 26 26 27 27 26 28 27 27 25 25 25 22 23 22 22 22 21 21 21 21 21 21 21 21 20 20 20 20 20 20 20 20 21 21 20 21 21 21 20 20 20 20 20
22 22 21 21 23 24 25 27 27 28 27 27 28 27 25 23 23 20 20 22 22 22 21 21 21 21 21 21 21 20 21 21 20 20 21 20 20 20 21 21 21 20 20 21 21 21 21 21 20
23 23 22 22 23 24 25 27 26 27 28 28 26 26 25 22 22 22 23 22 22 22 21 21 21 21 21 21 21 21 20 20 21 20 20 20 21 20 21 21 20 20 20 20 20 21 21 21 21
24 23 23 23 25 27 26 26 27 28 27 27 26 24 24 24 23 22 22 22 22 21 21 21 21 21 21 21 21 21 21 21 21 20 20 21 21 21 21 21 21 20 21 20 21 21 21 21 22
24 23 23 25 26 27 28 28 28 27 26 26 26 24 23 23 23 21 21 22 21 21 20 21 21 20 21 21 21 21 21 21 21 21 21 21 21 21 21 20 20 20 20 20 21 21 22 22 22
22 23 24 24 27 27 28 28 27 26 26 25 25 23 21 21 21 21 21 21 21 21 21 21 21 20 21 21 21 21 21 21 21 21 21 21 21 21 21 21 21 21 21 20 21 22 22 22 22
23 22 23 24 26 27 27 28 26 26 26 26 26 22 21 21 21 21 22 21 21 21 21 20 21 21 21 21 21 21 21 21 21 21 20 21 21 21 21 21 21 21 20 20 21 22 22 22 22
22 22 24 25 27 26 28 28 27 26 25 27 26 21 21 21 21 21 21 21 21 21 21 20 21 21 21 21 21 21 21 21 21 21 21 21 21 21 21 21 21 21 21 22 23 23 23 23 23
23 23 24 26 27 27 28 27 28 28 26 27 27 24 24 21 21 21 20 20 20 20 21 21 21 21 21 21 21 21 21 21 21 21 22 22 21 21 21 21 21 21 22 22 23 23 23 23 23
23 22 25 24 24 25 28 28 28 27 27 25 25 24 23 22 22 20 20 20 20 20 20 21 21 21 21 21 22 22 21 21 21 21 22 22 22 22 22 22 23 23 23 23 23 24 23 23 24
24 22 24 25 25 24 25 27 29 27 27 25 23 23 23 23 22 21 21 20 21 22 21 21 22 22 22 23 22 22 22 22 22 22 22 22 22 23 23 23 23 23 23 23 24 24 24 24 24
24 24 22 24 24 24 24 26 28 28 27 26 24 24 24 23 22 21 21 21 22 22 22 22 22 22 22 23 23 22 22 22 22 22 22 23 23 23 24 23 23 23 23 24 24 24 25 25 25
25 23 23 23 23 23 25 26 28 28 27 26 25 24 24 23 23 23 22 22 22 22 22 22 23 23 23 23 23 22 22 23 23 23 23 23 23 24 24 24 24 24 24 24 24 24 25 25 25
25 23 23 23 23 23 25 27 27 27 27 26 25 25 24 24 24 23 22 22 22 23 23 23 23 23 23 23 23 23 23 23 23 24 24 23 24 24 25 24 24 25 25 25 25 25 26 26 26
24 23 23 22 23 22 24 25 26 28 26 26 25 25 25 25 24 24 23 23 24 24 23 23 24 24 24 24 24 23 23 24 24 24 24 24 24 24 24 24 25 25 25 25 25 25 26 26 26
24 22 24 22 22 23 23 25 26 27 27 25 26 26 25 25 25 25 24 24 24 24 24 24 24 24 24 24 24 24 24 24 24 24 24 24 24 24 25 25 25 25 25 25 26 26 27 27 27
23 22 22 22 20 22 24 25 26 28 28 27 27 26 25 25 25 25 24 24 24 24 24 24 24 25 25 24 24 24 24 24 24 24 24 24 24 24 24 25 25 25 25 25 26 26 27 27 27
23 22 22 22 21 22 23 24 26 26 27 27 25 25 25 25 24 24 24 24 25 25 24 24 25 25 25 24 24 24 24 24 24 24 24 24 24 24 24 25 25 26 25 26 26 26 26 27 27
25 24 22 22 22 22 22 22 23 23 25 26 24 24 25 25 25 25 24 24 25 24 24 24 25 25 25 24 24 24 25 25 25 24 24 24 24 24 25 25 25 25 25 26 26 26 26 26 27
23 23 22 22 22 22 22 22 22 22 23 23 23 24 25 23 23 24 23 24 24 24 24 24 25 25 25 24 25 25 25 25 25 25 24 24 24 25 25 25 25 25 25 26 26 26 26 26 27
24 24 22 23 22 22 22 23 22 22 22 23 23 24 26 24 23 23 23 23 23 23 24 24 25 25 25 25 25 25 24 24 24 24 24 24 24 25 25 25 25 25 25 25 25 25 26 25 25
24 25 24 22 22 22 22 23 22 22 22 23 23 23 23 24 24 24 24 23 23 24 24 25 25 25 25 25 25 25 25 24 25 25 24 24 24 24 25 25 25 25 25 25 25 25 25 26 25
25 25 24 23 22 22 22 21 22 22 22 23 23 23 23 24 24 24 24 24 24 24 25 25 25 25 25 25 25 25 25 25 25 24 24 24 24 24 24 24 25 25 25 25 25 25 25 25 25
25 23 23 23 21 22 23 22 22 21 23 24 24 24 23 24 24 25 25 24 24 24 24 25 25 24 25 25 25 25 25 24 24 24 24 25 24 24 24 24 24 24 24 24 25 25 25 25 25
23 22 21 22 22 23 23 22 23 24 24 26 26 25 24 23 24 24 24 24 23 23 24 24 24 24 24 25 25 24 25 25 24 24 25 25 24 25 25 24 24 24 24 24 24 24 24 25 25
23 23 22 22 23 24 23 23 24 27 26 26 27 27 25 23 24 24 24 24 23 23 24 24 24 25 24 24 25 25 25 24 25 24 24 24 24 24 24 24 24 24 24 24 24 24 24 24 24
23 23 25 23 24 23 23 24 25 26 25 24 24 28 25 25 24 24 24 24 24 23 23 24 24 24 24 25 25 25 24 24 25 24 24 24 24 24 24 24 24 24 24 24 24 24 24 24 24
24 24 23 22 23 24 24 24 25 24 23 23 23 26 25 26 23 23 24 24 24 24 24 24 25 25 25 24 24 24 25 25 24 24 24 24 24 24 24 24 24 24 24 24 24 24 24 24 24
24 25 23 22 22 23 24 24 25 23 23 23 23 25 26 25 23 23 23 23 24 24 23 24 24 24 24 24 24 24 24 24 24 24 25 24 24 24 23 23 23 24 24 24 24 24 24 24 24
26 26 23 23 26 22 23 25 22 22 21 22 23 23 25 25 24 24 24 23 23 23 23 23 23 24 25 25 24 24 24 24 24 24 24 25 24 24 24 23 23 24 24 24 24 24 24 24 24

GFSSGP_925_temp_120.txt.gz
Temp
21 21 21 21 22 21 24 26 26 25 25 26 26 25 24 23 24 22 21 22 22 22 21 21 21 21 21 21 20 20 20 20 20 20 20 20 20 20 21 20 21 21 21 20 20 20 20 21 20
22 21 21 20 22 23 24 27 25 25 25 25 26 25 23 22 21 19 21 22 22 22 21 21 21 21 21 21 20 21 20 20 20 20 21 20 20 20 20 21 20 20 21 20 20 21 21 21 21
22 22 22 21 22 23 24 26 25 26 27 26 25 25 23 21 21 21 23 22 22 21 21 21 21 21 21 21 21 20 20 20 20 20 20 20 20 21 21 20 20 20 20 20 21 21 22 22 22
23 22 22 22 25 26 26 25 26 26 27 26 25 23 22 22 22 22 22 22 22 21 21 21 21 21 21 21 21 20 20 20 20 20 21 20 21 21 20 21 20 20 20 21 21 21 22 22 21
23 22 24 25 26 26 26 26 27 26 25 25 25 22 21 21 23 22 22 22 22 21 21 21 21 21 21 21 21 20 21 20 20 20 20 20 21 21 20 20 21 21 20 20 21 21 21 22 21
22 22 24 24 26 26 27 27 26 25 24 24 23 22 20 20 21 22 22 22 22 22 21 21 21 21 21 21 21 21 21 21 21 20 21 21 21 20 21 21 21 20 20 20 21 21 21 22 21
23 23 23 24 25 26 26 27 26 25 25 24 24 22 21 20 20 21 21 22 21 21 21 21 21 21 21 21 21 21 21 20 21 21 21 21 21 21 21 20 21 20 20 21 22 22 22 22 22
21 23 24 25 25 26 27 26 26 25 24 25 24 21 21 20 20 21 21 21 20 20 20 21 21 21 21 22 21 21 21 21 21 21 21 21 21 20 20 21 20 21 21 21 23 22 22 22 22
23 24 24 26 26 26 26 26 26 26 25 26 25 23 22 20 20 20 20 20 20 20 20 21 21 21 22 22 21 21 21 21 21 21 21 21 21 21 21 21 21 21 21 22 23 23 23 23 23
23 23 25 24 24 25 27 27 26 25 25 23 23 22 20 20 20 19 19 19 20 20 20 20 21 21 21 22 21 21 21 21 21 21 21 21 21 22 22 22 22 22 22 23 23 23 23 24 23
24 24 24 23 23 24 25 27 27 26 24 24 22 21 21 21 20 20 19 20 19 20 20 20 21 21 21 22 22 21 21 21 21 22 22 22 22 22 23 23 23 23 23 24 24 24 24 24 24
24 24 24 23 23 23 25 25 27 26 25 25 23 22 22 21 21 20 20 20 20 20 21 21 21 21 22 22 22 22 22 22 22 22 22 23 23 23 23 23 24 24 24 24 24 24 24 25 25
25 23 23 23 23 23 24 25 27 26 25 24 24 23 22 22 21 21 21 21 21 21 21 21 21 22 22 22 22 22 22 22 22 23 23 23 23 23 23 23 24 24 24 24 25 25 25 25 25
24 23 22 22 22 23 23 26 27 25 24 24 24 23 22 22 22 21 21 21 21 21 22 22 22 22 23 22 22 22 22 23 23 23 24 23 23 24 23 24 24 25 25 25 25 25 26 26 26
23 23 22 21 22 23 23 26 25 25 25 24 23 23 23 23 23 23 22 23 23 23 22 23 23 23 23 23 23 23 23 23 23 23 23 23 24 24 24 24 25 25 25 26 26 26 26 26 26
24 23 23 21 22 23 24 23 23 25 25 24 24 23 23 23 23 23 23 23 23 23 23 23 23 23 23 23 23 23 24 23 23 23 23 24 24 24 24 25 25 25 26 26 25 25 26 26 26
22 22 22 22 21 21 23 23 24 25 26 24 24 24 24 23 23 24 23 24 23 24 23 23 23 23 23 23 23 23 23 23 23 24 24 24 24 24 24 25 25 25 26 26 26 26 27 26 26
23 22 22 21 21 22 23 23 24 25 26 25 24 24 23 23 23 24 23 24 24 24 24 23 23 24 24 23 23 23 23 23 24 23 23 24 24 24 24 25 25 25 26 26 26 26 26 27 27
23 23 22 22 21 21 22 22 24 24 25 25 23 23 23 24 24 24 23 24 24 23 23 24 24 23 23 23 23 24 24 23 23 24 24 24 24 24 24 25 25 25 25 25 26 26 26 26 26
23 23 22 22 22 21 21 22 22 22 23 24 23 22 23 23 22 23 23 23 23 23 23 23 23 23 24 25 24 24 24 24 24 24 24 24 24 24 24 25 25 25 25 25 26 26 25 25 26
24 24 22 23 22 22 22 21 22 23 22 23 22 22 24 23 23 22 22 23 23 23 23 23 24 24 24 24 24 24 24 24 24 24 24 24 24 24 24 24 24 25 25 25 26 26 26 25 25
25 24 23 22 22 22 22 23 22 22 22 22 22 22 23 23 23 23 23 22 23 23 24 24 24 24 24 24 24 25 25 24 24 24 24 24 24 24 24 24 24 24 25 25 25 25 26 25 25
23 23 22 22 21 21 21 22 23 22 22 22 22 21 22 23 23 22 23 23 23 23 24 24 24 24 24 24 25 24 24 25 24 24 24 24 24 24 24 24 24 24 24 24 24 25 25 26 25
23 22 22 21 21 22 22 23 23 21 23 24 23 22 22 22 23 23 23 23 23 23 24 24 23 24 24 24 24 24 25 24 24 24 24 24 24 24 24 24 24 24 24 24 24 24 25 25 25
22 21 21 22 22 24 23 22 22 24 23 25 25 23 22 22 23 22 22 23 23 23 23 23 24 24 24 24 24 25 25 25 25 25 24 24 24 24 24 24 24 24 24 24 24 24 24 24 25
21 21 21 22 23 23 22 22 24 25 25 26 27 26 24 23 23 23 23 23 23 23 23 24 24 24 24 23 24 25 25 25 25 24 24 24 24 24 24 24 24 24 24 24 23 24 24 24 24
22 22 23 21 23 23 23 24 25 25 25 25 26 26 24 24 24 23 23 23 23 22 23 24 24 24 24 24 23 24 24 24 24 24 24 24 24 24 24 24 24 24 24 24 23 23 23 23 24
22 22 23 21 23 23 24 24 23 22 23 23 23 25 25 24 23 23 23 23 23 23 23 24 24 24 24 24 24 24 24 24 24 24 24 24 24 23 23 23 23 23 23 23 23 23 23 23 23
22 23 22 22 22 24 23 23 21 20 21 23 23 23 23 23 23 23 23 23 23 23 23 24 23 24 24 24 24 24 24 24 24 24 24 24 24 23 23 23 23 24 23 23 23 23 23 23 23
22 24 21 23 24 21 21 23 21 20 20 22 22 23 22 23 22 23 23 22 22 23 23 23 23 24 24 25 24 24 24 24 24 24 24 24 23 23 24 23 23 23 23 23 24 24 24 23 23